[[{"header":{"parameterUnit":"m.s-1","parameterCategory":1,"la1":30.6,"la2":28.766,"lo1":-90.7593,"lo2":-88.6598,"dy":0.0162,"dx":0.0183,"nx":116,"ny":114,"refTime":"2023-04-16T12:00:00:Z","depth":0,"parameterNumber":2,"parameterNumberName":"U-component_of_WINDS"},"data":[0.0,0.0,0.0,0.0,0.0,0.0,0.0,0.0,0.0,0.0,0.0,0.0,0.0,0.0,0.0,0.0,0.0,0.0,0.0,0.0,0.0,0.0,0.0,0.0,0.0,0.0,0.0,0.0,0.0,0.0,0.0,0.0,0.0,0.0,0.0,0.0,0.0,0.0,0.0,0.0,0.0,0.0,0.0,0.0,0.0,0.0,0.0,0.0,0.0,0.0,0.0,0.0,0.0,0.0,0.0,0.0,0.0,0.0,0.0,0.0,0.0,0.0,0.0,0.0,0.0,0.0,0.0,0.0,0.0,0.0,0.0,0.0,0.0,0.0,0.0,0.0,0.0,0.0,0.0,0.0,0.0,0.0,0.0,0.0,0.0,0.0,0.0,0.0,0.0,0.0,0.0,0.0,0.0,0.0,0.0,0.0,0.0,0.0,0.0,0.0,0.0,0.0,0.0,0.0,0.0,0.0,0.0,0.0,0.0,0.0,0.0,0.0,0.0,0.0,0.0,0.0,0.0,0.0,0.0,0.0,0.0,0.0,0.0,0.0,0.0,0.0,0.0,0.0,0.0,0.0,0.0,0.0,0.0,0.0,0.0,0.0,0.0,0.0,0.0,0.0,0.0,0.0,0.0,0.0,0.0,0.0,0.0,0.0,0.0,0.0,0.0,0.0,0.0,0.0,0.0,0.0,0.0,0.0,0.0,0.0,0.0,0.0,0.0,0.0,0.0,0.0,0.0,0.0,0.0,0.0,0.0,0.0,0.0,0.0,0.0,0.0,0.0,0.0,0.0,0.0,0.0,0.0,0.0,0.0,0.0,0.0,0.0,0.0,0.0,0.0,0.0,0.0,0.0,0.0,0.0,0.0,0.0,0.0,0.0,0.0,0.0,0.0,0.0,0.0,0.0,0.0,0.0,0.0,0.0,0.0,0.0,0.0,0.0,0.0,0.0,0.0,0.0,0.0,0.0,0.0,0.0,0.0,0.0,0.0,0.0,0.0,0.0,0.0,0.0,0.0,0.0,0.0,0.0,0.0,0.0,0.0,0.0,0.0,0.0,0.0,0.0,0.0,0.0,0.0,0.0,0.0,0.0,0.0,0.0,0.0,0.0,0.0,0.0,0.0,0.0,0.0,0.0,0.0,0.0,0.0,0.0,0.0,0.0,0.0,0.0,0.0,0.0,0.0,0.0,0.0,0.0,0.0,0.0,0.0,0.0,0.0,0.0,0.0,0.0,0.0,0.0,0.0,0.0,0.0,0.0,0.0,0.0,0.0,0.0,0.0,0.0,0.0,0.0,0.0,0.0,0.0,0.0,0.0,0.0,0.0,0.0,0.0,0.0,0.0,0.0,0.0,0.0,0.0,0.0,0.0,0.0,0.0,0.0,0.0,0.0,0.0,0.0,0.0,0.0,0.0,0.0,0.0,0.0,0.0,0.0,0.0,0.0,0.0,0.0,0.0,0.0,0.0,0.0,0.0,0.0,0.0,0.0,0.0,0.0,0.0,0.0,0.0,0.0,0.0,0.0,0.0,0.0,0.0,0.0,0.0,0.0,0.0,0.0,0.0,0.0,0.0,0.0,0.0,0.0,0.0,0.0,0.0,0.0,0.0,0.0,0.0,0.0,0.0,0.0,0.0,0.0,0.0,0.0,0.0,0.0,0.0,0.0,0.0,0.0,0.0,0.0,0.0,0.0,0.0,0.0,0.0,0.0,0.0,0.0,0.0,0.0,0.0,0.0,0.0,0.0,0.0,0.0,0.0,0.0,0.0,0.0,0.0,0.0,0.0,0.0,0.0,0.0,0.0,0.0,0.0,0.0,0.0,0.0,0.0,0.0,0.0,0.0,0.0,0.0,0.0,0.0,0.0,0.0,0.0,0.0,0.0,0.0,0.0,0.0,0.0,0.0,0.0,0.0,0.0,0.0,0.0,0.0,0.0,0.0,0.0,0.0,0.0,0.0,0.0,0.0,0.0,0.0,0.0,0.0,0.0,0.0,0.0,0.0,0.0,0.0,0.0,0.0,0.0,0.0,0.0,0.0,0.0,0.0,0.0,0.0,0.0,0.0,0.0,0.0,0.0,0.0,0.0,0.0,0.0,0.0,0.0,0.0,0.0,0.0,0.0,0.0,0.0,0.0,0.0,0.0,0.0,0.0,0.0,0.0,0.0,0.0,0.0,0.0,0.0,0.0,0.0,0.0,0.0,0.0,0.0,0.0,0.0,0.0,0.0,0.0,0.0,0.0,0.0,0.0,0.0,0.0,0.0,0.0,0.0,0.0,0.0,0.0,0.0,0.0,0.0,0.0,0.0,0.0,0.0,0.0,0.0,0.0,0.0,0.0,0.0,0.0,0.0,0.0,0.0,0.0,0.0,0.0,0.0,0.0,0.0,0.0,0.0,0.0,0.0,0.0,0.0,0.0,0.0,0.0,0.0,0.0,0.0,0.0,0.0,0.0,0.0,0.0,0.0,0.0,0.0,0.0,0.0,0.0,0.0,0.0,0.0,0.0,0.0,0.0,0.0,0.0,0.0,0.0,0.0,0.0,0.0,0.0,0.0,0.0,0.0,0.0,0.0,0.0,0.0,0.0,0.0,0.0,0.0,0.0,0.0,0.0,0.0,0.0,0.0,0.0,0.0,0.0,0.0,0.0,0.0,0.0,0.0,0.0,0.0,0.0,0.0,0.0,0.0,0.0,0.0,0.0,0.0,0.0,0.0,0.0,0.0,0.0,0.0,0.0,0.0,0.0,0.0,0.0,0.0,0.0,0.0,0.0,0.0,0.0,0.0,0.0,0.0,0.0,0.0,0.0,0.0,0.0,0.0,0.0,0.0,0.0,0.0,0.0,0.0,0.0,0.0,0.0,0.0,0.0,0.0,0.0,0.0,0.0,0.0,0.0,0.0,0.0,0.0,0.0,0.0,0.0,0.0,0.0,0.0,0.0,0.0,0.0,0.0,0.0,0.0,0.0,0.0,0.0,0.0,0.0,0.0,0.0,0.0,0.0,0.0,0.0,0.0,0.0,0.0,0.0,0.0,0.0,0.0,0.0,0.0,0.0,0.0,0.0,0.0,0.0,0.0,0.0,0.0,0.0,0.0,0.0,0.0,0.0,0.0,0.0,0.0,0.0,0.0,0.0,0.0,0.0,0.0,0.0,0.0,0.0,0.0,0.0,0.0,0.0,0.0,0.0,0.0,0.0,0.0,0.0,0.0,0.0,0.0,0.0,0.0,0.0,0.0,0.0,0.0,0.0,0.0,0.0,0.0,0.0,0.0,0.0,0.0,0.0,0.0,0.0,0.0,0.0,0.0,0.0,0.0,0.0,0.0,0.0,0.0,0.0,0.0,0.0,0.0,0.0,0.0,0.0,0.0,0.0,0.0,0.0,0.0,0.0,0.0,0.0,0.0,0.0,0.0,0.0,0.0,0.0,0.0,0.0,0.0,0.0,0.0,0.0,0.0,0.0,0.0,0.0,0.0,0.0,0.0,0.0,0.0,0.0,0.0,0.0,0.0,0.0,0.0,0.0,0.0,0.0,0.0,0.0,0.0,0.0,0.0,0.0,0.0,0.0,0.0,0.0,0.0,0.0,0.0,0.0,0.0,0.0,0.0,0.0,0.0,0.0,0.0,0.0,0.0,0.0,0.0,0.0,0.0,0.0,0.0,0.0,0.0,0.0,0.0,0.0,0.0,0.0,0.0,0.0,0.0,0.0,0.0,0.0,0.0,0.0,0.0,0.0,0.0,0.0,0.0,0.0,0.0,0.0,0.0,0.0,0.0,0.0,0.0,0.0,0.0,0.0,0.0,0.0,0.0,0.0,0.0,0.0,0.0,0.0,0.0,0.0,0.0,0.0,0.0,0.0,0.0,0.0,0.0,0.0,0.0,0.0,0.0,0.0,0.0,0.0,0.0,0.0,0.0,0.0,0.0,0.0,0.0,0.0,0.0,0.0,0.0,0.0,0.0,0.0,0.0,0.0,0.0,0.0,0.0,0.0,0.0,0.0,0.0,0.0,0.0,0.0,0.0,0.0,0.0,0.0,0.0,0.0,0.0,0.0,0.0,0.0,0.0,0.0,0.0,0.0,0.0,0.0,0.0,0.0,0.0,0.0,0.0,0.0,0.0,0.0,0.0,0.0,0.0,0.0,0.0,0.0,0.0,0.0,0.0,0.0,0.0,0.0,0.0,0.0,0.0,0.0,0.0,0.0,0.0,0.0,0.0,0.0,0.0,0.0,0.0,0.0,0.0,0.0,0.0,0.0,0.0,0.0,0.0,0.0,0.0,0.0,0.0,0.0,0.0,0.0,0.0,0.0,0.0,0.0,0.0,0.0,0.0,0.0,0.0,0.0,0.0,0.0,0.0,0.0,0.0,0.0,0.0,0.0,0.0,0.0,0.0,0.0,0.0,0.0,0.0,0.0,0.0,0.0,0.0,0.0,0.0,0.0,0.0,0.0,0.0,0.0,0.0,0.0,0.0,0.0,0.0,0.0,0.0,0.0,0.0,0.0,0.0,0.0,0.0,0.0,0.0,0.0,0.0,0.0,0.0,0.0,0.0,0.0,0.0,0.0,0.0,0.0,0.0,0.0,0.0,0.0,0.0,0.0,0.0,0.0,0.0,0.0,0.0,0.0,0.0,0.0,0.0,0.0,0.0,0.0,0.0,0.0,0.0,0.0,0.0,0.0,0.0,0.0,0.0,0.0,0.0,0.0,0.0,0.0,0.0,0.0,0.0,0.0,0.0,0.0,0.0,0.0,0.0,0.0,0.0,0.0,0.0,0.0,0.0,0.0,0.0,0.0,0.0,0.0,0.0,0.0,0.0,0.0,0.0,0.0,0.0,0.0,0.0,0.0,0.0,0.0,0.0,0.0,0.0,0.0,0.0,0.0,0.0,0.0,0.0,0.0,0.0,0.0,0.0,0.0,0.0,0.0,0.0,0.0,0.0,0.0,0.0,0.0,0.0,0.0,0.0,0.0,0.0,0.0,0.0,0.0,0.0,0.0,0.0,0.0,0.0,0.0,0.0,0.0,0.0,0.0,0.0,0.0,0.0,0.0,0.0,0.0,0.0,0.0,0.0,0.0,0.0,0.0,0.0,0.0,0.0,0.0,0.0,0.0,0.0,0.0,0.0,0.0,0.0,0.0,0.0,0.0,0.0,0.0,0.0,0.0,0.0,0.0,0.0,0.0,0.0,0.0,0.0,0.0,0.0,0.0,0.0,0.0,0.0,0.0,0.0,0.0,0.0,0.0,0.0,0.0,0.0,0.0,0.0,0.0,0.0,0.0,0.0,0.0,0.0,0.0,0.0,0.0,0.0,0.0,0.0,0.0,0.0,0.0,0.0,0.0,0.0,0.0,0.0,0.0,0.0,0.0,0.0,0.0,0.0,0.0,0.0,0.0,0.0,0.0,0.0,0.0,0.0,0.0,0.0,0.0,0.0,0.0,0.0,0.0,0.0,0.0,0.0,0.0,0.0,0.0,0.0,0.0,0.0,0.0,0.0,0.0,0.0,0.0,0.0,0.0,0.0,0.0,0.0,0.0,0.0,0.0,0.0,0.0,0.0,0.0,0.0,0.0,0.0,0.0,0.0,0.0,0.0,0.0,0.0,0.0,0.0,0.0,0.0,0.0,0.0,0.0,0.0,0.0,0.0,0.0,0.0,0.0,0.0,0.0,0.0,0.0,0.0,0.0,0.0,0.0,0.0,0.0,0.0,0.0,0.0,0.0,0.0,0.0,0.0,0.0,0.0,0.0,0.0,0.0,0.0,0.0,0.0,0.0,0.0,0.0,0.0,0.0,0.0,0.0,0.0,0.0,0.0,0.0,0.0,0.0,0.0,0.0,0.0,0.0,0.0,0.0,0.0,0.0,0.0,0.0,0.0,0.0,0.0,0.0,0.0,0.0,0.0,0.0,0.0,0.0,0.0,0.0,0.0,0.0,0.0,0.0,0.0,0.0,0.0,0.0,0.0,0.0,0.0,0.0,0.0,0.0,0.0,0.0,0.0,0.0,0.0,0.0,0.0,0.0,0.0,0.0,0.0,0.0,0.0,0.0,0.0,0.0,0.0,0.0,0.0,0.0,0.0,0.0,0.0,0.0,0.0,-4.0432,0.0,0.0,0.0,0.0,0.0,0.0,0.0,0.0,0.0,0.0,0.0,0.0,0.0,0.0,0.0,0.0,0.0,0.0,0.0,0.0,0.0,0.0,0.0,0.0,0.0,0.0,0.0,0.0,0.0,0.0,0.0,0.0,0.0,0.0,0.0,0.0,0.0,0.0,0.0,0.0,0.0,0.0,0.0,0.0,0.0,0.0,0.0,0.0,0.0,0.0,0.0,0.0,0.0,0.0,0.0,0.0,0.0,0.0,0.0,0.0,0.0,0.0,0.0,0.0,0.0,0.0,0.0,0.0,0.0,0.0,0.0,0.0,0.0,0.0,0.0,0.0,0.0,0.0,0.0,0.0,0.0,0.0,0.0,0.0,0.0,0.0,0.0,0.0,0.0,0.0,0.0,0.0,0.0,0.0,0.0,0.0,0.0,0.0,0.0,0.0,0.0,0.0,0.0,0.0,0.0,0.0,0.0,0.0,0.0,0.0,0.0,0.0,0.0,0.0,0.0,0.0,-4.1322,0.0,0.0,0.0,0.0,0.0,0.0,0.0,0.0,0.0,0.0,0.0,0.0,0.0,0.0,0.0,0.0,0.0,0.0,0.0,0.0,0.0,0.0,0.0,0.0,0.0,0.0,0.0,0.0,0.0,0.0,0.0,0.0,0.0,0.0,0.0,0.0,0.0,0.0,0.0,0.0,0.0,0.0,0.0,0.0,0.0,0.0,0.0,0.0,0.0,0.0,0.0,0.0,0.0,0.0,0.0,0.0,0.0,0.0,0.0,0.0,0.0,0.0,0.0,0.0,0.0,0.0,0.0,0.0,0.0,0.0,0.0,0.0,0.0,0.0,0.0,0.0,0.0,0.0,0.0,0.0,0.0,0.0,0.0,0.0,0.0,0.0,0.0,0.0,0.0,0.0,0.0,0.0,0.0,0.0,0.0,0.0,0.0,0.0,0.0,0.0,0.0,0.0,0.0,0.0,0.0,0.0,0.0,0.0,-4.3711,-4.4037,-4.3277,-4.4091,-4.4413,-4.4243,-4.3003,-4.3231,-4.4309,0.0,0.0,0.0,0.0,0.0,0.0,0.0,0.0,0.0,0.0,0.0,0.0,0.0,0.0,0.0,0.0,0.0,0.0,0.0,0.0,0.0,0.0,0.0,0.0,0.0,0.0,0.0,0.0,0.0,0.0,0.0,0.0,0.0,0.0,0.0,0.0,0.0,0.0,0.0,-3.7831,-3.953,-4.0343,-4.027,0.0,0.0,0.0,0.0,0.0,0.0,0.0,0.0,0.0,0.0,0.0,0.0,0.0,0.0,0.0,0.0,0.0,0.0,0.0,0.0,0.0,0.0,0.0,0.0,0.0,0.0,0.0,0.0,0.0,0.0,0.0,0.0,0.0,0.0,0.0,0.0,0.0,0.0,0.0,0.0,0.0,0.0,0.0,0.0,-4.4694,-4.5976,0.0,0.0,0.0,0.0,0.0,0.0,0.0,0.0,0.0,0.0,0.0,0.0,0.0,0.0,-4.2322,-4.376,-4.4155,-4.3544,-4.515,-4.5492,-4.4754,-4.5564,-4.5906,-4.5885,-4.569,0.0,-4.3897,-4.3552,0.0,0.0,0.0,0.0,0.0,0.0,0.0,0.0,0.0,0.0,0.0,0.0,0.0,0.0,0.0,0.0,0.0,0.0,0.0,0.0,0.0,0.0,0.0,0.0,0.0,0.0,0.0,0.0,0.0,0.0,0.0,0.0,0.0,0.0,0.0,0.0,-3.5987,-3.6864,-3.7928,-3.876,-3.9155,-3.9143,-3.8384,-3.8635,-3.9542,-3.9004,0.0,0.0,0.0,0.0,0.0,0.0,0.0,0.0,0.0,0.0,0.0,0.0,0.0,0.0,0.0,0.0,0.0,0.0,0.0,0.0,0.0,0.0,0.0,0.0,0.0,0.0,0.0,0.0,0.0,0.0,0.0,0.0,0.0,0.0,0.0,0.0,0.0,0.0,0.0,-4.2992,-4.4572,-4.4498,-4.4829,-4.4541,0.0,0.0,0.0,0.0,0.0,0.0,0.0,0.0,0.0,-4.3924,-4.3524,-4.3486,-4.3937,-4.5069,-4.5465,-4.5159,-4.6277,-4.6636,-4.6313,-4.6654,-4.6791,-4.6801,-4.7191,-4.6448,-4.4861,-4.4112,-4.2913,-4.1441,0.0,0.0,0.0,0.0,0.0,-3.9548,0.0,0.0,0.0,0.0,0.0,0.0,0.0,0.0,0.0,0.0,0.0,0.0,0.0,0.0,0.0,-3.3834,0.0,0.0,0.0,0.0,0.0,0.0,0.0,0.0,0.0,0.0,0.0,0.0,-3.6324,-3.7008,-3.7982,-3.8536,-3.8821,-3.8821,-3.8821,-3.9192,-3.9802,-3.9566,-3.8584,0.0,0.0,0.0,0.0,0.0,0.0,0.0,0.0,0.0,0.0,0.0,0.0,0.0,0.0,0.0,0.0,0.0,0.0,0.0,0.0,0.0,0.0,0.0,0.0,0.0,0.0,0.0,0.0,0.0,0.0,0.0,0.0,0.0,0.0,0.0,0.0,0.0,0.0,-4.3596,-4.4708,-4.3445,-4.492,-4.5145,0.0,0.0,0.0,0.0,0.0,0.0,-4.4751,-4.3835,-4.392,-4.5272,-4.4752,-4.4756,-4.5347,-4.5975,-4.6171,-4.5975,-4.6527,-4.6776,-4.6776,-4.6776,-4.6747,-4.6749,-4.7458,-4.6941,-4.5516,-4.4664,-4.3607,-4.2386,-4.0967,-4.0286,-4.0124,-4.0124,-4.023,-4.044,0.0,0.0,0.0,0.0,0.0,0.0,0.0,0.0,0.0,0.0,0.0,0.0,0.0,0.0,-3.2138,-3.341,-3.2322,-3.1586,0.0,0.0,0.0,0.0,0.0,0.0,0.0,0.0,0.0,-3.3304,-3.6518,-3.8117,-3.8242,-4.0278,-4.1212,-4.1212,-4.1212,-4.073,-3.9823,-3.8546,-3.7953,-3.7773,0.0,0.0,0.0,0.0,0.0,0.0,0.0,0.0,0.0,0.0,0.0,0.0,0.0,0.0,0.0,0.0,0.0,0.0,0.0,0.0,0.0,0.0,0.0,0.0,0.0,0.0,0.0,0.0,0.0,0.0,0.0,0.0,0.0,0.0,0.0,0.0,0.0,0.0,0.0,-4.5069,-4.7904,0.0,0.0,0.0,0.0,-4.4451,-4.4998,-4.5128,-4.4458,-4.4887,-4.5554,-4.6385,-4.6314,-4.6305,-4.6339,-4.641,-4.6108,-4.5356,-4.539,-4.5407,-4.5407,-4.5407,-4.5407,-4.5433,-4.6055,-4.5831,-4.5058,-4.5516,-4.436,-4.2218,-4.1379,-4.0574,-3.9914,-3.9914,-4.0396,-4.1056,0.0,0.0,0.0,0.0,0.0,0.0,0.0,0.0,0.0,0.0,0.0,0.0,0.0,-3.2077,-3.2903,-3.339,-3.2914,-3.2397,-3.1966,0.0,0.0,0.0,0.0,0.0,0.0,0.0,-3.2723,-3.3803,-3.5419,-3.6418,-3.6869,-3.7988,-3.8505,-3.852,-3.8913,-3.946,0.0,0.0,0.0,0.0,0.0,0.0,0.0,0.0,0.0,0.0,0.0,0.0,0.0,0.0,0.0,0.0,0.0,0.0,0.0,0.0,0.0,0.0,0.0,0.0,0.0,0.0,0.0,0.0,0.0,0.0,0.0,0.0,0.0,0.0,0.0,0.0,0.0,0.0,0.0,0.0,0.0,0.0,0.0,-4.6527,-4.8354,0.0,-4.6247,-4.6471,-4.6589,-4.6058,-4.6495,-4.7123,-4.7831,-4.7138,-4.7086,-4.7907,-4.7386,-4.7117,-4.7117,-4.6672,-4.6293,-4.6017,-4.5544,-4.5303,-4.5285,-4.4829,-4.4587,-4.4595,-4.4314,-4.3771,-4.3068,-4.3284,-4.3243,-4.3001,-4.218,-4.1698,-4.1431,-4.1431,-4.1627,-4.1787,0.0,0.0,0.0,0.0,0.0,0.0,0.0,0.0,0.0,0.0,0.0,-3.082,-3.1693,-3.2324,-3.2844,-3.3192,-3.2723,-3.2131,-3.144,0.0,0.0,0.0,0.0,0.0,0.0,-3.1297,-3.2123,-3.3178,-3.4069,-3.4827,-3.5474,-3.608,0.0,0.0,0.0,0.0,0.0,0.0,0.0,0.0,0.0,0.0,-3.751,0.0,0.0,0.0,0.0,0.0,0.0,0.0,0.0,0.0,0.0,0.0,0.0,0.0,0.0,0.0,0.0,0.0,0.0,0.0,0.0,0.0,0.0,0.0,0.0,0.0,0.0,0.0,0.0,0.0,0.0,0.0,0.0,0.0,0.0,0.0,-4.7137,-4.6812,-4.8895,-4.9327,-4.6693,-4.739,-4.7692,-4.6965,-4.7386,-4.8022,-4.88,-4.809,-4.7801,-4.8069,-4.7563,-4.7053,-4.6544,-4.6062,-4.5688,-4.545,-4.4967,-4.4593,-4.432,-4.3853,-4.3479,-4.3233,-4.2954,-4.2413,-4.1719,-4.1832,-4.2149,-4.2467,-4.1982,-4.1878,-4.2002,-4.1835,-4.1792,-4.1686,0.0,0.0,0.0,0.0,0.0,0.0,0.0,0.0,0.0,0.0,-3.0089,-3.094,-3.226,-3.1758,-3.1738,-3.2779,-3.1602,-3.0503,0.0,-2.9297,0.0,0.0,0.0,0.0,-2.9473,-3.0061,-3.065,-3.115,-3.2527,-3.3526,0.0,0.0,0.0,0.0,0.0,0.0,0.0,0.0,0.0,0.0,0.0,0.0,-3.9465,0.0,0.0,0.0,0.0,0.0,0.0,0.0,0.0,0.0,0.0,0.0,0.0,0.0,0.0,0.0,0.0,0.0,0.0,0.0,0.0,0.0,0.0,0.0,0.0,0.0,0.0,0.0,0.0,0.0,0.0,0.0,0.0,0.0,-4.492,-4.6692,-4.757,-4.6228,-4.9806,-5.0982,-4.7438,-4.9011,-4.9342,-4.7173,-4.7636,-4.7719,-4.7007,-4.762,-4.7669,-4.6957,-4.6908,-4.6195,-4.4771,-4.4735,-4.434,-4.3631,-4.3582,-4.3184,-4.2489,-4.244,-4.2026,-4.1375,-4.196,-4.1736,-4.1059,-4.145,-4.1212,-4.0577,-4.0731,-4.1065,-4.1405,-4.0932,-4.0709,-4.0618,0.0,0.0,0.0,0.0,0.0,0.0,0.0,0.0,0.0,0.0,-3.047,-3.1464,-3.2304,-3.1969,-3.1792,-3.2083,-3.1148,0.0,0.0,0.0,0.0,0.0,0.0,0.0,-2.9486,-2.9639,-2.9843,-2.9959,-3.0802,-3.1266,0.0,0.0,0.0,0.0,0.0,0.0,0.0,0.0,0.0,0.0,0.0,0.0,-4.068,0.0,0.0,0.0,0.0,0.0,0.0,0.0,0.0,0.0,0.0,0.0,0.0,0.0,0.0,0.0,0.0,0.0,0.0,0.0,0.0,0.0,0.0,0.0,0.0,0.0,0.0,0.0,0.0,0.0,0.0,0.0,0.0,-4.6891,-4.7769,-4.8879,-5.0237,-5.1926,-5.2274,-5.2175,-5.1661,-5.1231,-5.0518,-4.9392,-4.8995,-4.8713,-4.8514,-4.8183,-4.7918,-4.7703,-4.7173,-4.6709,-4.6295,-4.5218,-4.4589,-4.4373,-4.333,-4.2659,-4.231,-4.1255,-4.0605,-4.029,-3.9913,-3.9648,-3.9423,-3.9568,-3.9726,-3.991,-4.0275,-4.0518,-4.0569,-3.9941,-3.8985,-3.8031,0.0,0.0,0.0,0.0,0.0,0.0,0.0,0.0,0.0,0.0,-3.0774,-3.1597,-3.2254,-3.1512,-3.0937,-3.0827,-3.0077,0.0,0.0,0.0,0.0,0.0,0.0,-2.9389,-2.9631,-2.9389,-2.9238,-2.9238,-2.9351,-2.9681,0.0,0.0,0.0,0.0,0.0,0.0,0.0,0.0,0.0,0.0,0.0,0.0,-4.1983,-3.9993,-3.9649,-4.0157,-3.9592,-3.9478,-3.9625,-3.9849,0.0,0.0,0.0,0.0,0.0,0.0,0.0,0.0,0.0,0.0,0.0,0.0,0.0,0.0,0.0,0.0,0.0,0.0,0.0,0.0,0.0,0.0,0.0,0.0,-4.7769,-4.9144,-5.032,-5.0585,-5.1396,-5.3384,-5.2887,-5.2423,-5.2506,-5.1761,-5.085,-4.9823,-4.9342,-4.8978,-4.8663,-4.8233,-4.7719,-4.7106,-4.6957,-4.646,-4.5533,-4.4671,-4.4062,-4.3671,-4.2514,-4.1717,-4.1259,-4.0421,-3.9823,0.0,-3.8985,-3.8805,-3.8805,-3.8738,-3.8914,0.0,0.0,0.0,0.0,0.0,-3.8012,-3.7055,0.0,0.0,0.0,0.0,0.0,0.0,0.0,0.0,0.0,0.0,0.0,-3.1413,-3.203,-3.0637,-2.9604,-2.9433,-2.8789,-2.81,0.0,0.0,0.0,-2.8417,-2.8812,-2.9239,-2.9691,-2.9126,-2.8762,-2.87,-2.8247,-2.8561,0.0,0.0,0.0,0.0,0.0,0.0,0.0,0.0,0.0,0.0,0.0,0.0,-4.2922,-4.1272,-4.107,-4.1624,-4.0965,-4.0442,-4.0121,-4.0666,0.0,0.0,0.0,0.0,0.0,0.0,0.0,0.0,0.0,0.0,0.0,0.0,0.0,0.0,0.0,0.0,0.0,0.0,0.0,0.0,0.0,0.0,0.0,0.0,-5.027,-5.1564,-5.231,-5.1846,-5.1696,-5.2442,-5.2459,-5.2158,-5.1597,-5.1481,-5.08,-4.9342,-4.9226,-4.8879,-4.805,0.0,0.0,0.0,0.0,-4.5798,-4.3701,-4.3519,-4.3046,-4.2268,-4.1461,-4.0635,-3.9858,-3.9792,-3.9399,-3.875,-3.875,-3.875,-3.875,-3.8616,-3.856,-3.8588,-3.8711,-3.8962,-3.9111,-3.8031,-3.7345,0.0,0.0,0.0,0.0,0.0,0.0,0.0,0.0,0.0,0.0,-3.0417,-3.0542,-3.0816,-3.1499,-2.9966,-2.8892,-2.8856,-2.8428,-2.8096,0.0,0.0,-2.8197,-2.8787,-2.9327,-2.9453,-2.9063,-2.8549,-2.8047,-2.7607,-2.7494,-2.7783,0.0,0.0,0.0,0.0,0.0,0.0,0.0,0.0,0.0,0.0,0.0,0.0,-4.1927,-4.1986,-4.2716,-4.3658,-4.2961,-4.3374,-4.4092,-4.3688,-4.308,-4.2453,-4.1953,0.0,0.0,0.0,0.0,0.0,0.0,0.0,0.0,0.0,0.0,0.0,0.0,0.0,0.0,0.0,0.0,0.0,0.0,0.0,0.0,-4.8133,-4.9939,-5.1564,-5.231,-5.2293,-5.2423,-5.3135,-5.2721,-5.2539,-5.297,-5.2489,-5.1562,-5.0104,-5.0005,-4.9409,-4.8084,-4.8001,0.0,-4.6709,-4.6245,-4.5454,-4.4339,-4.3152,-4.2404,-4.2108,0.0,0.0,-3.9728,-3.9117,-3.8718,-3.8476,-3.8476,-3.8476,-3.8476,-3.8448,-3.842,-3.842,-3.8476,-3.7861,-3.6916,-3.6696,-3.5812,-3.4618,0.0,0.0,0.0,0.0,0.0,0.0,0.0,0.0,0.0,0.0,-3.0729,-3.0892,-3.0895,-2.947,-2.8304,-2.7901,-2.7227,0.0,0.0,-2.7795,-2.8348,-2.8863,-2.9478,-2.9528,-2.89,-2.8386,-2.7833,-2.7281,-2.704,-2.7329,0.0,0.0,0.0,0.0,0.0,0.0,0.0,0.0,0.0,0.0,0.0,0.0,-3.9989,-4.1353,-4.2312,-4.3037,-4.3857,-4.4404,-4.4855,-4.52,-4.5053,-4.474,-4.4451,-4.3658,-4.2521,0.0,0.0,0.0,0.0,0.0,0.0,0.0,0.0,0.0,0.0,0.0,0.0,0.0,0.0,-4.4541,0.0,0.0,-4.8646,-4.9433,-5.0836,-5.1995,-5.2359,-5.2409,-5.2506,-5.2854,-5.2589,-5.2523,-5.287,-5.2589,-5.1926,-5.0817,-5.0419,-4.9723,-4.8614,-4.7852,-4.7106,-4.6361,-4.557,-4.475,-4.3963,-4.2423,-4.1583,-4.1422,-3.9952,-3.9182,-3.9052,-3.8666,-3.8448,-3.8391,-3.8391,-3.8391,-3.8391,-3.8391,-3.8391,-3.8359,-3.8003,-3.7436,-3.6724,-3.6011,-3.5266,-3.4538,0.0,0.0,0.0,0.0,0.0,0.0,0.0,0.0,0.0,0.0,0.0,-3.0771,-3.0623,-2.9004,-2.7622,0.0,0.0,0.0,0.0,-2.7607,-2.8398,-2.9026,-2.9541,-2.9478,-2.875,-2.8335,-2.7783,-2.7118,-2.6713,-2.7065,0.0,0.0,0.0,0.0,0.0,0.0,0.0,0.0,0.0,0.0,0.0,0.0,-3.7958,-3.9838,-4.1055,-4.2031,-4.415,-4.4712,-4.4639,-4.5968,-4.6384,-4.6324,-4.6636,-4.6142,-4.511,-4.3135,-4.241,0.0,0.0,0.0,0.0,0.0,0.0,0.0,0.0,0.0,-4.2443,-4.4474,-4.5026,-4.5606,-4.7214,-4.8316,-4.9346,-5.0451,-5.132,-5.1928,-5.2142,-5.2142,-5.2214,-5.2373,-5.2409,-5.2409,-5.2409,-5.2409,-5.2045,-5.1166,-5.0535,-4.9839,-4.8945,-4.7604,-4.6528,-4.5783,-4.49,-4.4017,-4.3114,-4.1668,-4.0818,-4.0541,-3.9194,-3.8504,-3.8391,-3.8391,-3.8391,-3.8391,-3.8391,-3.8391,-3.8391,-3.8391,-3.8327,-3.8116,-3.7376,-3.7004,-3.6756,-3.5606,-3.5114,-3.4862,0.0,0.0,0.0,0.0,0.0,0.0,0.0,0.0,0.0,0.0,0.0,0.0,0.0,0.0,0.0,0.0,0.0,0.0,0.0,-2.8034,-2.8574,-2.9641,-2.9754,-2.9289,-2.8222,-2.8134,-2.7595,-2.6587,-2.6524,-2.7065,-2.8109,0.0,0.0,0.0,0.0,0.0,0.0,0.0,0.0,0.0,0.0,0.0,-3.6701,-3.7511,-3.9675,-4.2424,-4.4086,-4.4744,-4.5117,-4.6425,-4.6614,-4.6488,-4.7698,-4.7219,-4.5771,-4.3768,0.0,-4.0891,-3.8153,-3.8048,-3.943,-4.2269,-4.1716,-4.1581,0.0,0.0,-4.4559,-4.6533,-4.7581,-4.8003,-4.7583,-4.8717,-4.9543,-4.9029,-4.9605,-5.0368,-5.1156,-5.1231,-5.1545,-5.2302,-5.2409,-5.2409,-5.2409,-5.2409,-5.181,-5.0436,-5.027,-4.9607,-4.8199,-4.7242,-4.6401,-4.5659,-4.4713,-4.3524,-4.1985,-4.1203,-4.0443,-3.9648,-3.8809,-3.8391,-3.8391,-3.8391,-3.8391,-3.8391,-3.8391,-3.8391,-3.8391,-3.8391,-3.8019,-3.7344,-3.6691,-3.6011,-3.5422,-3.526,-3.4781,-3.4117,0.0,0.0,0.0,0.0,0.0,0.0,0.0,0.0,0.0,0.0,0.0,0.0,0.0,0.0,0.0,0.0,0.0,0.0,-2.7746,-2.8091,-2.8736,-2.9741,-2.9465,-2.8913,-2.8122,-2.7795,-2.7278,-2.6499,-2.6813,-2.7344,-2.8109,0.0,0.0,0.0,0.0,0.0,0.0,0.0,0.0,0.0,0.0,0.0,-3.6793,-3.8195,-3.9355,-4.0376,-4.1721,-4.2379,0.0,0.0,-4.4748,-4.5242,-4.6539,-4.6401,-4.5409,-4.3768,-4.2901,0.0,-4.1122,-4.0786,-4.113,0.0,-4.3284,-4.3748,-4.5693,-4.5484,-4.5454,-4.7459,-4.8153,-4.8427,-4.8549,-4.9474,-4.9983,0.0,-4.9871,-5.0359,-5.0354,-5.0345,-5.0508,-5.0957,-5.1373,-5.1818,-5.2338,-5.2028,-5.1514,-5.0883,-5.0038,-4.9043,-4.7869,-4.6715,-4.5663,-4.4812,-4.3902,-4.2912,-4.1794,-4.1019,-4.0261,-3.9505,-3.8748,-3.8391,-3.8391,-3.8391,-3.8391,-3.8391,-3.8391,-3.8391,-3.8375,-3.7954,-3.757,-3.7182,-3.6092,-3.5461,-3.5163,-3.4725,-3.436,-3.4052,0.0,0.0,0.0,0.0,0.0,0.0,0.0,0.0,0.0,0.0,0.0,0.0,0.0,0.0,0.0,0.0,0.0,0.0,0.0,-2.8499,-2.9153,-3.0126,-2.953,0.0,-2.8348,-2.7946,-2.7469,-2.6952,-2.7728,-2.8282,-2.8665,0.0,0.0,0.0,0.0,0.0,0.0,0.0,0.0,0.0,0.0,0.0,-3.7343,-3.8505,-3.8624,-3.838,-3.9841,-4.0393,0.0,0.0,-4.2539,-4.3239,-4.4522,-4.4586,-4.4032,-4.3075,-4.2402,-4.1974,-4.2154,-4.2297,0.0,-4.3389,-4.4736,-4.5843,-4.5843,-4.5843,-4.6322,-4.7952,-4.8132,-4.8282,-4.9149,-4.9654,-4.9789,-4.9484,-4.9808,-5.0039,-4.9768,-4.9573,-4.9592,-4.9925,-5.0209,-5.072,-5.1632,-5.1473,-5.1232,-5.0999,-4.9789,-4.8547,-4.7474,-4.619,-4.5044,-4.4164,-4.3274,-4.2382,-4.1441,-4.0815,-4.0043,-3.9197,-3.8651,-3.8391,-3.8391,-3.8391,-3.8391,-3.8391,-3.8391,-3.8278,-3.8068,-3.7744,-3.7258,-3.6643,-3.5817,-3.5234,-3.4813,-3.4295,-3.4101,-3.4101,0.0,0.0,0.0,0.0,0.0,0.0,0.0,0.0,0.0,0.0,0.0,0.0,0.0,0.0,0.0,0.0,0.0,0.0,0.0,-2.9501,-2.9908,-3.109,-3.0266,-2.9503,-2.8875,-2.885,-2.8612,-2.8059,-2.943,-3.0079,-3.0085,-3.2005,0.0,0.0,0.0,0.0,0.0,0.0,0.0,0.0,0.0,0.0,-3.8168,-3.7296,-3.6929,-3.7147,-3.9326,0.0,0.0,0.0,-4.0403,-4.0464,-4.1802,-4.1888,0.0,-4.1444,-4.0068,-3.8691,-3.9349,0.0,-4.271,-4.3973,-4.5783,-4.7249,-4.7249,-4.7249,-4.7444,-4.8132,-4.7773,-4.7728,-4.9075,-4.879,-4.855,-4.9224,-4.879,-4.8632,-4.9416,-4.9015,-4.8913,-4.9694,-4.9095,-4.897,0.0,-5.0824,-5.0982,-5.0303,-4.9355,-4.8198,-4.6814,-4.5701,-4.4772,-4.4039,-4.3117,-4.1954,-4.0529,-4.0496,-3.98,-3.8424,-3.8408,-3.8391,-3.8391,-3.8391,-3.8391,-3.8391,-3.8391,-3.8003,-3.7376,-3.8084,-3.7128,-3.5341,-3.5995,-3.5396,-3.4133,-3.4117,-3.4101,-3.4101,0.0,0.0,0.0,0.0,0.0,0.0,0.0,0.0,0.0,0.0,0.0,0.0,0.0,0.0,0.0,0.0,0.0,0.0,0.0,-2.9676,-3.0337,-3.1431,-3.1106,-3.0846,-3.0632,-3.0131,-2.9817,-2.9618,-3.0507,-3.0909,-3.0913,-3.2339,0.0,0.0,0.0,0.0,0.0,0.0,0.0,0.0,0.0,0.0,-3.9173,-3.8609,-3.8146,-3.7658,0.0,0.0,0.0,0.0,-3.7726,-3.8024,-3.9349,-3.9173,0.0,-3.8031,-3.7961,-3.8275,-3.9527,0.0,-4.3101,-4.4441,-4.603,-4.7414,-4.7863,-4.7623,-4.7489,-4.8147,-4.6711,-4.5723,-4.707,-4.6642,-4.6452,-4.7539,-4.8134,-4.8356,-4.8208,-4.8159,-4.8109,-4.8014,-4.8335,0.0,0.0,0.0,0.0,-4.9271,-4.8529,-4.7358,-4.575,-4.531,-4.448,-4.3102,-4.2763,-4.1907,-4.0496,-4.0496,-3.9784,-3.8391,-3.7947,-3.7756,-3.7756,-3.7756,-3.7976,-3.8391,-3.8391,-3.7987,-3.7279,-3.7096,-3.6287,-3.5195,-3.4926,-3.4538,-3.4101,-3.4101,-3.4101,-3.4101,0.0,0.0,0.0,0.0,0.0,0.0,0.0,0.0,0.0,0.0,0.0,0.0,0.0,0.0,0.0,0.0,0.0,0.0,0.0,0.0,-3.0255,-3.1375,-3.106,-3.0952,-3.1158,-3.0713,-3.0576,-3.0774,-3.1639,-3.2033,-3.2026,-3.3284,-3.4038,0.0,0.0,0.0,0.0,0.0,0.0,0.0,0.0,0.0,-3.8808,-3.8337,-3.7767,0.0,0.0,0.0,0.0,0.0,-3.5758,-3.6078,-3.6927,-3.6908,-3.6473,-3.6162,-3.6891,-3.8119,-3.9595,-4.1587,-4.3497,-4.4578,-4.6144,-4.7479,-4.7673,-4.7346,-4.7152,-4.7628,-4.5947,-4.4772,-4.5858,-4.5431,-4.5169,-4.5999,-4.6875,-4.7346,-4.6933,-4.6978,-4.7033,-4.6921,-4.7223,-4.7357,0.0,0.0,0.0,-4.8158,-4.7796,-4.6831,-4.518,-4.4789,-4.4009,-4.2635,-4.2155,-4.1322,-4.0134,-3.9893,-3.9202,-3.8033,-3.7594,-3.7282,-3.7027,-3.7027,-3.7266,-3.7695,-3.7658,-3.7231,-3.6541,-3.6151,-3.538,-3.4448,-3.4256,-3.4015,-3.379,-3.379,-3.379,-3.3815,0.0,0.0,0.0,0.0,0.0,0.0,0.0,0.0,0.0,0.0,0.0,0.0,0.0,0.0,0.0,0.0,0.0,0.0,0.0,0.0,0.0,-3.1073,-3.0335,-3.0152,-3.0717,-3.0744,-3.0979,-3.1542,-3.2827,-3.3386,-3.3255,-3.4704,-3.5383,-3.5412,-3.6046,0.0,0.0,0.0,0.0,0.0,0.0,0.0,-3.731,-3.6577,0.0,0.0,0.0,0.0,0.0,0.0,0.0,-3.4756,-3.4785,-3.5297,-3.5918,-3.5981,-3.6875,-3.8171,-3.9452,-4.173,-4.3853,-4.4415,-4.6049,-4.7361,-4.6771,-4.6594,-4.6535,-4.6535,-4.5445,-4.4706,0.0,0.0,-4.4543,-4.4647,-4.5325,-4.5827,-4.5827,-4.5754,-4.5946,0.0,0.0,0.0,0.0,0.0,0.0,-4.6975,0.0,-4.653,-4.5114,-4.4205,-4.3379,-4.2556,-4.131,-4.0262,-3.9455,-3.8729,-3.8004,-3.7298,-3.7298,-3.6966,-3.6353,-3.6353,-3.6384,-3.6415,-3.6321,-3.5922,-3.5275,-3.5331,-3.4494,-3.3235,-3.393,-3.3787,-3.3172,-3.3145,-3.313,-3.3209,0.0,0.0,0.0,0.0,0.0,0.0,0.0,0.0,0.0,0.0,0.0,0.0,0.0,0.0,0.0,0.0,0.0,0.0,0.0,0.0,0.0,0.0,0.0,0.0,0.0,0.0,0.0,0.0,0.0,-3.3372,-3.3806,-3.4629,-3.5018,0.0,-3.6192,0.0,0.0,0.0,0.0,0.0,0.0,0.0,-3.8289,0.0,0.0,0.0,0.0,0.0,0.0,0.0,0.0,0.0,-3.5747,-3.6044,-3.6333,-3.6921,-3.7916,-3.906,-3.9978,-4.1829,-4.3629,-4.4218,-4.5242,-4.6343,-4.717,-4.655,-4.5886,-4.5916,-4.3717,-4.1858,0.0,0.0,0.0,-4.4144,-4.6004,0.0,-4.7286,-4.7395,0.0,-4.6402,0.0,-4.5917,-4.5001,-4.5633,0.0,0.0,-4.5557,-4.5623,-4.4047,-4.4329,-4.3686,-4.1851,-4.1465,-4.0445,-3.8708,-3.753,-3.66,-3.5897,-3.5897,-3.5802,-3.5642,-3.5642,-3.5914,-3.6399,-3.6383,-3.5716,-3.4632,-3.4647,-3.3826,-3.2617,-3.2815,-3.2784,-3.2586,-3.2431,-3.2388,-3.2388,0.0,0.0,0.0,0.0,0.0,0.0,0.0,0.0,0.0,0.0,0.0,0.0,0.0,0.0,0.0,0.0,0.0,0.0,0.0,0.0,0.0,0.0,0.0,0.0,0.0,0.0,0.0,0.0,0.0,0.0,0.0,-3.4649,-3.4815,-3.486,-3.5836,-3.6438,0.0,0.0,0.0,0.0,0.0,0.0,0.0,0.0,0.0,0.0,0.0,0.0,0.0,0.0,0.0,-3.6678,-3.7027,-3.7143,-3.7273,-3.8038,0.0,-3.978,-4.0484,-4.1948,-4.3378,-4.4019,-4.4543,-4.4995,-4.5478,-4.4804,-4.4013,-4.3719,-4.177,0.0,-4.0466,0.0,0.0,0.0,0.0,0.0,-4.6156,-4.6729,-4.6847,0.0,-4.6194,0.0,-4.469,-4.5106,-4.4828,0.0,-4.4258,-4.4371,-4.318,-4.294,-4.2298,-4.106,-4.015,-3.8859,-3.7119,-3.6326,-3.577,-3.54,-3.54,-3.5252,-3.4971,-3.4971,-3.5187,-3.5499,0.0,-3.4896,-3.3939,-3.3635,-3.2935,-3.1992,-3.1992,-3.1992,-3.1992,-3.1777,-3.1721,-3.1649,0.0,0.0,0.0,0.0,0.0,0.0,0.0,0.0,0.0,0.0,0.0,0.0,0.0,0.0,0.0,0.0,0.0,0.0,0.0,0.0,0.0,0.0,0.0,0.0,0.0,0.0,0.0,0.0,0.0,0.0,0.0,0.0,0.0,0.0,0.0,0.0,0.0,0.0,0.0,0.0,0.0,0.0,0.0,0.0,0.0,0.0,0.0,0.0,0.0,0.0,-3.8514,-3.8385,-3.8472,-3.8501,-3.8632,-3.9262,-3.9828,-4.0379,-4.1047,-4.2034,-4.3036,-4.3689,-4.3863,-4.3674,-4.3021,-4.2397,-4.1744,-4.1004,0.0,-3.9233,-3.9755,-4.0466,-4.0858,-4.0539,0.0,-4.4792,-4.4531,-4.5372,-4.6011,-4.6011,-4.5938,-4.559,-4.4835,-4.4298,-4.3674,-4.2934,-4.2998,-4.2858,-4.2328,-4.1177,-4.0428,-4.0155,-3.8265,-3.6675,-3.5419,-3.5314,-3.527,-3.527,-3.527,-3.4971,-3.4414,-3.4414,-3.4414,-3.4385,0.0,0.0,-3.336,-3.269,-3.2065,-3.1498,-3.1409,-3.1364,-3.1306,-3.1116,-3.1028,-3.0911,0.0,0.0,0.0,0.0,0.0,0.0,0.0,0.0,0.0,0.0,-3.4695,-3.4962,0.0,0.0,0.0,0.0,0.0,0.0,0.0,0.0,0.0,0.0,0.0,0.0,0.0,0.0,0.0,0.0,0.0,0.0,0.0,0.0,0.0,0.0,0.0,0.0,0.0,0.0,0.0,0.0,0.0,0.0,0.0,0.0,0.0,0.0,0.0,0.0,0.0,0.0,-3.9002,-3.937,-3.9925,-4.01,-4.0193,-4.0622,-4.0844,-4.1076,-4.1744,-4.2092,-4.2397,-4.3007,-4.3166,-4.3007,-4.2397,-4.1744,0.0,0.0,-3.8913,-3.8405,-3.8507,-3.9479,-4.0757,-4.2237,0.0,0.0,0.0,0.0,-4.6664,0.0,0.0,0.0,0.0,0.0,0.0,0.0,0.0,-4.0917,-4.1393,-4.1372,-4.0511,-3.8787,-3.7305,-3.6149,-3.539,-3.4864,-3.4568,-3.4568,-3.4568,-3.4501,-3.4414,-3.4414,-3.4414,-3.4414,0.0,0.0,-3.3433,-3.2759,-3.2103,-3.1447,-3.0951,-3.0643,-3.0493,-3.0326,-3.0205,-3.0023,0.0,0.0,0.0,0.0,0.0,0.0,0.0,-3.4754,-3.467,-3.503,-3.574,-3.6122,-3.5874,-3.6579,-3.6934,0.0,0.0,0.0,0.0,0.0,0.0,0.0,0.0,0.0,0.0,0.0,0.0,0.0,0.0,0.0,0.0,0.0,0.0,0.0,0.0,0.0,0.0,0.0,0.0,0.0,0.0,0.0,0.0,0.0,0.0,0.0,0.0,0.0,0.0,0.0,-3.9047,-3.9938,-4.0715,-4.0958,-4.0977,-4.1084,-4.1091,-4.125,-4.1918,-4.2092,-4.2237,-4.2847,-4.2498,-4.1758,-4.08,0.0,0.0,0.0,-3.7447,-3.7418,-3.8086,-3.9233,0.0,0.0,0.0,0.0,0.0,0.0,0.0,0.0,0.0,0.0,0.0,0.0,0.0,0.0,0.0,-4.0232,-4.0606,-3.9802,-3.8856,-3.7839,-3.6529,-3.5697,-3.5392,-3.4733,-3.4414,-3.4414,-3.4414,-3.4414,-3.4414,-3.4414,-3.4414,-3.4414,-3.4414,0.0,-3.3474,-3.3039,-3.2298,-3.1356,-3.0945,-3.0567,-3.0189,-2.9991,-2.9884,-2.9777,0.0,0.0,0.0,0.0,0.0,0.0,0.0,-3.5346,-3.5414,-3.5583,-3.6299,-3.6863,-3.7032,-3.7315,-3.7511,0.0,0.0,0.0,0.0,0.0,0.0,0.0,0.0,0.0,0.0,0.0,0.0,0.0,0.0,0.0,0.0,0.0,0.0,0.0,0.0,0.0,0.0,0.0,0.0,0.0,0.0,0.0,0.0,0.0,0.0,0.0,0.0,0.0,0.0,0.0,-3.865,-3.9647,-4.0444,-4.1062,-4.1379,-4.0891,-4.1029,-4.1395,-4.1773,-4.2078,-4.2368,-4.2716,-4.2049,-4.0945,-3.9523,-3.8217,0.0,0.0,-3.6402,-3.6693,-3.797,-3.9015,-3.9784,0.0,-4.1816,0.0,0.0,0.0,0.0,0.0,0.0,0.0,0.0,0.0,0.0,0.0,0.0,0.0,-3.9712,-3.8304,-3.7375,-3.7099,-3.6098,-3.5465,-3.5203,-3.4661,-3.4414,-3.4414,-3.4414,-3.4414,-3.4414,-3.4414,-3.4414,-3.4414,-3.4414,0.0,0.0,-3.3316,-3.2529,-3.143,-3.1128,-3.0591,-3.0005,-2.9853,-2.9777,-2.973,0.0,0.0,0.0,0.0,0.0,0.0,0.0,-3.459,-3.4844,-3.5498,-3.6299,-3.7066,-3.7736,-3.8398,-3.9108,0.0,0.0,0.0,0.0,0.0,0.0,0.0,0.0,0.0,0.0,0.0,0.0,0.0,0.0,0.0,0.0,0.0,0.0,0.0,0.0,0.0,0.0,0.0,0.0,0.0,0.0,0.0,0.0,0.0,0.0,0.0,0.0,0.0,0.0,0.0,0.0,-3.7739,-3.8258,-3.9889,-4.1415,-4.0037,0.0,0.0,-4.1337,-4.2034,-4.2789,-4.2295,-4.2092,-4.1512,-3.9625,0.0,0.0,-3.723,-3.6722,-3.6693,-3.797,-3.8304,-3.8754,0.0,0.0,-4.1482,0.0,0.0,0.0,0.0,0.0,0.0,0.0,0.0,0.0,0.0,0.0,0.0,-3.8434,-3.8217,-3.7593,-3.6446,-3.6286,-3.5662,-3.4501,-3.4443,-3.4414,-3.4414,-3.4414,-3.4414,-3.4414,-3.4414,-3.4414,-3.4414,0.0,0.0,0.0,-3.3422,-3.2709,-3.1872,-3.1236,-3.0515,-2.9822,-2.9822,-2.9699,-2.9602,0.0,0.0,0.0,0.0,0.0,0.0,-3.5131,-3.5165,-3.5261,-3.5566,-3.5893,-3.6366,-3.7144,-3.7889,-3.8802,-3.9994,0.0,0.0,0.0,0.0,0.0,0.0,0.0,0.0,0.0,0.0,0.0,0.0,0.0,0.0,0.0,0.0,0.0,0.0,0.0,0.0,0.0,0.0,0.0,0.0,0.0,0.0,0.0,0.0,0.0,0.0,0.0,0.0,0.0,0.0,0.0,0.0,-3.66,-3.7901,0.0,0.0,-4.0354,-4.1252,-4.217,-4.2989,-4.3442,-4.2803,-4.1758,-4.0495,-3.8942,0.0,-3.6177,-3.6177,-3.6228,-3.6591,-3.7491,-3.7955,-3.8376,0.0,0.0,0.0,0.0,0.0,0.0,0.0,0.0,0.0,0.0,0.0,0.0,0.0,0.0,0.0,-3.8231,-3.7476,-3.7012,-3.691,-3.5778,-3.5111,-3.498,-3.4603,-3.4414,-3.4414,-3.4414,-3.4414,-3.4414,-3.4414,-3.4414,-3.4414,0.0,0.0,0.0,-3.3733,-3.2897,-3.1791,-3.1433,-3.0648,-2.9682,-2.9682,-2.9665,-2.9602,0.0,0.0,0.0,0.0,0.0,-3.5092,-3.5532,-3.56,-3.5752,-3.6208,-3.6276,-3.6502,-3.706,-3.7787,-3.8633,-3.969,-3.9503,0.0,0.0,0.0,0.0,0.0,0.0,0.0,0.0,0.0,0.0,0.0,0.0,0.0,0.0,0.0,0.0,0.0,0.0,0.0,0.0,0.0,0.0,0.0,0.0,0.0,0.0,0.0,0.0,0.0,0.0,0.0,0.0,0.0,0.0,0.0,0.0,0.0,0.0,0.0,-3.9524,-4.0734,-4.1814,-4.29,-4.3629,-4.2932,-4.1395,-3.9813,0.0,-3.7012,-3.5741,-3.593,-3.6286,-3.6794,-3.7462,-3.7912,-3.8202,0.0,0.0,-3.9247,0.0,0.0,0.0,0.0,0.0,0.0,0.0,0.0,0.0,0.0,0.0,0.0,0.0,-3.7186,-3.6722,-3.7012,-3.5503,-3.482,-3.5116,-3.4646,-3.4414,-3.4414,-3.4414,-3.4414,-3.4414,-3.4414,-3.438,-3.4312,0.0,0.0,0.0,-3.3848,-3.2936,-3.1622,-3.1551,-3.0712,-2.9631,-2.9813,-2.9757,-2.9645,0.0,0.0,0.0,0.0,0.0,0.0,-3.538,-3.56,-3.614,-3.7686,-3.7889,-3.7889,-3.7889,-3.8548,-3.8988,-3.9005,-3.9673,0.0,0.0,0.0,0.0,0.0,0.0,0.0,0.0,0.0,0.0,-3.8394,-3.8231,0.0,0.0,0.0,0.0,0.0,0.0,0.0,0.0,0.0,0.0,0.0,0.0,0.0,0.0,0.0,0.0,0.0,0.0,0.0,0.0,0.0,0.0,0.0,0.0,0.0,0.0,0.0,-3.8186,-4.047,-3.9523,-4.1211,-4.3128,-4.2293,-4.1091,-3.9944,-3.9334,-3.7694,-3.6489,-3.7143,-3.7302,-3.7476,-3.8086,-3.8202,-3.8202,-3.8202,-3.8217,0.0,0.0,0.0,0.0,0.0,0.0,0.0,0.0,0.0,0.0,0.0,0.0,0.0,0.0,-3.7622,-3.6997,-3.6344,-3.5726,-3.5087,-3.4428,-3.4414,-3.4414,-3.4414,-3.4414,-3.4414,-3.4414,-3.4414,-3.4312,0.0,0.0,0.0,0.0,-3.3605,-3.2766,-3.1485,-3.1485,-3.0712,-2.9673,-3.0259,-3.0091,-2.9701,0.0,0.0,0.0,0.0,0.0,0.0,0.0,-3.56,-3.5955,-3.7009,-3.7168,-3.733,-3.7855,-3.8565,-3.8988,-3.8988,-3.9673,0.0,0.0,0.0,0.0,0.0,0.0,0.0,0.0,0.0,-3.9185,-3.9291,-3.9135,-3.9163,-3.9299,-3.9299,0.0,0.0,0.0,0.0,0.0,0.0,0.0,0.0,0.0,0.0,0.0,0.0,0.0,0.0,0.0,0.0,0.0,0.0,0.0,0.0,0.0,0.0,0.0,0.0,0.0,0.0,-3.9823,-4.0916,-4.1637,-4.0887,-3.9755,-3.8638,-3.8043,-3.6736,-3.5851,-3.6489,-3.6983,-3.736,-3.7549,-3.7926,-3.8202,-3.8202,-3.8202,0.0,0.0,0.0,0.0,0.0,0.0,0.0,0.0,0.0,0.0,0.0,0.0,0.0,0.0,-3.6983,-3.6533,-3.6315,-3.5726,-3.5087,-3.4428,-3.4414,-3.4414,-3.4414,-3.4414,-3.4414,-3.4414,-3.4414,0.0,0.0,0.0,0.0,0.0,-3.3435,-3.278,-3.1527,-3.1949,-3.1345,-3.0273,-3.0951,-3.0783,-3.0231,0.0,0.0,0.0,0.0,0.0,0.0,0.0,-3.6062,-3.6434,-3.7506,-3.7642,-3.7787,-3.8261,-3.8971,-3.9436,-3.9436,-3.9842,0.0,0.0,0.0,0.0,0.0,0.0,0.0,0.0,-3.9935,-3.9824,-3.9625,-3.9821,-3.9688,-3.9315,-3.958,-3.9564,-3.9299,0.0,0.0,0.0,0.0,0.0,0.0,0.0,0.0,-3.9148,0.0,0.0,0.0,0.0,0.0,0.0,0.0,0.0,0.0,0.0,0.0,0.0,0.0,-3.6281,-3.7644,0.0,-4.0057,-4.076,-4.0245,-3.8971,0.0,-3.768,-3.6496,-3.5654,-3.6504,-3.7012,-3.7375,-3.7607,-3.7955,-3.8202,-3.8202,-3.8202,0.0,0.0,0.0,0.0,0.0,0.0,0.0,0.0,0.0,0.0,0.0,0.0,0.0,0.0,-3.691,-3.646,-3.5967,-3.5328,-3.482,-3.4414,-3.4414,-3.4414,-3.4414,-3.4414,-3.4414,-3.4414,-3.4312,0.0,0.0,0.0,0.0,0.0,-3.2992,-3.2345,-3.1162,-3.1541,-3.1078,-3.0249,-3.0895,-3.0726,-3.0175,0.0,0.0,0.0,0.0,0.0,0.0,0.0,-3.6761,-3.7252,-3.8717,-3.892,-3.8954,-3.9056,-3.9706,-4.0096,-4.0096,0.0,0.0,0.0,0.0,0.0,0.0,0.0,0.0,0.0,-3.9926,-3.9798,-3.9528,-4.0211,-4.0113,-3.9315,-4.0011,-3.9962,-3.9299,-3.9299,0.0,0.0,0.0,0.0,0.0,0.0,0.0,0.0,0.0,0.0,0.0,0.0,0.0,0.0,0.0,0.0,0.0,0.0,0.0,0.0,0.0,0.0,0.0,0.0,-3.8658,-4.0159,-3.994,-3.8551,-3.7404,-3.7999,-3.6765,0.0,-3.7114,-3.7375,-3.7549,-3.8101,-3.8159,-3.8144,-3.8144,-3.8144,0.0,0.0,0.0,0.0,0.0,0.0,0.0,0.0,0.0,0.0,0.0,0.0,0.0,0.0,-3.7201,-3.6591,-3.5378,-3.4719,-3.4414,-3.4414,-3.4414,-3.4414,-3.4414,-3.438,-3.438,-3.438,-3.4176,0.0,0.0,0.0,0.0,0.0,-3.2342,-3.1626,-3.0498,-3.054,-3.0189,-2.9757,-3.0361,-3.0207,-2.9757,0.0,0.0,0.0,0.0,0.0,0.0,0.0,0.0,0.0,0.0,-3.8159,-3.8582,-3.9723,-3.9994,-4.0096,0.0,0.0,0.0,0.0,0.0,0.0,0.0,0.0,0.0,0.0,-4.0062,-3.9961,-3.9798,-3.9888,-3.9757,-3.9448,-3.9534,-3.9481,-3.9299,-3.9299,0.0,0.0,0.0,0.0,0.0,0.0,0.0,0.0,0.0,0.0,0.0,-3.6492,-3.5878,0.0,0.0,0.0,0.0,0.0,0.0,0.0,0.0,-3.5756,-3.6491,-3.5979,0.0,-3.7405,-3.7839,-3.7244,-3.6722,0.0,-3.7172,0.0,0.0,0.0,0.0,0.0,-3.7825,-3.752,-3.752,-3.752,-3.7781,0.0,0.0,0.0,0.0,0.0,0.0,0.0,0.0,0.0,0.0,0.0,0.0,0.0,-3.6083,-3.5479,-3.4661,-3.4486,-3.4414,-3.4414,-3.4414,-3.4414,-3.4414,-3.423,-3.4162,-3.4162,-3.402,0.0,0.0,0.0,0.0,-3.171,-3.171,-3.1232,-3.054,-3.1064,-3.0867,-3.0389,-3.1021,-3.0853,-3.0301,0.0,0.0,0.0,0.0,0.0,0.0,0.0,0.0,0.0,0.0,0.0,0.0,0.0,0.0,0.0,0.0,0.0,0.0,0.0,0.0,0.0,0.0,0.0,0.0,-4.0096,-4.0096,-4.0189,-4.0389,-4.0258,-4.0144,-4.0011,-3.9866,-3.963,-3.9299,-3.9299,0.0,0.0,0.0,0.0,0.0,-3.9299,0.0,0.0,0.0,0.0,0.0,-3.6631,-3.6022,0.0,-3.5504,-3.5439,-3.5326,0.0,0.0,0.0,0.0,-3.5974,-3.6851,-3.6395,-3.6707,-3.7201,-3.7288,-3.6809,-3.6562,-3.7506,0.0,0.0,0.0,0.0,0.0,0.0,0.0,0.0,-3.768,-3.797,0.0,0.0,0.0,0.0,0.0,0.0,0.0,0.0,0.0,0.0,0.0,0.0,0.0,0.0,-3.5741,-3.5101,-3.4428,-3.4414,-3.4414,-3.4414,-3.4414,-3.4346,-3.4264,-3.4162,-3.4074,-3.4005,-3.3848,0.0,0.0,0.0,0.0,-3.1471,-3.1176,-3.067,-3.0105,-3.0488,-3.0417,-3.0119,-3.0488,-3.0403,-3.0076,0.0,0.0,0.0,0.0,0.0,0.0,0.0,0.0,0.0,0.0,0.0,0.0,0.0,0.0,0.0,0.0,0.0,0.0,0.0,0.0,0.0,0.0,0.0,-4.0096,-4.0096,-4.0096,-4.0341,-4.0836,-4.0695,-4.0562,-4.0427,-4.0281,-3.9912,-3.9299,-3.9299,-3.9299,0.0,0.0,0.0,0.0,-3.9299,0.0,0.0,0.0,0.0,0.0,0.0,0.0,0.0,-3.5504,-3.5359,-3.518,-3.5148,0.0,0.0,0.0,0.0,0.0,-3.7128,-3.7665,-3.8086,-3.7578,-3.6954,-3.6765,-3.7941,0.0,0.0,0.0,0.0,0.0,0.0,0.0,0.0,0.0,0.0,0.0,0.0,0.0,0.0,0.0,0.0,0.0,0.0,0.0,0.0,0.0,0.0,0.0,0.0,-3.5595,-3.5,-3.4428,-3.438,-3.4346,-3.4346,-3.4346,-3.4264,-3.4094,-3.4059,-3.3971,-3.3862,-3.364,-3.3536,0.0,0.0,0.0,-3.1429,-3.0684,-3.008,-2.9602,-2.9602,-2.9602,-2.9602,-2.9602,-2.9602,-2.9602,0.0,0.0,0.0,0.0,0.0,0.0,0.0,0.0,0.0,0.0,0.0,0.0,0.0,0.0,0.0,0.0,0.0,0.0,0.0,0.0,0.0,0.0,-4.0096,-4.0096,-4.0096,-4.0096,-4.0088,-4.0069,-3.9923,-3.9809,-3.9668,-3.9518,-3.9415,-3.9299,-3.9299,-3.9299,-3.9299,-3.9299,-3.9299,-3.9299,-3.9299,0.0,0.0,0.0,0.0,0.0,0.0,0.0,0.0,-3.5504,-3.5359,-3.518,-3.5001,0.0,0.0,0.0,0.0,0.0,-3.6315,-3.7317,-3.8188,-3.8086,-3.7607,-3.7346,-3.8043,0.0,0.0,0.0,0.0,0.0,0.0,0.0,0.0,0.0,0.0,0.0,0.0,0.0,0.0,0.0,0.0,0.0,0.0,0.0,0.0,0.0,0.0,0.0,0.0,0.0,-3.4516,-3.4414,-3.423,-3.4162,-3.4162,-3.4162,-3.4128,-3.4094,-3.3799,-3.3675,-3.364,-3.3431,-3.3361,0.0,0.0,-3.1583,-3.1401,-3.0235,-2.9687,-2.9602,-2.9602,-2.9602,-2.9602,-2.9602,-2.9602,-2.9602,0.0,0.0,0.0,0.0,0.0,0.0,0.0,0.0,0.0,0.0,0.0,0.0,0.0,0.0,0.0,0.0,0.0,0.0,0.0,0.0,0.0,-4.013,-4.0096,-4.0096,-4.0096,-4.0096,-4.0223,-4.0499,-4.0359,-4.0227,-4.0094,-3.9534,-3.9299,-3.9299,-3.9299,-3.9299,-3.9299,-3.9299,-3.9299,-3.9299,0.0,0.0,0.0,0.0,0.0,0.0,0.0,0.0,0.0,0.0,-3.518,-3.5016,-3.485,0.0,0.0,0.0,0.0,0.0,-3.5196,-3.5817,-3.6532,-3.674,-3.7187,-3.7522,-3.7332,0.0,0.0,0.0,0.0,0.0,0.0,0.0,0.0,0.0,0.0,0.0,0.0,0.0,0.0,0.0,0.0,0.0,0.0,0.0,0.0,0.0,0.0,0.0,0.0,0.0,-3.4346,-3.423,-3.4162,-3.4074,-3.3971,-3.3868,-3.3833,-3.3833,-3.3675,-3.3536,-3.3431,-3.3361,-3.329,-3.322,0.0,-3.1485,-3.1387,-3.0136,-2.9602,-2.9602,-2.9602,-2.9602,-2.954,-2.9153,-2.8771,-2.8481,0.0,0.0,0.0,0.0,0.0,0.0,0.0,0.0,0.0,0.0,0.0,0.0,0.0,0.0,0.0,0.0,0.0,0.0,0.0,0.0,-4.0679,-4.013,-4.0096,-4.0096,-4.0096,-4.0096,-4.0307,-4.0751,-4.0637,-4.0505,-4.0327,-3.9644,-3.9299,-3.9299,-3.9299,-3.9299,-3.9299,-3.9299,-3.9299,-3.9299,0.0,0.0,0.0,0.0,0.0,0.0,0.0,0.0,0.0,0.0,0.0,0.0,0.0,0.0,0.0,-3.4513,-3.4623,-3.4786,-3.4273,-3.4446,-3.482,-3.5034,-3.6113,-3.7064,-3.6919,0.0,0.0,0.0,0.0,0.0,0.0,0.0,0.0,0.0,0.0,0.0,0.0,0.0,0.0,0.0,0.0,0.0,0.0,0.0,0.0,0.0,0.0,0.0,0.0,0.0,-3.4094,-3.4094,-3.4025,-3.3854,-3.3542,-3.3368,-3.3382,-3.3605,-3.3536,-3.3466,-3.329,-3.329,-3.329,-3.322,-3.2019,-3.1485,-3.1387,-3.0136,-2.9602,-2.9602,-2.9602,-2.9509,-2.9261,-2.8551,-2.7953,-2.7517,0.0,0.0,0.0,0.0,0.0,0.0,0.0,0.0,0.0,0.0,0.0,0.0,0.0,0.0,0.0,0.0,0.0,0.0,0.0,0.0,-4.0163,-4.0096,-4.0096,-4.0096,-4.0096,-4.0096,-4.0054,-3.9968,-3.9985,-3.983,-3.9584,-3.9385,-3.9299,-3.9299,-3.9299,-3.9299,-3.9299,-3.9299,-3.9299,-3.9299,-3.9299,0.0,0.0,0.0,0.0,0.0,0.0,0.0,0.0,0.0,0.0,0.0,0.0,0.0,-3.4437,-3.4257,-3.3804,-3.3466,-3.3898,-3.4039,-3.4,-3.3713,-3.4326,0.0,-3.752,-3.6765,0.0,0.0,0.0,0.0,0.0,0.0,0.0,0.0,0.0,0.0,0.0,0.0,0.0,0.0,0.0,0.0,0.0,0.0,0.0,0.0,0.0,0.0,0.0,0.0,0.0,-3.4094,0.0,-3.3283,-3.2519,-3.2304,-3.269,-3.3605,-3.3396,-3.3326,-3.329,-3.329,-3.329,-3.322,-3.2019,-3.1485,-3.1387,-3.0136,-2.9602,-2.9602,-2.9602,-2.9184,-2.8505,-2.7835,-2.7537,-2.7517,0.0,0.0,0.0,0.0,0.0,0.0,0.0,0.0,0.0,0.0,0.0,0.0,0.0,0.0,0.0,0.0,0.0,0.0,0.0,0.0,-4.0096,-4.0096,-4.0011,-4.0011,-4.0096,-4.0096,-4.0037,-3.9901,-3.972,-3.9787,-4.0032,-3.9541,-3.9299,-3.9299,-3.9299,-3.9299,-3.9299,-3.9299,-3.9299,-3.9299,-3.9299,-3.9299,0.0,0.0,0.0,0.0,0.0,0.0,0.0,0.0,-3.4883,-3.4664,-3.4563,-3.4448,-3.4273,-3.3748,-3.341,-3.303,-3.227,-3.2611,-3.2988,-3.2358,-3.2437,0.0,0.0,-3.5489,-3.5324,0.0,0.0,0.0,0.0,0.0,0.0,0.0,0.0,0.0,0.0,0.0,0.0,0.0,0.0,0.0,0.0,0.0,0.0,0.0,0.0,0.0,0.0,0.0,0.0,0.0,0.0,-3.1892,-3.1476,-3.1378,-3.1526,-3.1942,-3.2354,-3.281,-3.3276,-3.2422,-3.2053,-3.1985,-3.0786,-2.9996,-2.9545,-2.9099,-2.8661,-2.8274,-2.8274,-2.7835,-2.7157,-2.6913,-2.6539,-2.6126,0.0,0.0,0.0,0.0,0.0,0.0,0.0,0.0,0.0,0.0,0.0,0.0,0.0,0.0,0.0,0.0,0.0,0.0,0.0,-4.0011,-4.0037,-4.0037,-3.9986,-3.991,-3.9825,-3.9825,-3.979,-3.9677,-3.9265,-3.9232,-3.9581,-3.9243,-3.9067,-3.9094,-3.9245,-3.9299,-3.9299,-3.9299,-3.9299,-3.9299,-3.9299,-3.9299,0.0,0.0,0.0,0.0,0.0,0.0,0.0,0.0,-3.4783,-3.4597,-3.4448,-3.4414,-3.4196,-3.3157,-3.2861,-3.2506,-3.0983,-3.1126,-3.1575,-3.1032,0.0,0.0,-3.3257,-3.4223,0.0,0.0,0.0,0.0,0.0,0.0,0.0,0.0,0.0,0.0,0.0,0.0,0.0,0.0,0.0,0.0,0.0,0.0,0.0,0.0,0.0,0.0,0.0,0.0,0.0,0.0,0.0,-3.0919,-3.0519,-3.0519,-3.0519,-3.0519,-3.1082,-3.1759,-3.2511,-3.1441,-3.0909,-3.0877,-2.9658,-2.8878,-2.8384,-2.8259,-2.792,-2.7484,-2.725,-2.6845,-2.638,-2.6139,-2.5721,-2.5312,0.0,0.0,0.0,0.0,0.0,0.0,0.0,0.0,0.0,0.0,0.0,0.0,0.0,0.0,0.0,0.0,0.0,0.0,0.0,-3.9807,-3.9901,-3.9884,-4.0037,-3.9799,-3.9206,-3.9162,-3.9162,-3.9206,-3.8467,-3.7998,-3.7822,-3.8355,-3.8611,-3.8639,-3.9094,-3.9299,-3.9299,-3.9299,-3.9299,-3.9299,-3.9299,-3.9299,-3.9245,0.0,0.0,0.0,0.0,0.0,0.0,0.0,-3.4668,-3.4414,-3.4414,-3.4414,-3.4094,-3.2555,-3.211,-3.1759,-3.0228,-2.9792,-2.9804,0.0,0.0,0.0,-3.2704,-3.3081,0.0,0.0,0.0,0.0,0.0,0.0,0.0,0.0,0.0,0.0,0.0,0.0,0.0,0.0,0.0,0.0,0.0,0.0,0.0,0.0,0.0,0.0,0.0,0.0,0.0,0.0,0.0,0.0,-2.9691,-2.9691,-2.9691,-2.9691,-2.9691,-3.0101,-3.0869,-3.033,-3.0069,-3.004,-2.8887,-2.8389,-2.8302,-2.774,-2.7484,-2.7417,-2.6676,-2.638,-2.6311,-2.5581,-2.5312,-2.5312,0.0,0.0,0.0,0.0,0.0,0.0,0.0,0.0,0.0,0.0,0.0,0.0,0.0,0.0,0.0,0.0,0.0,0.0,0.0,-3.9623,-3.9665,-3.9135,-3.9478,-3.9408,-3.8843,-3.8007,-3.8039,-3.8925,-3.9115,-3.9088,-3.8843,-3.9013,-3.9094,-3.9094,-3.9245,-3.9299,-3.9299,-3.9299,-3.9299,-3.9299,-3.9299,-3.9299,-3.9272,0.0,0.0,0.0,0.0,0.0,0.0,0.0,0.0,0.0,-3.4448,-3.4414,-3.4094,-3.2555,-3.211,-3.1759,-3.0228,-3.008,0.0,-3.0369,0.0,0.0,0.0,0.0,0.0,0.0,0.0,0.0,0.0,0.0,0.0,0.0,0.0,0.0,0.0,0.0,0.0,0.0,0.0,0.0,0.0,0.0,0.0,0.0,0.0,0.0,0.0,0.0,0.0,0.0,0.0,0.0,-2.8283,-2.8283,-2.8283,-2.8283,-2.7905,-2.8837,-3.0856,-2.9378,-2.8688,-2.8624,-2.7481,-2.671,-2.621,-2.6015,-2.5953,-2.5918,-2.5721,-2.5616,-2.5581,-2.537,-2.5312,-2.5312,0.0,0.0,0.0,0.0,0.0,0.0,0.0,0.0,0.0,0.0,0.0,0.0,0.0,0.0,0.0,0.0,0.0,0.0,0.0,0.0,-3.9425,-3.8698,-3.9017,-3.8794,-3.7991,-3.7265,-3.7251,-3.7969,-3.8153,-3.8124,-3.7895,-3.8395,-3.8634,-3.8634,-3.9094,-3.9299,-3.9299,-3.9299,-3.9299,-3.9299,-3.9299,-3.9299,-3.9245,0.0,0.0,0.0,0.0,0.0,0.0,0.0,0.0,0.0,-3.4448,-3.4414,-3.4094,-3.2555,-3.211,-3.1759,-3.0228,-2.9939,0.0,-3.0373,-3.1057,-3.1821,-3.242,0.0,0.0,0.0,0.0,0.0,0.0,0.0,0.0,0.0,0.0,0.0,0.0,0.0,0.0,0.0,0.0,0.0,0.0,0.0,0.0,0.0,0.0,0.0,0.0,0.0,0.0,0.0,0.0,0.0,-2.7378,-2.7366,-2.7366,-2.7366,-2.7042,-2.7765,-2.9276,-2.7914,-2.7298,-2.7248,-2.6348,-2.5721,-2.5312,-2.5312,-2.5312,-2.5312,-2.5312,-2.5312,-2.5312,-2.5312,-2.5312,-2.5312,0.0,0.0,0.0,0.0,0.0,0.0,0.0,0.0,0.0,0.0,0.0,0.0,0.0,0.0,0.0,0.0,0.0,0.0,0.0,0.0,-3.9195,-3.8504,-3.8564,-3.8048,-3.6875,-3.6814,-3.6723,-3.6585,-3.629,-3.6053,-3.5864,-3.7025,-3.7589,-3.7618,-3.8733,-3.9202,-3.9202,-3.9272,-3.9299,-3.9299,-3.9299,-3.9299,-3.9175,-3.7953,0.0,0.0,0.0,0.0,0.0,0.0,0.0,0.0,-3.4481,-3.4346,-3.4011,-3.2519,-3.2051,-3.1636,-3.0177,-2.9636,0.0,-3.0136,-3.0581,0.0,-3.2246,0.0,0.0,0.0,0.0,0.0,0.0,0.0,0.0,0.0,0.0,0.0,0.0,0.0,0.0,0.0,0.0,0.0,0.0,0.0,0.0,0.0,0.0,0.0,0.0,0.0,0.0,0.0,0.0,0.0,-2.6825,-2.6825,-2.6825,0.0,-2.6777,-2.6777,-2.6801,-2.6334,-2.6069,-2.5997,-2.5516,-2.5312,-2.5312,-2.5312,-2.5312,-2.5312,-2.5312,-2.5312,-2.5312,-2.5312,-2.5312,-2.5312,0.0,0.0,0.0,0.0,0.0,0.0,0.0,0.0,0.0,0.0,0.0,0.0,0.0,0.0,0.0,0.0,0.0,0.0,0.0,0.0,-3.9182,-3.8437,-3.7931,-3.7324,-3.6508,-3.6053,-3.5797,-3.5765,-3.6753,-3.7191,-3.7041,0.0,0.0,-3.7472,0.0,-3.8535,-3.8562,-3.9094,-3.9299,-3.9299,-3.9299,-3.9299,-3.9202,-3.8423,-3.7822,0.0,0.0,0.0,0.0,0.0,0.0,0.0,-3.4515,-3.3962,-3.3262,-3.2376,-3.1636,-3.0895,-2.9806,-2.9742,0.0,0.0,-3.1192,-3.2021,-3.3092,0.0,0.0,0.0,0.0,0.0,0.0,0.0,0.0,0.0,0.0,0.0,0.0,0.0,0.0,0.0,0.0,0.0,0.0,0.0,0.0,0.0,0.0,0.0,0.0,0.0,0.0,0.0,0.0,-2.6801,-2.6286,-2.6274,-2.6274,0.0,-2.5853,-2.5877,-2.6274,-2.6154,-2.5865,-2.548,-2.536,-2.5312,-2.5312,-2.5312,-2.5312,-2.5312,-2.5312,-2.5312,-2.5312,-2.5312,-2.5312,-2.5312,0.0,0.0,0.0,0.0,0.0,0.0,0.0,0.0,0.0,0.0,0.0,0.0,0.0,0.0,0.0,0.0,0.0,0.0,0.0,0.0,0.0,0.0,-3.7297,-3.6631,-3.599,0.0,0.0,0.0,0.0,0.0,0.0,0.0,0.0,-3.6951,0.0,-3.7879,-3.7908,-3.8535,-3.8799,-3.8843,-3.9175,-3.9299,-3.9218,-3.8238,-3.7677,-3.728,-3.6321,0.0,0.0,0.0,0.0,0.0,0.0,0.0,-3.3555,-3.2448,-3.1819,-3.1156,-2.9793,0.0,0.0,-3.0321,0.0,-3.2321,-3.2611,0.0,0.0,0.0,0.0,0.0,0.0,0.0,0.0,0.0,0.0,0.0,0.0,0.0,0.0,0.0,0.0,0.0,0.0,0.0,0.0,0.0,0.0,0.0,0.0,0.0,0.0,0.0,-2.6538,-2.6274,-2.5721,-2.5721,-2.5721,-2.5721,-2.5444,-2.5456,-2.5721,-2.5721,-2.5564,-2.5312,-2.5312,-2.5312,-2.5312,-2.5312,-2.5312,-2.5312,-2.5312,-2.5312,-2.5312,-2.5312,-2.5312,-2.5312,0.0,0.0,0.0,0.0,0.0,0.0,0.0,0.0,0.0,0.0,0.0,0.0,0.0,0.0,0.0,0.0,0.0,0.0,0.0,0.0,0.0,0.0,-3.6753,0.0,0.0,0.0,0.0,0.0,0.0,0.0,0.0,0.0,0.0,-3.6274,0.0,-3.728,-3.7458,-3.8051,-3.8379,-3.8535,-3.9094,-3.9245,-3.8996,-3.7838,-3.734,-3.7071,-3.591,-3.5504,-3.5439,-3.5082,0.0,0.0,0.0,0.0,-3.3928,-3.2506,-3.2001,-3.1526,-2.9819,0.0,-2.9447,-3.0061,-3.13,0.0,-3.1813,0.0,0.0,0.0,0.0,0.0,0.0,0.0,0.0,0.0,0.0,0.0,0.0,0.0,0.0,0.0,0.0,0.0,0.0,0.0,0.0,0.0,0.0,0.0,0.0,0.0,-2.6405,-2.5973,-2.5961,-2.5745,-2.5312,-2.5312,-2.5312,-2.5312,-2.5312,-2.5312,-2.5312,-2.5312,-2.5312,-2.5312,-2.5312,-2.5312,-2.5312,-2.5312,-2.5312,-2.5312,-2.5312,-2.5312,-2.5312,-2.5312,-2.5312,-2.5312,0.0,0.0,0.0,0.0,0.0,0.0,0.0,0.0,0.0,0.0,0.0,0.0,0.0,0.0,0.0,0.0,0.0,0.0,0.0,0.0,0.0,0.0,-3.6753,-3.6116,0.0,0.0,0.0,0.0,0.0,0.0,0.0,0.0,0.0,-3.5651,0.0,0.0,-3.7458,-3.8051,-3.8645,-3.9175,-3.9272,-3.8952,-3.8351,-3.7648,-3.7041,-3.643,-3.5733,-3.5504,-3.5472,-3.5261,-3.5034,0.0,0.0,0.0,-3.3192,-3.2362,-3.1599,-3.0782,-2.9496,0.0,-3.0097,0.0,-3.132,-3.1801,0.0,0.0,0.0,0.0,0.0,0.0,0.0,0.0,0.0,0.0,0.0,0.0,0.0,0.0,0.0,0.0,0.0,0.0,0.0,0.0,0.0,0.0,0.0,0.0,0.0,-2.5781,-2.5492,-2.542,-2.5408,-2.5384,-2.5312,-2.5312,-2.5312,-2.5312,-2.5312,-2.5312,-2.5312,-2.5312,-2.5312,-2.5312,-2.5312,-2.5312,-2.5312,-2.5312,-2.5312,-2.5312,-2.5312,-2.5312,-2.5312,-2.5312,-2.5312,-2.5312,0.0,0.0,0.0,0.0,0.0,0.0,0.0,0.0,0.0,0.0,0.0,0.0,0.0,0.0,0.0,0.0,0.0,0.0,0.0,0.0,0.0,-3.7458,-3.7101,-3.6492,-3.5537,0.0,0.0,0.0,0.0,0.0,0.0,-3.5504,-3.5504,0.0,0.0,0.0,0.0,-3.7101,-3.7722,-3.8282,-3.875,-3.8641,0.0,0.0,0.0,0.0,0.0,0.0,-3.5472,-3.5261,-3.5082,-3.4868,-3.4731,0.0,0.0,0.0,-3.2182,-3.123,-2.9535,-2.9455,-2.9854,0.0,-3.0615,-3.1187,0.0,0.0,0.0,0.0,0.0,0.0,0.0,0.0,0.0,0.0,0.0,0.0,0.0,0.0,0.0,0.0,0.0,0.0,0.0,0.0,0.0,0.0,0.0,0.0,-2.5673,-2.5432,-2.5312,-2.5312,-2.5312,-2.5312,-2.5312,-2.5312,-2.5312,-2.5312,-2.5312,-2.5312,-2.5312,-2.5312,-2.5312,-2.5312,-2.5312,-2.5312,-2.5312,-2.5312,-2.5312,-2.5312,-2.5312,-2.5312,-2.5312,-2.5312,-2.5312,-2.5312,0.0,0.0,0.0,0.0,0.0,0.0,0.0,0.0,0.0,0.0,0.0,0.0,0.0,0.0,0.0,0.0,0.0,0.0,0.0,0.0,0.0,-3.7442,-3.7251,-3.6646,-3.5537,0.0,0.0,0.0,0.0,0.0,-3.5504,-3.5504,-3.5504,0.0,-3.5504,-3.5602,0.0,0.0,0.0,0.0,-3.7862,-3.7827,0.0,0.0,0.0,0.0,0.0,0.0,0.0,0.0,0.0,-3.4651,-3.4549,-3.4349,0.0,0.0,0.0,0.0,0.0,0.0,-2.9553,-2.9333,-2.9989,-3.0567,0.0,0.0,0.0,0.0,0.0,0.0,0.0,0.0,0.0,0.0,0.0,0.0,0.0,0.0,0.0,0.0,0.0,0.0,0.0,0.0,0.0,0.0,0.0,0.0,-2.5336,-2.5312,-2.5312,-2.5312,-2.5312,-2.5312,-2.5312,-2.5312,-2.5312,-2.5312,-2.5312,-2.5312,-2.5312,-2.5312,-2.5312,-2.5312,-2.5312,-2.5312,-2.5312,-2.5312,-2.5312,-2.5312,-2.5312,-2.5312,-2.5312,-2.5312,-2.5312,-2.5312,0.0,0.0,0.0,0.0,0.0,0.0,0.0,0.0,0.0,0.0,0.0,0.0,0.0,0.0,-3.9402,-3.8698,0.0,0.0,0.0,0.0,0.0,-3.7397,-3.6784,0.0,-3.5504,0.0,0.0,0.0,0.0,0.0,-3.5504,-3.5504,-3.5504,-3.5504,-3.5504,-3.5829,-3.6368,0.0,0.0,0.0,-3.673,-3.6126,-3.5486,0.0,0.0,0.0,0.0,0.0,0.0,0.0,0.0,0.0,0.0,0.0,0.0,0.0,0.0,0.0,0.0,-2.9922,0.0,-2.9333,-2.9713,0.0,0.0,0.0,0.0,0.0,0.0,0.0,0.0,0.0,0.0,0.0,0.0,0.0,0.0,0.0,0.0,0.0,0.0,0.0,0.0,0.0,0.0,0.0,0.0,0.0,-2.5336,-2.5312,-2.5312,-2.5312,-2.5312,-2.5312,-2.5312,-2.5312,-2.5312,-2.5312,-2.5312,-2.5312,-2.5312,-2.5312,-2.5312,-2.5312,-2.5312,-2.5312,-2.5312,-2.5312,-2.5312,-2.5312,-2.5312,-2.5312,-2.5312,-2.5312,-2.5312,-2.5312,0.0,0.0,0.0,0.0,0.0,0.0,0.0,0.0,0.0,0.0,0.0,0.0,0.0,-3.9322,-3.8768,-3.8031,-3.7514,0.0,0.0,0.0,0.0,-3.6768,-3.6523,-3.6116,-3.5504,-3.5504,0.0,0.0,0.0,-3.5504,-3.5504,-3.5504,-3.5504,-3.5504,-3.5504,-3.5619,-3.5814,-3.5911,0.0,0.0,-3.6157,-3.5683,-3.5274,0.0,0.0,0.0,0.0,0.0,0.0,0.0,0.0,0.0,0.0,0.0,0.0,0.0,0.0,0.0,0.0,0.0,0.0,-2.8867,-2.9184,-2.9496,0.0,0.0,0.0,0.0,0.0,0.0,0.0,0.0,0.0,0.0,0.0,0.0,0.0,0.0,0.0,0.0,0.0,0.0,0.0,0.0,0.0,0.0,0.0,0.0,-2.5336,-2.5312,-2.5312,-2.5312,-2.5312,-2.5312,-2.5312,-2.5312,-2.5312,-2.5312,-2.5312,-2.5312,-2.5312,-2.5312,-2.5312,-2.5312,-2.5312,-2.5312,-2.5312,-2.5312,-2.5312,-2.5312,-2.5312,-2.5312,-2.5312,-2.5312,-2.5312,-2.5312,0.0,0.0,0.0,0.0,0.0,0.0,0.0,0.0,0.0,0.0,0.0,0.0,0.0,0.0,-3.8026,-3.7247,-3.657,-3.6442,-3.7005,-3.7116,-3.6955,-3.6415,-3.6399,-3.6116,-3.5504,0.0,0.0,0.0,0.0,0.0,0.0,-3.5504,-3.5504,-3.5504,-3.5504,-3.5504,0.0,0.0,0.0,-3.6055,-3.5508,-3.5197,-3.4955,0.0,0.0,0.0,0.0,0.0,0.0,0.0,0.0,0.0,0.0,0.0,0.0,0.0,0.0,0.0,-3.1095,0.0,0.0,0.0,0.0,0.0,0.0,0.0,0.0,0.0,0.0,0.0,0.0,0.0,0.0,0.0,0.0,0.0,0.0,0.0,0.0,0.0,0.0,0.0,0.0,0.0,0.0,0.0,0.0,0.0,-2.5157,-2.5254,-2.5312,-2.5312,-2.5312,-2.5312,-2.5312,-2.5312,-2.5312,-2.5312,-2.5312,-2.5312,-2.5312,-2.5312,-2.5312,-2.53,-2.5119,-2.5143,-2.5312,-2.5312,-2.5312,-2.5312,-2.5312,-2.5276,-2.5241,-2.5241,-2.5182,-2.5111,0.0,0.0,0.0,0.0,0.0,0.0,0.0,0.0,0.0,0.0,0.0,0.0,0.0,0.0,0.0,-3.6395,-3.5616,-3.5521,-3.6256,-3.6274,-3.6308,-3.6368,0.0,0.0,0.0,0.0,0.0,0.0,0.0,0.0,0.0,0.0,-3.5504,-3.5504,-3.5504,-3.5489,-3.5474,0.0,-3.5504,-3.5444,0.0,-3.4503,-3.4444,0.0,0.0,0.0,-3.4249,-3.4084,0.0,-3.4294,0.0,0.0,0.0,0.0,0.0,0.0,0.0,0.0,0.0,0.0,0.0,0.0,0.0,0.0,0.0,0.0,0.0,0.0,0.0,0.0,0.0,0.0,0.0,0.0,0.0,0.0,0.0,0.0,0.0,0.0,0.0,0.0,0.0,0.0,0.0,0.0,0.0,-2.5325,-2.4837,-2.511,-2.5312,-2.5312,-2.5312,-2.5312,-2.5336,-2.5312,-2.5312,-2.5336,-2.5312,-2.5312,-2.5312,-2.5312,-2.5312,-2.5276,-2.4771,-2.4831,-2.5312,-2.5288,-2.53,-2.5312,-2.5312,-2.5218,-2.5123,-2.5087,-2.4957,-2.479,0.0,0.0,0.0,0.0,0.0,0.0,0.0,0.0,0.0,0.0,0.0,0.0,0.0,0.0,-3.6645,-3.6398,-3.5783,-3.5706,-3.6322,-3.5967,-3.5728,-3.5765,-3.5733,-3.5683,-3.5504,0.0,0.0,0.0,0.0,0.0,0.0,0.0,0.0,0.0,-3.5504,-3.5235,-3.4801,-3.5295,0.0,0.0,-3.4788,-3.4503,0.0,0.0,0.0,0.0,0.0,-3.3963,-3.4264,0.0,-3.4545,-3.439,0.0,0.0,0.0,0.0,0.0,0.0,-3.2609,0.0,0.0,0.0,0.0,0.0,0.0,0.0,0.0,0.0,0.0,0.0,0.0,0.0,0.0,0.0,0.0,0.0,0.0,0.0,0.0,0.0,0.0,0.0,0.0,0.0,0.0,0.0,-2.4483,-2.4736,-2.48,-2.511,-2.5312,-2.5312,-2.5312,-2.5492,-2.5877,-2.5492,-2.5492,-2.5877,-2.5492,-2.5312,-2.5312,-2.5312,-2.5312,-2.53,-2.5155,-2.5168,-2.5276,-2.4891,-2.4963,-2.5276,-2.5182,-2.5111,-2.5087,-2.4957,-2.4861,-2.479,0.0,0.0,0.0,0.0,0.0,0.0,-3.9009,-3.8876,0.0,0.0,0.0,0.0,0.0,0.0,0.0,-3.6447,-3.5866,-3.5651,-3.599,-3.5716,-3.5504,-3.5504,-3.5504,-3.5504,-3.5504,-3.5504,0.0,0.0,0.0,0.0,0.0,0.0,0.0,0.0,0.0,0.0,0.0,0.0,0.0,0.0,-3.4951,0.0,0.0,-3.4472,-3.4337,0.0,0.0,0.0,-3.4503,-3.4503,-3.453,0.0,0.0,0.0,0.0,0.0,0.0,0.0,0.0,0.0,0.0,0.0,0.0,0.0,-2.8724,-2.8538,-2.851,0.0,0.0,0.0,0.0,0.0,0.0,0.0,0.0,0.0,0.0,0.0,0.0,0.0,0.0,0.0,0.0,0.0,0.0,0.0,-2.3846,-2.432,-2.4773,-2.5322,-2.554,-2.5312,-2.5312,-2.5456,-2.5769,-2.524,-2.5252,-2.5757,-2.5228,-2.5095,-2.53,-2.5083,-2.492,-2.4779,-2.4602,-2.4448,-2.4313,-2.4015,-2.4448,-2.5194,-2.4873,-2.4791,-2.4838,-2.4718,-2.461,-2.4538,0.0,0.0,0.0,-3.9514,-4.0008,-4.0023,-3.8886,0.0,-3.9125,0.0,0.0,0.0,0.0,0.0,0.0,0.0,-3.5983,-3.5609,-3.5609,-3.5549,-3.5504,-3.5504,-3.5504,-3.5504,-3.5504,-3.5504,0.0,0.0,0.0,0.0,0.0,0.0,0.0,0.0,0.0,0.0,0.0,0.0,0.0,-3.4459,-3.519,-3.5504,0.0,0.0,-3.5504,-3.5504,-3.5504,-3.5115,-3.4623,-3.4623,-3.405,0.0,0.0,0.0,0.0,0.0,-3.2086,0.0,0.0,0.0,0.0,0.0,0.0,0.0,-2.9045,-2.8639,-2.8366,0.0,0.0,0.0,0.0,0.0,0.0,0.0,0.0,0.0,0.0,0.0,0.0,0.0,0.0,0.0,0.0,0.0,-2.3266,-2.3266,-2.3495,-2.3896,-2.4431,-2.529,-2.5564,-2.517,-2.5158,-2.5194,-2.5312,-2.4748,-2.4759,-2.5216,-2.4747,-2.4771,-2.5204,-2.4691,-2.4319,-2.4049,-2.3554,-2.3181,-2.2951,-2.295,-2.3766,-2.4921,-2.4506,-2.4319,-2.4381,-2.4345,-2.4152,-2.3934,0.0,0.0,0.0,-4.0113,-4.0307,-4.0487,-4.0756,0.0,0.0,0.0,0.0,0.0,0.0,0.0,0.0,0.0,0.0,0.0,-3.6297,-3.5804,-3.5504,-3.5504,-3.5504,-3.5504,-3.5504,-3.5504,-3.5504,-3.5504,0.0,0.0,0.0,0.0,0.0,0.0,0.0,0.0,0.0,0.0,0.0,-3.3799,-3.5011,0.0,-3.5504,-3.5504,-3.5504,-3.5504,-3.5504,-3.5415,-3.5295,0.0,-3.447,-3.3483,0.0,0.0,0.0,0.0,0.0,0.0,0.0,0.0,0.0,0.0,0.0,0.0,-2.9429,-2.8557,-2.7654,0.0,0.0,0.0,0.0,0.0,0.0,0.0,0.0,0.0,0.0,0.0,0.0,0.0,0.0,0.0,0.0,0.0,-2.4241,-2.4241,-2.3587,-2.2953,-2.2438,-2.3163,-2.3821,-2.4301,-2.4337,-2.4636,-2.53,-2.4748,-2.4544,-2.464,-2.4532,-2.4544,-2.4652,-2.4307,-2.4136,-2.4072,-2.3363,-2.2933,-2.2632,-2.2288,-2.292,-2.4179,-2.4362,-2.4085,-2.3522,-2.3361,-2.2868,-2.2258,0.0,0.0,0.0,-4.0337,-4.0935,-4.1422,-4.1422,0.0,0.0,0.0,0.0,0.0,0.0,0.0,0.0,0.0,0.0,0.0,0.0,-3.6178,-3.5848,-3.5519,-3.5504,-3.5504,-3.5504,-3.5504,-3.5504,-3.5504,0.0,0.0,0.0,0.0,0.0,0.0,0.0,0.0,0.0,0.0,-3.4487,-3.4562,-3.5235,0.0,-3.5504,-3.5504,-3.5504,-3.5504,-3.5504,-3.5504,-3.5444,-3.51,-3.4771,0.0,0.0,-3.2807,-3.2182,0.0,-3.1394,-3.0906,0.0,0.0,0.0,-3.1063,0.0,0.0,0.0,-2.9082,-2.8599,-2.8051,0.0,0.0,0.0,0.0,0.0,0.0,0.0,0.0,0.0,0.0,0.0,0.0,0.0,0.0,0.0,0.0,-2.5242,-2.4551,-2.3836,-2.3206,-2.2771,-2.3345,-2.406,-2.4814,-2.4118,-2.4093,-2.4791,-2.3955,-2.349,-2.3409,-2.3374,-2.3374,-2.342,-2.3234,-2.295,-2.2586,-2.2355,-2.1945,-2.1469,-2.1405,-2.1822,-2.2451,-2.278,-2.2761,-2.2547,-2.2446,-2.2145,-2.1794,0.0,0.0,0.0,0.0,-4.1422,-4.2066,0.0,0.0,0.0,0.0,0.0,0.0,0.0,0.0,0.0,0.0,0.0,0.0,0.0,0.0,-3.6058,-3.5534,-3.5504,-3.5504,-3.5504,-3.5504,-3.5504,-3.5504,0.0,0.0,0.0,0.0,0.0,0.0,0.0,0.0,0.0,0.0,0.0,-3.5325,0.0,-3.5504,-3.5504,-3.5504,-3.5504,-3.5504,-3.5504,-3.5504,-3.5429,-3.4861,0.0,-3.5055,-3.3559,-3.3078,0.0,0.0,0.0,0.0,0.0,0.0,0.0,0.0,0.0,-3.1057,0.0,0.0,0.0,-2.7942,0.0,0.0,0.0,0.0,0.0,0.0,0.0,0.0,0.0,0.0,0.0,0.0,0.0,0.0,0.0,0.0,-2.6066,-2.449,-2.3905,-2.3501,-2.338,-2.3621,-2.4229,-2.5174,-2.3923,-2.3489,-2.4137,-2.3142,-2.2461,-2.213,-2.2193,-2.2237,-2.2273,-2.2154,-2.1796,-2.1191,-2.1222,-2.0867,-2.0186,-2.0527,-2.0634,-2.0634,-2.1176,-2.1472,-2.1565,-2.1565,-2.1451,-2.1336,-3.9388,-3.9948,0.0,0.0,-4.101,0.0,0.0,0.0,0.0,0.0,0.0,0.0,0.0,0.0,0.0,0.0,0.0,0.0,-3.73,0.0,0.0,-3.5504,-3.5504,-3.5504,-3.5504,-3.5504,-3.5504,-3.5504,-3.5504,0.0,0.0,0.0,0.0,0.0,-3.4788,0.0,0.0,0.0,-3.4548,0.0,-3.525,-3.5504,0.0,-3.5504,-3.5504,-3.5504,-3.5504,-3.5504,-3.5489,0.0,-3.504,-3.4698,0.0,-3.3898,-3.2584,0.0,0.0,0.0,0.0,0.0,0.0,0.0,-3.068,0.0,0.0,0.0,-2.9746,-2.838,0.0,0.0,0.0,0.0,0.0,0.0,0.0,0.0,0.0,0.0,0.0,0.0,0.0,0.0,0.0,0.0,0.0,-2.4065,-2.342,-2.2863,-2.2158,-2.1777,-2.2266,-2.3782,-2.2949,-2.2843,-2.3488,-2.3031,-2.2353,-2.1509,-2.1969,-2.2201,-2.2186,-2.1945,-2.1683,-2.1428,-2.0731,-2.0147,-1.9676,-1.9715,-1.9627,-1.9648,-2.1133,-2.1296,-2.0653,-2.0653,-2.0187,-1.9569,-3.9574,-4.0247,0.0,0.0,0.0,0.0,0.0,0.0,0.0,0.0,0.0,0.0,0.0,0.0,0.0,0.0,0.0,-3.7823,0.0,0.0,0.0,-3.5519,-3.5504,-3.5504,-3.5504,-3.5504,-3.5504,-3.5504,-3.5504,0.0,0.0,0.0,0.0,0.0,-3.4465,0.0,-3.433,0.0,-3.4569,0.0,0.0,0.0,0.0,-3.5504,-3.5504,-3.5504,-3.5504,-3.5504,-3.5504,0.0,-3.531,0.0,0.0,0.0,0.0,0.0,0.0,0.0,0.0,0.0,0.0,0.0,0.0,0.0,-3.1593,0.0,-3.1329,0.0,0.0,0.0,0.0,0.0,0.0,0.0,0.0,0.0,0.0,0.0,0.0,0.0,0.0,0.0,0.0,0.0,0.0,0.0,0.0,-2.3531,-2.2627,-2.2207,-2.26,-2.406,-2.2712,-2.2262,-2.295,-2.2137,-2.135,-2.0549,-2.1036,-2.1118,-2.0872,-2.0926,-2.0728,-2.0386,-2.0032,-1.9803,-1.9597,-1.9469,-1.9381,-1.9381,-2.007,-2.0109,-1.9805,-1.9805,-1.9569,-1.9301,-3.9903,0.0,0.0,0.0,0.0,0.0,0.0,0.0,0.0,0.0,0.0,0.0,-4.119,-4.0681,0.0,0.0,-3.8796,-3.8108,0.0,0.0,-3.6193,0.0,0.0,0.0,-3.5504,-3.5504,-3.5504,-3.5504,-3.5504,0.0,0.0,0.0,0.0,0.0,0.0,-3.4406,-3.4406,0.0,0.0,-3.5115,-3.5294,-3.5359,-3.5439,-3.5472,-3.5504,-3.5504,-3.5504,-3.5504,-3.5504,-3.5504,-3.5385,0.0,-3.4668,0.0,0.0,0.0,0.0,0.0,-3.1746,0.0,0.0,0.0,0.0,0.0,0.0,0.0,0.0,0.0,0.0,0.0,0.0,0.0,0.0,0.0,0.0,0.0,0.0,0.0,0.0,0.0,0.0,0.0,0.0,0.0,0.0,0.0,0.0,0.0,-2.3537,-2.2863,-2.3148,-2.4587,-2.2704,-2.198,-2.2559,-2.154,-2.0677,-1.9922,-2.04,-2.0332,-1.9894,-2.0178,-2.0052,-1.9659,-1.9623,-1.9557,-1.9518,-1.9341,-1.9301,-1.9301,-1.9301,-1.9301,-1.9301,-1.9301,-1.9301,-1.9301,-4.0502,-4.092,0.0,0.0,0.0,0.0,0.0,0.0,0.0,0.0,0.0,0.0,0.0,0.0,0.0,0.0,0.0,-3.8108,-3.7449,0.0,-3.6193,0.0,0.0,-3.5504,0.0,-3.5504,-3.5504,-3.5504,-3.5504,0.0,0.0,0.0,0.0,0.0,0.0,-3.4872,-3.4872,-3.4872,-3.4872,-3.4902,-3.4935,-3.5034,-3.5213,0.0,-3.5504,-3.5504,-3.5504,0.0,0.0,-3.5504,-3.5055,0.0,0.0,0.0,0.0,0.0,0.0,0.0,0.0,0.0,0.0,-3.2292,0.0,0.0,0.0,0.0,-3.3052,0.0,0.0,0.0,0.0,0.0,0.0,0.0,0.0,0.0,0.0,0.0,0.0,0.0,0.0,0.0,0.0,0.0,0.0,0.0,0.0,0.0,-2.4464,-2.3195,-2.3251,-2.4927,-2.2961,-2.2038,-2.2391,-2.159,-2.0762,-1.9922,-2.04,-2.0332,-1.9894,-2.0178,-2.0137,-1.9883,-1.9666,-1.9478,-1.9301,-1.9301,-1.9301,-1.9301,-1.9301,-1.9301,-1.9301,-1.9301,-1.9301,-1.9301,0.0,0.0,0.0,0.0,0.0,0.0,0.0,-4.0816,0.0,0.0,0.0,0.0,0.0,-4.1055,-4.0606,0.0,0.0,-3.8108,-3.7449,-3.6836,0.0,0.0,0.0,-3.5504,0.0,0.0,0.0,0.0,0.0,0.0,0.0,0.0,0.0,0.0,0.0,-3.475,0.0,0.0,0.0,0.0,0.0,-3.4717,-3.4475,0.0,0.0,-3.5504,-3.5504,-3.5504,0.0,-3.5504,-3.504,-3.4503,-3.4503,-3.3497,-3.2317,-3.2509,-3.1883,0.0,0.0,0.0,-3.1163,-3.2251,0.0,0.0,0.0,0.0,0.0,0.0,0.0,0.0,0.0,0.0,0.0,0.0,0.0,0.0,0.0,0.0,0.0,0.0,0.0,0.0,0.0,0.0,0.0,0.0,0.0,0.0,0.0,-2.3464,-2.3179,-2.3717,-2.2807,-2.2215,-2.2068,-2.1243,-2.0498,-1.9912,-1.9785,-1.9785,-1.9884,-1.9698,-1.9725,-1.9863,-1.9548,-1.9341,-1.9301,-1.9301,-1.9301,-1.9301,-1.9301,-1.9301,-1.9301,-1.9301,-1.9301,-1.9301,-4.1339,0.0,0.0,0.0,0.0,0.0,0.0,0.0,0.0,0.0,-4.1991,0.0,-4.1444,0.0,-4.0846,0.0,-3.9005,-3.8467,-3.7808,-3.7165,0.0,-3.5878,-3.5624,0.0,0.0,0.0,0.0,0.0,0.0,-3.4949,0.0,0.0,0.0,0.0,0.0,-3.4597,-3.4597,0.0,-3.4597,0.0,0.0,-3.4519,0.0,0.0,-3.4981,-3.4981,0.0,-3.5294,-3.5294,-3.5294,-3.4847,-3.4284,-3.4046,-3.3118,-3.2062,-3.184,-3.1278,-3.0819,-3.1273,-3.0978,0.0,-3.1903,-3.2133,0.0,-3.33,0.0,0.0,0.0,0.0,0.0,0.0,0.0,0.0,0.0,0.0,0.0,0.0,0.0,0.0,0.0,0.0,0.0,0.0,0.0,0.0,0.0,0.0,0.0,0.0,0.0,-2.3724,-2.4059,-2.3067,-2.2314,-2.1894,-2.1162,-2.043,-1.9697,-1.9883,-1.9845,-1.9595,-1.9717,-1.9759,-1.9784,-1.942,-1.9301,-1.9301,-1.9301,-1.9301,-1.9301,-1.9301,-1.9301,-1.9301,-1.9301,-1.9301,-1.9301,-4.1504,0.0,0.0,0.0,-3.9822,0.0,0.0,0.0,-4.0636,0.0,-4.1991,-4.2156,-4.1444,-4.1422,-4.0846,-3.9529,-3.9388,-3.9125,-3.8437,-3.7808,0.0,0.0,-3.5908,-3.5451,-3.524,0.0,0.0,0.0,0.0,0.0,0.0,0.0,0.0,0.0,-3.4414,0.0,-3.4414,-3.4346,-3.4312,-3.4312,-3.4312,-3.4385,-3.452,-3.4582,0.0,-3.3953,-3.4666,-3.4902,-3.4902,-3.4868,-3.4442,-3.3827,-3.3176,-3.2451,-3.1668,-3.0995,-3.0716,-3.0581,-3.0507,-3.0538,-3.0683,-3.1261,0.0,0.0,0.0,0.0,-3.2547,0.0,0.0,0.0,0.0,0.0,0.0,0.0,0.0,0.0,0.0,0.0,0.0,0.0,0.0,0.0,0.0,0.0,0.0,0.0,0.0,0.0,0.0,0.0,0.0,-2.5652,-2.362,-2.2344,-2.1924,-2.1424,-2.0596,-1.9365,-2.0586,-2.0421,-1.911,-2.0077,-2.0219,-1.9634,-1.9399,-1.9301,-1.9301,-1.9301,-1.9301,-1.9301,-1.9301,-1.9301,-1.9301,-1.9301,-1.9301,-1.9301,-4.1073,-4.0522,-3.995,0.0,-3.9638,-3.9388,0.0,0.0,0.0,0.0,-4.1991,-4.2156,-4.1444,-4.1422,-4.0846,-3.9529,-3.9388,0.0,0.0,0.0,0.0,-3.721,-3.6567,-3.6156,-3.5941,-3.5466,0.0,-3.475,0.0,0.0,-3.4481,0.0,0.0,0.0,0.0,0.0,-3.4346,-3.3776,-3.3192,-3.2698,-3.2698,-3.2435,0.0,0.0,-3.2381,-3.211,-3.4172,-3.4902,-3.482,-3.4254,-3.3653,-3.3072,-3.2914,-3.2295,-3.1522,-3.0911,-3.0646,-3.0326,-2.9299,-2.9439,-2.9882,-3.0038,-3.0421,-3.086,0.0,0.0,0.0,0.0,0.0,0.0,0.0,0.0,0.0,0.0,0.0,0.0,0.0,0.0,0.0,0.0,0.0,0.0,0.0,0.0,0.0,0.0,0.0,0.0,0.0,0.0,0.0,-2.381,-2.3244,-2.273,-2.2353,-2.157,-2.0898,-2.0282,-2.0244,-2.0129,-1.9899,-2.0029,-2.0057,-2.0025,-1.9519,-1.9301,-1.9301,-1.9301,-1.9301,-1.9301,-1.9301,-1.9301,-1.9301,-1.9301,-1.9301,-1.9301,-4.0129,0.0,0.0,-3.8754,0.0,0.0,-3.9513,-3.9899,0.0,-4.1158,-4.1507,0.0,-4.0897,-4.0762,-4.0308,-3.9354,-3.9265,0.0,-3.8871,0.0,0.0,-3.7729,-3.6752,-3.616,-3.5927,-3.5322,0.0,-3.4563,0.0,0.0,-3.3894,0.0,0.0,0.0,0.0,-3.3381,0.0,-3.2911,-3.247,-3.211,-3.211,0.0,0.0,-3.1951,-3.187,-3.1733,-3.317,-3.3679,-3.361,-3.3178,-3.2814,-3.2444,-3.2145,-3.1756,-3.1195,-3.0327,-3.0206,-3.0138,-2.9114,-2.9145,-2.9518,-2.9808,-2.9919,-3.0099,-3.0638,-3.0473,-3.0228,0.0,0.0,0.0,0.0,0.0,0.0,0.0,0.0,0.0,0.0,0.0,0.0,0.0,0.0,0.0,0.0,0.0,0.0,0.0,0.0,0.0,0.0,0.0,0.0,-2.3744,-2.3309,-2.2808,-2.2246,-2.1758,-2.1103,-2.0283,-2.0333,-2.014,-1.9792,-1.9976,-1.9974,-1.9792,-1.9442,-1.9301,-1.9301,-1.9301,-1.9301,-1.9301,-1.9301,-1.9301,-1.9301,-1.9301,-1.9301,-1.9301,-3.8946,0.0,0.0,0.0,0.0,0.0,0.0,-3.98,0.0,-4.0959,0.0,-4.0687,-4.0121,-3.9897,-3.9609,-3.9091,0.0,-3.9141,-3.9301,-3.862,-3.8142,-3.8068,-3.6659,-3.5727,-3.5452,-3.4869,0.0,0.0,0.0,-3.3859,-3.3073,0.0,0.0,0.0,0.0,0.0,0.0,-3.1928,-3.1892,0.0,-3.1796,-3.1796,-3.1796,-3.1796,-3.1796,-3.1796,-3.1796,-3.1942,-3.2074,-3.1965,-3.1928,-3.1834,-3.1263,-3.1065,-3.0836,-2.9719,-2.9719,-2.9948,-2.9308,-2.9174,-2.9302,-2.9921,-2.9665,-2.9544,-3.0594,-3.0766,-3.0556,-3.0014,-2.9817,0.0,0.0,0.0,0.0,0.0,0.0,0.0,0.0,0.0,0.0,0.0,0.0,0.0,0.0,0.0,0.0,0.0,0.0,0.0,0.0,0.0,0.0,0.0,-2.3527,0.0,-2.206,0.0,-2.1259,-2.0138,-2.0632,-2.0346,-1.9448,-2.0014,-1.9975,-1.9384,-1.9329,-1.9301,-1.9301,-1.9301,-1.9301,-1.9301,-1.9301,-1.9301,-1.9301,-1.9301,-1.9301,-1.9301,-3.8349,0.0,0.0,0.0,0.0,-3.7085,-3.7703,-3.9831,-4.1229,-4.0908,-4.1268,-4.1111,-3.997,-3.9837,-3.9519,-3.8929,-3.887,0.0,0.0,0.0,0.0,-3.7969,-3.6504,-3.5397,-3.469,-3.4041,-3.3297,0.0,-3.3122,-3.3052,-3.229,0.0,0.0,0.0,0.0,0.0,-3.1119,-3.1119,0.0,-3.019,-3.019,-3.019,-3.019,-3.019,-3.019,-3.019,-3.019,-3.1009,-3.2001,-3.1328,-3.1119,-3.1093,-3.0963,-3.0937,-3.0806,-3.0135,-2.9724,-2.9302,-2.8536,-2.8398,-2.8602,-2.9158,-2.921,-2.9197,-2.9394,-2.9008,-2.8471,-2.7946,-2.7815,-2.7683,-2.7392,0.0,0.0,0.0,0.0,0.0,0.0,0.0,0.0,0.0,0.0,0.0,0.0,0.0,0.0,0.0,0.0,0.0,0.0,0.0,0.0,0.0,0.0,0.0,0.0,0.0,0.0,-2.1209,-2.0824,-2.045,-2.0037,-2.0227,-2.0101,-1.9756,-1.9448,-1.9301,-1.9301,-1.9301,-1.9301,-1.9301,-1.9301,-1.9301,-1.9301,-1.9301,-1.9301,-1.9301,-3.6843,0.0,0.0,0.0,0.0,0.0,0.0,-3.9297,0.0,-4.0374,-3.9985,-3.9538,-3.9011,-3.8573,-3.8203,-3.7985,-3.7956,-3.7901,-3.7717,-3.7189,-3.6655,-3.608,-3.5307,0.0,-3.3742,-3.3452,-3.2932,-3.211,-3.247,-3.2218,-3.1489,0.0,0.0,0.0,0.0,-3.0684,0.0,0.0,0.0,-2.9792,-2.9792,-2.9792,-2.9792,-2.9792,-2.9603,-2.939,-2.9691,-3.0062,-3.0442,-3.0354,-3.0343,-3.0343,-3.0343,-3.0343,-3.024,-2.9639,-2.9535,-2.9423,-2.8723,-2.858,-2.8745,-2.9321,-2.9244,-2.9014,-2.9014,-2.8746,-2.8298,-2.7457,-2.7281,-2.7281,-2.7281,-2.7661,0.0,0.0,0.0,0.0,0.0,0.0,0.0,0.0,0.0,0.0,0.0,0.0,0.0,0.0,0.0,0.0,0.0,0.0,0.0,0.0,0.0,0.0,0.0,0.0,0.0,-2.0861,-2.0349,-2.0014,-1.9894,-1.9805,-1.9725,-1.9595,-1.9393,-1.9301,-1.9301,-1.9301,-1.9301,-1.9301,-1.9301,-1.9301,-1.9301,-1.9301,-1.9301,-1.9301,0.0,-3.5583,0.0,0.0,-3.6333,0.0,-3.7586,-3.8389,-3.9081,-3.9592,-3.8557,-3.7789,-3.7824,-3.7091,-3.6674,-3.6841,-3.6768,-3.6564,-3.6311,-3.5384,-3.4618,-3.4067,-3.3822,-3.3335,-3.258,-3.2667,-3.2362,0.0,-3.1759,-3.1452,0.0,0.0,0.0,0.0,0.0,0.0,0.0,0.0,-2.9792,-2.9792,-2.9792,-2.9716,-2.9616,-2.9741,-2.9365,-2.88,-2.9541,-2.9415,-2.8963,-2.9453,-2.9691,-2.9792,-2.9792,-2.9704,-2.9541,-2.9176,-2.9264,-2.9365,-2.8976,-2.8888,-2.9001,-2.9503,-2.9264,-2.8888,-2.8888,-2.88,-2.8473,-2.7494,-2.7228,-2.7178,-2.7291,-2.7509,0.0,0.0,0.0,0.0,0.0,0.0,0.0,0.0,0.0,0.0,0.0,0.0,0.0,0.0,0.0,-2.6684,-2.5232,-2.5317,0.0,0.0,0.0,-2.2451,-2.198,0.0,-2.0646,0.0,-1.9801,-1.9557,-1.9518,-1.939,-1.9301,-1.9301,-1.9301,-1.9301,-1.9301,-1.9301,-1.9301,-1.9301,-1.9301,-1.9301,-1.9301,-1.9301,-1.9301,-1.9301,0.0,0.0,0.0,0.0,0.0,0.0,-3.5759,-3.6987,-3.8039,-3.8396,-3.7886,-3.7232,-3.6729,-3.6116,-3.5735,-3.5735,-3.5324,-3.5022,-3.4967,-3.4424,-3.3813,-3.3152,-3.2484,-3.1789,-3.1099,-3.1108,-3.0771,0.0,0.0,-3.062,0.0,0.0,0.0,0.0,0.0,0.0,0.0,-2.9792,-2.9792,-2.9792,-2.9792,-2.9478,-2.9026,-2.9591,-2.9126,-2.8323,-2.9402,-2.9415,-2.89,-2.895,-2.9365,-2.9792,-2.9792,-2.9428,-2.9063,-2.9578,-2.9026,-2.836,-2.8762,-2.8888,-2.89,-2.8963,-2.8938,-2.8888,-2.8888,-2.8499,-2.8009,-2.7406,-2.6914,-2.6725,-2.7228,-2.6789,-2.6638,0.0,0.0,0.0,0.0,0.0,0.0,0.0,0.0,0.0,0.0,0.0,0.0,0.0,0.0,-2.7079,-2.5773,-2.5684,-2.4871,-2.3135,0.0,-2.2814,-2.2173,-2.1139,0.0,-2.0276,-1.9645,-1.9341,-1.9341,-1.9301,-1.9301,-1.9301,-1.9301,-1.9301,-1.9301,-1.9301,-1.9301,-1.9301,-1.9301,-1.9301,-1.9301,-1.9301,-1.9301,-1.9301,0.0,0.0,0.0,0.0,0.0,0.0,0.0,-3.6041,-3.6332,-3.6146,-3.642,-3.6396,-3.5854,-3.5241,-3.475,-3.4378,-3.4126,-3.3741,-3.3114,-3.2371,-3.1695,-3.1123,-3.1223,-3.0967,-3.0241,-3.0683,-3.0545,0.0,0.0,0.0,0.0,0.0,0.0,0.0,0.0,-2.9792,-2.9792,-2.9792,-2.9792,-2.9792,-2.9792,-2.9453,-2.8913,-2.9189,-2.8586,-2.7758,-2.8875,-2.8699,-2.8047,-2.8662,-2.9315,-2.9729,-2.939,-2.9076,-2.8938,-2.9202,-2.8725,-2.816,-2.8373,-2.8436,-2.8436,-2.8436,-2.8436,-2.8348,-2.8009,-2.777,-2.7457,-2.6939,-2.665,-2.6527,-2.6627,-2.6669,-2.6592,0.0,0.0,0.0,0.0,0.0,0.0,0.0,0.0,0.0,0.0,0.0,0.0,0.0,0.0,-2.5954,-2.4628,-2.4301,-2.3941,-2.3516,0.0,-2.2399,-2.2392,-2.091,-2.0157,-2.0038,-1.9543,-1.9301,-1.9301,-1.9301,-1.9301,-1.9301,-1.9301,-1.9301,-1.9301,-1.9301,-1.9301,-1.9301,-1.9301,-1.9301,-1.9301,-1.9301,-1.9467,-1.9677,-3.6405,0.0,-3.6405,0.0,-3.6405,-3.6279,-3.5843,-3.5596,-3.5307,-3.4756,-3.5117,-3.5318,-3.4917,-3.4189,-3.3594,-3.3168,-3.2844,-3.2315,-3.1591,-3.0786,-3.0193,-2.9817,-3.0317,0.0,-2.9792,-3.0305,-3.0305,-2.9792,-2.9792,0.0,0.0,0.0,0.0,0.0,-2.9792,-2.9792,-2.9792,-2.9792,-2.9792,-2.9779,-2.9616,-2.9202,-2.865,-2.865,-2.7996,-2.7216,-2.8285,-2.8084,-2.7442,-2.8185,-2.8825,-2.9227,-2.8812,-2.8574,-2.8473,-2.8599,-2.8298,-2.7858,-2.7858,-2.7984,-2.8059,-2.7908,-2.7858,-2.7758,-2.7369,-2.719,-2.6964,-2.6575,-2.6465,-2.6361,-2.6236,-2.6464,-2.6484,-2.5909,0.0,0.0,0.0,0.0,0.0,0.0,-2.4181,-2.3756,-2.2798,0.0,0.0,0.0,0.0,0.0,-2.398,-2.3649,0.0,0.0,0.0,0.0,0.0,-2.0671,-1.9863,-1.9833,-1.946,-1.9301,-1.9301,-1.9301,-1.9301,-1.9301,-1.9301,-1.9301,-1.9301,-1.9301,-1.9301,-1.9301,-1.9301,-1.9301,-1.932,-1.9439,-1.9677,-1.9902,-3.6405,-3.6405,-3.6405,-3.6405,-3.6405,-3.6405,-3.6405,-3.5893,-3.5307,-3.4756,-3.4248,-3.3897,-3.3897,-3.2893,-3.2215,-3.2215,-3.1248,-3.0633,-3.062,-3.0105,-2.9804,0.0,0.0,-2.9792,-2.9792,-2.9792,-2.9792,-2.9792,0.0,0.0,-2.9792,0.0,-2.9792,-2.9792,-2.9792,-2.9792,-2.9792,-2.9792,-2.9792,-2.9741,-2.9126,-2.8612,-2.8109,-2.8109,-2.7431,-2.665,-2.772,-2.7758,-2.7281,-2.7293,-2.767,-2.8122,-2.8109,-2.7745,-2.7406,-2.7959,-2.772,-2.7329,-2.7329,-2.7695,-2.7971,-2.7431,-2.7329,-2.7329,-2.7281,-2.6901,-2.6499,-2.6499,-2.6339,-2.6213,-2.6213,-2.6027,-2.6012,-2.6347,0.0,0.0,0.0,0.0,0.0,0.0,-2.6201,-2.5753,-2.2971,0.0,0.0,0.0,0.0,0.0,0.0,0.0,0.0,-2.3144,-2.2734,0.0,-2.1515,-2.0429,-1.9794,-1.9606,-1.939,-1.9301,-1.9301,-1.9301,-1.9301,-1.9301,-1.9301,-1.9301,-1.9301,-1.9301,-1.9301,-1.9301,-1.9301,-1.9301,-1.9356,-1.9769,-1.9884,-1.9948,-3.6405,-3.6405,-3.6405,-3.6405,-3.6405,-3.6279,-3.5868,-3.5295,-3.4743,-3.4236,-3.3684,-3.3332,-3.3332,-3.2667,-3.2064,0.0,-3.1022,-3.0457,0.0,-2.9892,-2.9792,-2.9792,-2.9792,-2.9792,-2.9792,-2.9792,-2.9792,-2.9792,0.0,0.0,0.0,-2.9792,-2.9792,-2.9792,-2.9792,-2.9792,-2.9767,-2.9365,-2.9202,-2.9151,-2.8599,-2.8034,-2.7544,-2.7544,-2.7128,-2.6587,-2.7281,-2.7228,-2.6813,-2.719,-2.719,-2.7014,-2.7014,-2.7153,-2.7318,-2.7494,-2.719,-2.6751,-2.6751,-2.6889,-2.6977,-2.6801,-2.6751,-2.6751,-2.6751,-2.6521,-2.6305,-2.6305,-2.6131,-2.5945,-2.584,-2.5723,-2.5702,-2.5647,0.0,0.0,0.0,0.0,0.0,0.0,-2.3805,-2.3108,0.0,-2.2765,0.0,0.0,0.0,0.0,0.0,0.0,0.0,0.0,-2.2607,0.0,-2.1967,-2.059,-1.9794,-1.9606,-1.939,-1.9301,-1.932,-1.9879,-1.9824,-1.932,-1.9604,-1.9567,-1.9301,-1.9301,-1.9301,-1.9301,-1.9301,-1.9301,-1.9384,-2.0081,-2.0287,-2.0429,-3.6405,-3.6405,-3.6342,-3.6094,-3.6056,-3.5868,-3.527,-3.4718,-3.4286,-3.3935,-3.342,-3.3124,-3.3124,-3.2554,0.0,-3.1436,-3.0922,-3.0382,-2.9829,-2.9792,-2.9792,-2.9792,-2.9792,-2.9792,-2.9792,0.0,0.0,-2.9792,-2.9792,-2.9792,-2.9792,-2.9792,-2.9679,-2.9465,-2.9465,-2.9352,-2.9139,-2.8775,-2.8612,-2.8537,-2.8021,-2.7595,-2.7291,-2.709,-2.6788,-2.6537,-2.6889,-2.6788,-2.6549,-2.6889,-2.6788,-2.6499,-2.6499,-2.6669,-2.6874,-2.6874,-2.6602,-2.6292,-2.6292,-2.6292,-2.6292,-2.6292,-2.6292,-2.6292,-2.6292,-2.6188,-2.6097,-2.6097,-2.5945,-2.5758,-2.5606,-2.5535,-2.5525,-2.5576,-2.5432,-2.5266,-2.5158,0.0,0.0,0.0,0.0,0.0,0.0,-2.1946,0.0,0.0,0.0,0.0,0.0,0.0,0.0,-2.3535,-2.2471,0.0,-2.2074,-2.0621,-1.9948,-1.9989,-1.9808,-1.976,-1.9778,-2.0283,-2.0154,-1.9558,-1.993,-1.9824,-1.9311,-1.9476,-1.9439,-1.9301,-1.9301,-1.9393,-1.9613,-2.0273,-2.0671,-2.1028,-3.6405,-3.6405,0.0,0.0,-3.552,0.0,-3.4806,-3.4274,-3.3897,-3.3897,-3.342,-3.3124,-3.3124,-3.2591,-3.2051,-3.1499,0.0,0.0,0.0,-2.9817,-2.9792,-2.9792,-2.9792,-2.9792,-2.9792,-2.9792,-2.9792,-2.9792,-2.9792,-2.9792,-2.9792,-2.9792,-2.9478,-2.8888,-2.8888,-2.8587,-2.8109,-2.8059,-2.8047,-2.7996,-2.7444,-2.7218,-2.7203,-2.6688,-2.6499,-2.6499,-2.6499,-2.6499,-2.6499,-2.6499,-2.6465,-2.6452,-2.6452,-2.6327,-2.6166,-2.6179,-2.6062,-2.591,-2.591,-2.591,-2.591,-2.591,-2.591,-2.591,-2.591,-2.5875,-2.5875,-2.5875,-2.5723,-2.5571,-2.5571,-2.543,-2.548,-2.6009,-2.5685,-2.523,-2.4957,0.0,0.0,0.0,0.0,0.0,0.0,-2.2188,-2.1788,0.0,0.0,0.0,0.0,0.0,-2.3091,-2.3091,-2.2353,-2.1934,-2.1882,-2.0644,-2.0186,-2.0583,-2.0574,-2.0549,-2.0521,-2.0576,-2.0332,-1.9948,-2.0393,-2.0108,-1.9421,-1.9774,-1.9701,-1.9384,-1.9384,-1.9622,-1.9976,-2.0406,-2.1019,-2.1705,0.0,0.0,-3.6367,-3.6194,-3.583,-3.5458,-3.532,-3.4525,-3.3897,-3.3897,-3.342,-3.3124,-3.3124,-3.2955,-3.2641,-3.2064,-3.116,-3.0557,-3.0432,-3.003,-2.9792,-2.9792,-2.9792,-2.9792,-2.9792,-2.9792,-2.9792,-2.9792,-2.9792,-2.9792,-2.9792,-2.9792,-2.9478,-2.8888,-2.8888,-2.8587,-2.8084,-2.7657,-2.7482,-2.7431,-2.6914,-2.6688,-2.6675,-2.6549,-2.6499,-2.6499,-2.6499,-2.6396,-2.627,-2.627,-2.6166,-2.605,-2.605,-2.5898,-2.5793,-2.6097,-2.6062,-2.591,-2.591,-2.591,-2.591,-2.591,-2.591,-2.591,-2.591,-2.5793,-2.5676,-2.5676,-2.55,-2.5382,-2.5382,-2.5347,-2.548,-2.6009,-2.5997,-2.5683,-2.5004,-2.4708,0.0,0.0,-2.1939,-2.1621,-2.0494,-2.0806,-2.1184,0.0,0.0,0.0,0.0,0.0,-2.3091,-2.3091,-2.2637,-2.2194,-2.1812,-2.1195,-2.0771,-2.0551,-2.082,-2.0805,-2.0539,-2.1119,-2.1019,-2.036,-2.0796,-2.0686,-2.0237,-2.0338,-2.0278,-2.0237,-2.0237,-2.0292,-2.0424,-2.1138,-2.1321,-2.1355,-3.6405,-3.6405,-3.6254,-3.5692,-3.5366,-3.4956,-3.45,-3.3909,-3.352,-3.352,-3.3269,-3.3124,-3.3124,-3.3124,-3.2955,-3.2641,-3.1599,-3.0871,-3.0633,-3.0093,-2.9792,-2.9792,-2.9792,-2.9792,-2.9792,-2.9792,-2.9792,-2.9792,-2.9792,-2.9654,-2.9402,-2.9402,-2.8963,-2.8185,-2.8185,-2.7871,-2.7331,-2.7065,-2.6939,-2.6914,-2.6612,-2.6499,-2.6499,-2.6499,-2.643,-2.6374,-2.6374,-2.6236,-2.6062,-2.6062,-2.598,-2.591,-2.591,-2.5758,-2.5641,-2.5875,-2.5793,-2.5641,-2.5641,-2.5641,-2.5641,-2.5641,-2.5641,-2.5641,-2.5641,-2.5535,-2.5453,-2.5453,-2.5382,-2.5312,-2.5312,-2.5504,-2.5696,-2.5851,-2.5685,-2.5219,-2.4271,-2.3754,0.0,-2.1336,-2.1364,-2.127,-2.0576,-2.0918,-2.1289,-2.1562,0.0,0.0,-2.2779,-2.2994,-2.3091,-2.3091,-2.2734,-2.2339,-2.2007,-2.1514,-2.1137,-2.0796,-2.12,-2.1238,-2.1046,-2.1495,-2.1348,-2.0814,-2.1218,-2.0961,-2.0232,-2.064,-2.0576,-2.0223,-2.0448,-2.0631,-2.0842,-2.1238,-2.1658,-2.1943,-3.6405,-3.6405,-3.6116,-3.514,-3.4901,-3.45,-3.3483,-3.3257,-3.3212,-3.3124,-3.3124,-3.3124,-3.3124,-3.3124,-3.3124,-3.3124,-3.2114,-3.1286,-3.0771,-3.0143,-2.9792,-2.9792,-2.9792,-2.9792,-2.9792,-2.9792,-2.9792,-2.9792,-2.9792,-2.9503,-2.8888,-2.8888,-2.8335,-2.7281,-2.7281,-2.7014,-2.6499,-2.6499,-2.6499,-2.6499,-2.6499,-2.6499,-2.6499,-2.6499,-2.6361,-2.6213,-2.6213,-2.6062,-2.5828,-2.5828,-2.5828,-2.5793,-2.5793,-2.5688,-2.5535,-2.5535,-2.5418,-2.5312,-2.5312,-2.5312,-2.5312,-2.5312,-2.5312,-2.5312,-2.5312,-2.5252,-2.5216,-2.5288,-2.5252,-2.5216,-2.53,-2.5745,-2.5979,-2.5666,-2.5291,-2.4599,-2.3362,0.0,-2.1788,-2.1271,-2.1249,-2.1268,-2.12,-2.1631,-2.1728,-2.1317,-2.207,0.0,0.0,-2.2896,-2.3101,-2.3057,-2.2707,-2.2436,-2.2188,-2.1705,-2.1348,-2.1209,-2.1522,-2.1696,-2.1696,-2.1696,-2.1495,-2.1218,-2.1531,-2.111,-2.0223,-2.0989,-2.086,-2.0204,-2.0598,-2.0961,-2.12,-2.12,-2.1824,-2.2675,-3.6405,-3.6405,-3.6355,-3.6179,-3.5717,-3.5157,-3.4562,-3.4073,-3.3608,-3.3174,-3.3124,-3.3124,-3.3124,-3.3124,-3.3124,-3.3124,-3.2466,-3.1851,-3.1298,-3.0344,-2.9792,-2.9792,-2.9792,-2.9792,-2.9792,-2.9792,-2.9792,-2.9792,-2.9792,-2.9503,-2.8888,-2.8888,-2.8335,-2.7281,-2.7281,-2.7014,-2.6499,-2.6499,-2.6499,-2.6499,-2.6499,-2.6499,-2.6499,-2.6499,-2.6361,-2.6213,-2.6213,-2.5945,-2.5653,-2.5653,-2.5535,-2.5382,-2.5382,-2.5382,-2.5347,-2.5347,-2.5312,-2.5312,-2.5312,-2.5312,-2.5312,-2.5312,-2.5312,-2.5312,-2.5312,-2.4963,-2.4736,-2.5216,-2.4951,-2.4748,-2.5228,-2.5745,-2.5979,-2.5666,-2.5601,-2.5026,-2.3404,0.0,-2.2542,-2.135,-2.1562,-2.1641,-2.1229,-2.1631,-2.1855,-2.1787,-2.2236,-2.2666,-2.2984,-2.3062,-2.3013,-2.2847,-2.278,-2.2532,-2.2136,-2.1826,-2.164,-2.1595,-2.1659,-2.1696,-2.1696,-2.1696,-2.1659,-2.1595,-2.1668,-2.1586,-2.1449,-2.1897,-2.1824,-2.1449,-2.1842,-2.1833,-2.1595,-2.1595,-2.1714,-2.187,-3.6405,-3.6405,-3.6317,-3.5968,-3.5658,-3.5307,-3.4756,-3.4248,-3.3809,-3.3558,-3.3257,-3.3124,-3.3124,-3.3124,-3.3124,-3.3124,-3.2554,-3.1976,-3.1424,-3.067,-3.0105,-2.9804,-2.9792,-2.9792,-2.9792,-2.9792,-2.9792,-2.9792,-2.9792,-2.934,-2.8486,-2.8486,-2.7896,-2.6876,-2.6876,-2.6738,-2.6499,-2.6499,-2.6499,-2.6499,-2.6499,-2.6499,-2.6499,-2.6499,-2.6292,-2.6027,-2.6027,-2.5793,-2.543,-2.543,-2.5382,-2.5312,-2.5312,-2.5312,-2.5312,-2.5312,-2.5312,-2.5312,-2.5312,-2.5312,-2.5312,-2.5312,-2.5095,-2.4928,-2.524,-2.4903,-2.464,-2.5204,-2.5107,-2.5023,-2.5264,-2.5572,-2.5622,-2.4954,-2.4568,0.0,0.0,-2.2412,-2.2059,-2.1936,-2.21,-2.2148,-2.1902,-2.2305,-2.2471,-2.2236,-2.2617,-2.2886,-2.3081,-2.3013,-2.2891,-2.2803,-2.2539,-2.2318,-2.2097,-2.183,-2.1696,-2.1696,-2.1696,-2.1696,-2.1696,-2.1696,-2.1696,-2.1696,-2.1696,-2.1559,-2.1429,-2.1797,-2.1723,-2.1438,-2.1806,-2.1851,-2.1696,-2.1696,-2.1824,-2.198,-3.6405,-3.6405,-3.6267,-3.5805,-3.5683,-3.5508,-3.4956,-3.4449,-3.4048,-3.3922,-3.342,-3.3124,-3.3124,-3.3124,-3.3124,-3.3124,-3.2667,-3.2177,-3.1625,-3.121,-3.0633,-2.9829,-2.9792,-2.9792,-2.9792,-2.9792,-2.9792,-2.9792,-2.9654,-2.9151,-2.8298,-2.8034,-2.7457,-2.6688,-2.6549,-2.6499,-2.6499,-2.6499,-2.6499,-2.6499,-2.6499,-2.6499,-2.6499,-2.6465,-2.6223,-2.5898,-2.584,-2.5606,-2.5312,-2.5312,-2.5312,-2.5312,-2.5312,-2.5312,-2.5312,-2.5312,-2.5312,-2.5312,-2.5312,-2.5216,-2.5119,-2.5119,-2.468,-2.4339,-2.4743,-2.4412,-2.4131,-2.4649,-2.4661,-2.4649,-2.486,-2.5136,-2.5044,-2.4233,0.0,0.0,0.0,-2.1902,-2.1736,-2.2432,-2.2598,-2.2617,-2.2519,-2.2847,-2.2916,-2.2549,-2.2857,-2.3091,-2.3047,-2.2882,-2.2759,-2.2627,-2.2274,-2.2052,-2.2008,-2.1785,-2.1696,-2.1696,-2.1696,-2.1696,-2.1696,-2.1696,-2.1696,-2.1696,-2.1696,-2.1504,-2.1282,-2.1659,-2.1586,-2.1291,-2.1668,-2.1769,-2.1696,-2.1696,-2.1888,-2.2099,-3.6405,-3.6405,-3.6405,-3.6355,-3.6342,-3.6119,-3.552,-3.4969,-3.4474,-3.3972,-3.342,-3.3124,-3.3124,-3.3124,-3.3124,-3.3124,-3.3074,-3.2767,-3.219,-3.2114,-3.1399,-2.9867,-2.9792,-2.9792,-2.9792,-2.9792,-2.9792,-2.9792,-2.9252,-2.8913,-2.8813,-2.7821,-2.7341,-2.7241,-2.6725,-2.6499,-2.6499,-2.6499,-2.6499,-2.6499,-2.6499,-2.6499,-2.6499,-2.6305,-2.6097,-2.5875,-2.5688,-2.55,-2.5312,-2.5312,-2.5312,-2.5312,-2.5312,-2.5312,-2.5312,-2.5312,-2.5312,-2.5312,-2.5312,-2.4951,-2.4578,-2.4578,-2.4025,-2.3478,-2.3548,-2.2913,-2.2512,-2.3069,-2.2779,-2.2674,-2.3547,-2.4138,-2.4313,-2.3825,0.0,0.0,-2.2627,-2.2461,-2.2441,-2.251,-2.2808,-2.2896,-2.2549,-2.2847,-2.2916,-2.2549,-2.2857,-2.3013,-2.2847,-2.2794,-2.2583,-2.2185,-2.2097,-2.1963,-2.1731,-2.1696,-2.1696,-2.1696,-2.1696,-2.1696,-2.1696,-2.1696,-2.1696,-2.1696,-2.1696,-2.1678,-2.1678,-2.2071,-2.1998,-2.1687,-2.208,-2.2016,-2.1696,-2.1696,-2.1705,-2.1733,-3.6405,-3.6405,-3.6405,-3.6405,-3.6405,-3.6329,-3.6081,-3.5579,-3.4994,-3.4487,-3.3935,-3.3458,-3.3162,-3.3124,-3.3124,-3.3124,-3.3124,-3.283,-3.2252,-3.2215,-3.1637,-3.0357,-2.998,-2.9792,-2.9792,-2.9792,-2.9792,-2.9792,-2.9566,-2.9289,-2.8888,-2.8461,-2.7946,-2.7268,-2.7102,-2.6813,-2.6499,-2.6499,-2.643,-2.6339,-2.6465,-2.643,-2.6305,-2.6236,-2.6097,-2.5875,-2.5676,-2.5465,-2.5312,-2.5312,-2.5312,-2.5312,-2.5312,-2.5312,-2.5194,-2.4707,-2.4564,-2.4456,-2.3986,-2.4424,-2.4859,-2.4378,-2.3827,-2.3371,-2.3201,-2.2672,-2.2342,-2.2896,-2.2852,-2.2892,-2.3493,-2.3584,-2.3622,-2.3701,0.0,-2.2971,-2.2861,-2.2676,-2.2607,-2.2828,-2.3003,-2.3033,-2.2877,-2.3003,-2.3033,-2.2867,-2.3003,-2.3013,-2.2794,-2.2539,-2.223,-2.1874,-2.1874,-2.1785,-2.1696,-2.1696,-2.1696,-2.1696,-2.1696,-2.1696,-2.1696,-2.1696,-2.1696,-2.1696,-2.1696,-2.1696,-2.1705,-2.1851,-2.1824,-2.1705,-2.1861,-2.1824,-2.1696,-2.1696,-2.1696,-2.1696,-3.6405,-3.6405,-3.6405,-3.6405,-3.6405,-3.6405,-3.6405,-3.5893,-3.5357,-3.4981,-3.4349,-3.3759,-3.337,-3.3181,-3.3124,-3.3124,-3.3124,-3.2905,-3.2503,-3.2315,-3.1738,-3.067,-3.0256,-2.9967,-2.9792,-2.9792,-2.9792,-2.9792,-2.9616,-2.9415,-2.9189,-2.8837,-2.8273,-2.7544,-2.7544,-2.7165,-2.6512,-2.6606,-2.6489,-2.6213,-2.6339,-2.6339,-2.6201,-2.6131,-2.6015,-2.5888,-2.58,-2.5563,-2.5336,-2.5492,-2.5444,-2.5312,-2.5312,-2.5123,-2.4814,-2.4264,-2.3938,-2.3647,-2.3132,-2.3756,-2.4385,-2.3673,-2.3055,-2.2612,-2.2395,-2.1998,-2.1792,-2.2184,-2.2364,-2.2541,-2.2987,-2.2979,-2.3031,-2.3466,-2.3037,-2.2769,-2.3052,-2.2847,-2.2769,-2.3062,-2.3091,-2.3091,-2.3091,-2.3091,-2.3091,-2.3091,-2.3057,-2.2882,-2.2583,-2.2185,-2.1874,-2.1696,-2.1696,-2.1696,-2.1696,-2.1696,-2.1696,-2.1696,-2.1696,-2.1696,-2.1696,-2.1696,-2.1696,-2.1696,-2.1696,-2.1696,-2.1696,-2.1696,-2.1696,-2.1696,-2.1696,-2.1696,-2.1696,-2.1696,-2.1696,-2.1696,-3.6405,-3.6405,-3.6405,-3.6405,-3.6405,-3.6405,-3.6405,-3.5893,-3.5508,-3.5495,-3.4587,-3.3909,-3.3897,-3.3407,-3.3124,-3.3124,-3.3124,-3.3124,-3.3124,-3.2541,-3.1738,-3.067,-3.062,-3.0357,-2.9804,-2.9792,-2.9792,-2.9792,-2.9214,-2.9189,-2.9767,-2.8649,-2.8109,-2.8109,-2.8109,-2.7494,-2.6537,-2.6854,-2.6673,-2.6226,-2.6213,-2.6213,-2.6179,-2.5992,-2.591,-2.5914,-2.6058,-2.5757,-2.5384,-2.5913,-2.5745,-2.5312,-2.5312,-2.4755,-2.4108,-2.4084,-2.3573,-2.2995,-2.3005,-2.3005,-2.2848,-2.2331,-2.1596,-2.102,-2.102,-2.0777,-2.0605,-2.0605,-2.0928,-2.1327,-2.1807,-2.2236,-2.2646,-2.3023,-2.3091,-2.3091,-2.3091,-2.3091,-2.3091,-2.3091,-2.3091,-2.3091,-2.3091,-2.3091,-2.3091,-2.3091,-2.2925,-2.2583,-2.2097,-2.183,-2.1696,-2.1696,-2.1696,-2.1696,-2.1696,-2.1696,-2.1696,-2.1696,-2.1696,-2.1696,-2.1696,-2.1696,-2.1696,-2.1696,-2.1696,-2.1696,-2.1696,-2.1696,-2.1696,-2.1696,-2.1696,-2.1696,-2.1696,-2.1696,-2.1696,-2.1696,-3.6405,-3.6405,-3.6405,-3.6405,-3.6405,-3.6405,-3.6405,-3.6267,-3.5981,-3.5558,-3.4868,-3.4324,-3.3935,-3.3407,-3.3124,-3.3124,-3.3124,-3.3124,-3.3124,-3.2918,-3.2315,-3.121,-3.0809,-3.0357,-2.9804,-2.9792,-2.9792,-2.9792,-2.9616,-2.9526,-2.9509,-2.9351,-2.8988,-2.8425,-2.8199,-2.7861,-2.7379,-2.6733,-2.6607,-2.6883,-2.6671,-2.6697,-2.6846,-2.6431,-2.6249,-2.6225,-2.6154,-2.5757,-2.5384,-2.5913,-2.5745,-2.5266,-2.5033,-2.4553,-2.4002,-2.3545,-2.3009,-2.2519,-2.2299,-2.2241,-2.2168,-2.1983,-2.1747,-2.1408,-2.0859,-2.0869,-2.1035,-2.1035,-2.1387,-2.1826,-2.2246,-2.2432,-2.2646,-2.3023,-2.3091,-2.3091,-2.3091,-2.3091,-2.3091,-2.3091,-2.3091,-2.3091,-2.3091,-2.2969,-2.2969,-2.3101,-2.275,-2.2407,-2.2097,-2.183,-2.1696,-2.1696,-2.1696,-2.1696,-2.1696,-2.1696,-2.1696,-2.1696,-2.1696,-2.1696,-2.1696,-2.1696,-2.1696,-2.1696,-2.1696,-2.1696,-2.1696,-2.1696,-2.1696,-2.1696,-2.1696,-2.1696,-2.1696,-2.1696,-2.1696,-2.1696,-3.6405,-3.6405,-3.6405,-3.6405,-3.6405,-3.6405,-3.6405,-3.6405,-3.6292,-3.5906,-3.5345,-3.4793,-3.4286,-3.3734,-3.3319,-3.3136,-3.3124,-3.3124,-3.3124,-3.3124,-3.2566,-3.1436,-3.1016,-3.049,-2.9804,-2.9792,-2.9792,-2.9792,-2.9689,-2.956,-2.9419,-2.9482,-2.9158,-2.8497,-2.8562,-2.8251,-2.7644,-2.7211,-2.7115,-2.7174,-2.6968,-2.6907,-2.6858,-2.653,-2.6274,-2.6081,-2.6106,-2.5889,-2.5673,-2.5985,-2.5877,-2.5529,-2.4971,-2.4547,-2.4053,-2.3307,-2.2685,-2.2181,-2.1971,-2.1885,-2.1881,-2.1839,-2.1855,-2.1698,-2.1243,-2.1299,-2.1494,-2.1494,-2.1836,-2.2207,-2.2471,-2.2646,-2.2799,-2.3052,-2.3091,-2.3091,-2.3091,-2.3091,-2.3091,-2.3091,-2.3091,-2.3057,-2.3013,-2.2925,-2.2882,-2.2838,-2.2485,-2.2176,-2.1963,-2.1785,-2.1696,-2.1696,-2.1696,-2.1696,-2.1696,-2.1696,-2.1696,-2.1696,-2.1696,-2.1696,-2.1696,-2.1696,-2.1696,-2.1696,-2.1696,-2.1696,-2.1696,-2.1696,-2.1778,-2.1906,-2.1751,-2.1787,-2.1906,-2.1751,-2.1696,-2.1696,-3.6405,-3.6405,-3.6405,-3.6405,-3.6405,-3.6405,-3.6405,-3.6405,-3.6405,-3.6405,-3.5881,-3.5295,-3.4776,-3.4223,-3.3671,-3.3174,-3.3124,-3.3124,-3.3124,-3.3124,-3.2591,-3.1471,-3.1219,-3.068,-2.9841,-2.9778,-2.9753,-2.9753,-2.9509,-2.938,-2.9341,-2.9157,-2.8834,-2.8379,-2.9003,-2.8669,-2.7655,-2.8048,-2.7873,-2.7307,-2.7258,-2.6979,-2.6578,-2.6481,-2.6141,-2.5742,-2.6022,-2.6069,-2.6033,-2.5996,-2.5971,-2.5799,-2.4966,-2.4509,-2.4115,-2.3327,-2.2572,-2.1953,-2.1992,-2.2002,-2.2002,-2.2002,-2.2002,-2.1982,-2.1904,-2.1914,-2.1943,-2.1943,-2.2275,-2.2568,-2.2568,-2.2838,-2.3091,-2.3091,-2.3091,-2.3091,-2.3091,-2.3091,-2.3091,-2.3091,-2.3091,-2.3013,-2.2803,-2.2925,-2.2828,-2.2353,-2.2185,-2.1963,-2.1687,-2.1696,-2.1696,-2.1696,-2.1696,-2.1696,-2.1696,-2.1696,-2.1696,-2.1696,-2.1696,-2.1696,-2.1696,-2.1696,-2.1696,-2.1696,-2.1733,-2.1723,-2.1696,-2.1769,-2.1989,-2.2245,-2.1925,-2.1998,-2.2245,-2.1925,-2.1778,-2.1742,-3.6405,-3.6405,-3.6405,-3.6405,-3.6405,-3.6405,-3.6405,-3.6405,-3.6405,-3.6405,-3.5881,-3.5295,-3.4776,-3.4223,-3.3671,-3.3174,-3.3124,-3.3124,-3.3124,-3.3124,-3.2724,-3.1838,-3.1361,-3.0732,-2.9902,-2.9615,-2.9392,-2.926,-2.9353,-2.9223,-2.891,-2.9052,-2.8939,-2.8699,-2.8588,-2.8513,-2.848,-2.7761,-2.773,-2.8165,-2.7755,-2.7767,-2.7936,-2.7105,-2.672,-2.6575,-2.6214,-2.5829,-2.5433,-2.5158,-2.4877,-2.4536,-2.4081,-2.3675,-2.3328,-2.3168,-2.2755,-2.2451,-2.274,-2.2818,-2.2818,-2.2818,-2.2818,-2.2652,-2.2031,-2.2139,-2.2373,-2.2373,-2.2672,-2.2955,-2.2955,-2.3033,-2.3091,-2.3091,-2.3091,-2.3091,-2.3091,-2.3091,-2.3091,-2.3091,-2.3091,-2.3013,-2.2803,-2.2662,-2.2353,-2.1909,-2.2008,-2.1963,-2.1687,-2.1696,-2.1696,-2.1696,-2.1696,-2.1696,-2.1696,-2.1696,-2.1696,-2.1696,-2.1696,-2.1696,-2.1696,-2.1696,-2.1696,-2.1705,-2.2016,-2.197,-2.1742,-2.2382,-2.2501,-2.23,-2.2547,-2.2492,-2.2309,-2.2556,-2.2437,-2.2153,-3.6405,-3.6405,-3.6405,-3.6405,-3.6405,-3.6405,-3.6405,-3.6405,-3.6317,-3.6006,-3.5956,-3.5529,-3.4449,-3.4311,-3.396,-3.3156,-3.3124,-3.3124,-3.3124,-3.3124,-3.2775,-3.2084,-3.1369,-3.0618,-2.9966,-2.9401,-2.9118,-2.9091,-2.9118,-2.8988,-2.8791,-2.8816,-2.8736,-2.8633,-2.8551,-2.8587,-2.8621,-2.8169,-2.8176,-2.8486,-2.821,-2.8114,-2.8041,-2.7198,-2.6492,-2.5908,-2.5589,-2.5175,-2.486,-2.5375,-2.5122,-2.45,-2.3908,-2.3722,-2.3689,-2.3215,-2.2945,-2.2818,-2.3033,-2.3091,-2.3091,-2.3091,-2.3091,-2.2984,-2.2588,-2.2656,-2.2812,-2.2812,-2.2945,-2.3091,-2.3091,-2.3091,-2.3091,-2.3091,-2.3091,-2.3091,-2.3091,-2.3091,-2.3091,-2.3091,-2.3013,-2.2882,-2.2618,-2.2264,-2.1998,-2.1919,-2.1919,-2.183,-2.1696,-2.1696,-2.1696,-2.1696,-2.1879,-2.1879,-2.1696,-2.208,-2.208,-2.1696,-2.1879,-2.208,-2.2263,-2.2062,-2.197,-2.197,-2.1989,-2.1989,-2.2007,-2.2428,-2.2702,-2.2858,-2.2895,-2.2885,-2.2867,-2.2895,-2.2767,-2.2547,-3.6405,-3.6405,-3.6405,-3.6405,-3.6405,-3.6405,-3.6405,-3.6405,-3.6157,-3.5571,-3.5943,-3.5629,-3.4073,-3.4223,-3.4073,-3.3156,-3.3124,-3.3124,-3.3124,-3.3081,-3.2769,-3.2264,-3.1368,-3.0589,-3.0045,-2.9269,-2.894,-2.9013,-2.8882,-2.8803,-2.8764,-2.8578,-2.851,-2.851,-2.8657,-2.8657,-2.851,-2.8685,-2.8657,-2.851,-2.851,-2.8198,-2.763,-2.6938,-2.5953,-2.4866,-2.4653,-2.4387,-2.4306,-2.5523,-2.5378,-2.4542,-2.3814,-2.3902,-2.4112,-2.3353,-2.3091,-2.3091,-2.3091,-2.3091,-2.3091,-2.3091,-2.3091,-2.3091,-2.3091,-2.3091,-2.3091,-2.3091,-2.3091,-2.3091,-2.3091,-2.3091,-2.3091,-2.3091,-2.3091,-2.3091,-2.3091,-2.3091,-2.3091,-2.3091,-2.2882,-2.2618,-2.2353,-2.1963,-2.1776,-2.2008,-2.183,-2.1696,-2.1696,-2.1696,-2.1696,-2.1696,-2.2071,-2.2126,-2.1797,-2.2529,-2.2602,-2.2007,-2.2327,-2.2593,-2.2794,-2.251,-2.2346,-2.2272,-2.208,-2.2108,-2.2346,-2.2547,-2.295,-2.3471,-2.3215,-2.327,-2.3453,-2.3123,-2.3004,-2.2959,-3.6405,-3.6405,-3.6405,-3.6405,-3.6405,-3.6405,-3.6405,-3.6405,-3.6157,-3.5571,-3.5558,-3.5157,-3.4035,-3.3533,-3.3244,-3.3093,-3.3124,-3.3124,-3.3124,-3.2896,-3.2643,-3.2364,-3.1596,-3.0804,-3.0115,-2.9542,-2.9008,-2.859,-2.8724,-2.8724,-2.855,-2.851,-2.851,-2.851,-2.855,-2.855,-2.851,-2.855,-2.851,-2.851,-2.851,-2.8198,-2.7591,-2.634,-2.5451,-2.4791,-2.4033,-2.3755,-2.3815,-2.4002,-2.3747,-2.3351,-2.3221,-2.3217,-2.3266,-2.3144,-2.3091,-2.3091,-2.3091,-2.3091,-2.3091,-2.3091,-2.3091,-2.3091,-2.3091,-2.3091,-2.3091,-2.3091,-2.3091,-2.3091,-2.3091,-2.3091,-2.3091,-2.3091,-2.3091,-2.3091,-2.3091,-2.3091,-2.3091,-2.3091,-2.2706,-2.2353,-2.2141,-2.1874,-2.1741,-2.1731,-2.1741,-2.1696,-2.1696,-2.1696,-2.1696,-2.1696,-2.2071,-2.2254,-2.2199,-2.2675,-2.3023,-2.3251,-2.3306,-2.2995,-2.2373,-2.2684,-2.262,-2.2364,-2.2968,-2.2876,-2.241,-2.3474,-2.3767,-2.3526,-2.3877,-2.3804,-2.3489,-2.3435,-2.3416,-2.3407,-3.6405,-3.6405,-3.6405,-3.6405,-3.6405,-3.6405,-3.6405,-3.6405,-3.6103,-3.5157,-3.5307,-3.4969,-3.3596,-3.3219,-3.3124,-3.3124,-3.3124,-3.3124,-3.3124,-3.2853,-3.268,-3.255,-3.1706,-3.0901,-3.0295,-2.9651,-2.9039,-2.851,-2.8578,-2.8578,-2.851,-2.851,-2.851,-2.851,-2.851,-2.851,-2.851,-2.851,-2.851,-2.851,-2.851,-2.8198,-2.7577,-2.65,-2.549,-2.4531,-2.3913,-2.3557,-2.3443,-2.3987,-2.3702,-2.3091,-2.3091,-2.3091,-2.3091,-2.3091,-2.3091,-2.3091,-2.3091,-2.3091,-2.3091,-2.3091,-2.3091,-2.3091,-2.3091,-2.3091,-2.3091,-2.3091,-2.3091,-2.3091,-2.3091,-2.3091,-2.3091,-2.3091,-2.3091,-2.3091,-2.3091,-2.3091,-2.3013,-2.275,-2.2441,-2.2132,-2.1919,-2.1785,-2.1696,-2.1696,-2.1696,-2.1696,-2.1696,-2.1696,-2.1696,-2.1696,-2.23,-2.2519,-2.2282,-2.3189,-2.3483,-2.3169,-2.3666,-2.3694,-2.3345,-2.3251,-2.3133,-2.2968,-2.3105,-2.3087,-2.2995,-2.3593,-2.384,-2.3904,-2.4128,-2.4091,-2.3877,-2.3877,-2.3877,-2.3849]},{"header":{"parameterUnit":"m.s-1","parameterCategory":1,"la1":30.6,"la2":28.766,"lo1":-90.7593,"lo2":-88.6598,"dy":0.0162,"dx":0.0183,"nx":116,"ny":114,"refTime":"2023-04-16T12:00:00:Z","depth":0,"parameterNumber":3,"parameterNumberName":"V-component_of_WINDS"},"data":[0.0,0.0,0.0,0.0,0.0,0.0,0.0,0.0,0.0,0.0,0.0,0.0,0.0,0.0,0.0,0.0,0.0,0.0,0.0,0.0,0.0,0.0,0.0,0.0,0.0,0.0,0.0,0.0,0.0,0.0,0.0,0.0,0.0,0.0,0.0,0.0,0.0,0.0,0.0,0.0,0.0,0.0,0.0,0.0,0.0,0.0,0.0,0.0,0.0,0.0,0.0,0.0,0.0,0.0,0.0,0.0,0.0,0.0,0.0,0.0,0.0,0.0,0.0,0.0,0.0,0.0,0.0,0.0,0.0,0.0,0.0,0.0,0.0,0.0,0.0,0.0,0.0,0.0,0.0,0.0,0.0,0.0,0.0,0.0,0.0,0.0,0.0,0.0,0.0,0.0,0.0,0.0,0.0,0.0,0.0,0.0,0.0,0.0,0.0,0.0,0.0,0.0,0.0,0.0,0.0,0.0,0.0,0.0,0.0,0.0,0.0,0.0,0.0,0.0,0.0,0.0,0.0,0.0,0.0,0.0,0.0,0.0,0.0,0.0,0.0,0.0,0.0,0.0,0.0,0.0,0.0,0.0,0.0,0.0,0.0,0.0,0.0,0.0,0.0,0.0,0.0,0.0,0.0,0.0,0.0,0.0,0.0,0.0,0.0,0.0,0.0,0.0,0.0,0.0,0.0,0.0,0.0,0.0,0.0,0.0,0.0,0.0,0.0,0.0,0.0,0.0,0.0,0.0,0.0,0.0,0.0,0.0,0.0,0.0,0.0,0.0,0.0,0.0,0.0,0.0,0.0,0.0,0.0,0.0,0.0,0.0,0.0,0.0,0.0,0.0,0.0,0.0,0.0,0.0,0.0,0.0,0.0,0.0,0.0,0.0,0.0,0.0,0.0,0.0,0.0,0.0,0.0,0.0,0.0,0.0,0.0,0.0,0.0,0.0,0.0,0.0,0.0,0.0,0.0,0.0,0.0,0.0,0.0,0.0,0.0,0.0,0.0,0.0,0.0,0.0,0.0,0.0,0.0,0.0,0.0,0.0,0.0,0.0,0.0,0.0,0.0,0.0,0.0,0.0,0.0,0.0,0.0,0.0,0.0,0.0,0.0,0.0,0.0,0.0,0.0,0.0,0.0,0.0,0.0,0.0,0.0,0.0,0.0,0.0,0.0,0.0,0.0,0.0,0.0,0.0,0.0,0.0,0.0,0.0,0.0,0.0,0.0,0.0,0.0,0.0,0.0,0.0,0.0,0.0,0.0,0.0,0.0,0.0,0.0,0.0,0.0,0.0,0.0,0.0,0.0,0.0,0.0,0.0,0.0,0.0,0.0,0.0,0.0,0.0,0.0,0.0,0.0,0.0,0.0,0.0,0.0,0.0,0.0,0.0,0.0,0.0,0.0,0.0,0.0,0.0,0.0,0.0,0.0,0.0,0.0,0.0,0.0,0.0,0.0,0.0,0.0,0.0,0.0,0.0,0.0,0.0,0.0,0.0,0.0,0.0,0.0,0.0,0.0,0.0,0.0,0.0,0.0,0.0,0.0,0.0,0.0,0.0,0.0,0.0,0.0,0.0,0.0,0.0,0.0,0.0,0.0,0.0,0.0,0.0,0.0,0.0,0.0,0.0,0.0,0.0,0.0,0.0,0.0,0.0,0.0,0.0,0.0,0.0,0.0,0.0,0.0,0.0,0.0,0.0,0.0,0.0,0.0,0.0,0.0,0.0,0.0,0.0,0.0,0.0,0.0,0.0,0.0,0.0,0.0,0.0,0.0,0.0,0.0,0.0,0.0,0.0,0.0,0.0,0.0,0.0,0.0,0.0,0.0,0.0,0.0,0.0,0.0,0.0,0.0,0.0,0.0,0.0,0.0,0.0,0.0,0.0,0.0,0.0,0.0,0.0,0.0,0.0,0.0,0.0,0.0,0.0,0.0,0.0,0.0,0.0,0.0,0.0,0.0,0.0,0.0,0.0,0.0,0.0,0.0,0.0,0.0,0.0,0.0,0.0,0.0,0.0,0.0,0.0,0.0,0.0,0.0,0.0,0.0,0.0,0.0,0.0,0.0,0.0,0.0,0.0,0.0,0.0,0.0,0.0,0.0,0.0,0.0,0.0,0.0,0.0,0.0,0.0,0.0,0.0,0.0,0.0,0.0,0.0,0.0,0.0,0.0,0.0,0.0,0.0,0.0,0.0,0.0,0.0,0.0,0.0,0.0,0.0,0.0,0.0,0.0,0.0,0.0,0.0,0.0,0.0,0.0,0.0,0.0,0.0,0.0,0.0,0.0,0.0,0.0,0.0,0.0,0.0,0.0,0.0,0.0,0.0,0.0,0.0,0.0,0.0,0.0,0.0,0.0,0.0,0.0,0.0,0.0,0.0,0.0,0.0,0.0,0.0,0.0,0.0,0.0,0.0,0.0,0.0,0.0,0.0,0.0,0.0,0.0,0.0,0.0,0.0,0.0,0.0,0.0,0.0,0.0,0.0,0.0,0.0,0.0,0.0,0.0,0.0,0.0,0.0,0.0,0.0,0.0,0.0,0.0,0.0,0.0,0.0,0.0,0.0,0.0,0.0,0.0,0.0,0.0,0.0,0.0,0.0,0.0,0.0,0.0,0.0,0.0,0.0,0.0,0.0,0.0,0.0,0.0,0.0,0.0,0.0,0.0,0.0,0.0,0.0,0.0,0.0,0.0,0.0,0.0,0.0,0.0,0.0,0.0,0.0,0.0,0.0,0.0,0.0,0.0,0.0,0.0,0.0,0.0,0.0,0.0,0.0,0.0,0.0,0.0,0.0,0.0,0.0,0.0,0.0,0.0,0.0,0.0,0.0,0.0,0.0,0.0,0.0,0.0,0.0,0.0,0.0,0.0,0.0,0.0,0.0,0.0,0.0,0.0,0.0,0.0,0.0,0.0,0.0,0.0,0.0,0.0,0.0,0.0,0.0,0.0,0.0,0.0,0.0,0.0,0.0,0.0,0.0,0.0,0.0,0.0,0.0,0.0,0.0,0.0,0.0,0.0,0.0,0.0,0.0,0.0,0.0,0.0,0.0,0.0,0.0,0.0,0.0,0.0,0.0,0.0,0.0,0.0,0.0,0.0,0.0,0.0,0.0,0.0,0.0,0.0,0.0,0.0,0.0,0.0,0.0,0.0,0.0,0.0,0.0,0.0,0.0,0.0,0.0,0.0,0.0,0.0,0.0,0.0,0.0,0.0,0.0,0.0,0.0,0.0,0.0,0.0,0.0,0.0,0.0,0.0,0.0,0.0,0.0,0.0,0.0,0.0,0.0,0.0,0.0,0.0,0.0,0.0,0.0,0.0,0.0,0.0,0.0,0.0,0.0,0.0,0.0,0.0,0.0,0.0,0.0,0.0,0.0,0.0,0.0,0.0,0.0,0.0,0.0,0.0,0.0,0.0,0.0,0.0,0.0,0.0,0.0,0.0,0.0,0.0,0.0,0.0,0.0,0.0,0.0,0.0,0.0,0.0,0.0,0.0,0.0,0.0,0.0,0.0,0.0,0.0,0.0,0.0,0.0,0.0,0.0,0.0,0.0,0.0,0.0,0.0,0.0,0.0,0.0,0.0,0.0,0.0,0.0,0.0,0.0,0.0,0.0,0.0,0.0,0.0,0.0,0.0,0.0,0.0,0.0,0.0,0.0,0.0,0.0,0.0,0.0,0.0,0.0,0.0,0.0,0.0,0.0,0.0,0.0,0.0,0.0,0.0,0.0,0.0,0.0,0.0,0.0,0.0,0.0,0.0,0.0,0.0,0.0,0.0,0.0,0.0,0.0,0.0,0.0,0.0,0.0,0.0,0.0,0.0,0.0,0.0,0.0,0.0,0.0,0.0,0.0,0.0,0.0,0.0,0.0,0.0,0.0,0.0,0.0,0.0,0.0,0.0,0.0,0.0,0.0,0.0,0.0,0.0,0.0,0.0,0.0,0.0,0.0,0.0,0.0,0.0,0.0,0.0,0.0,0.0,0.0,0.0,0.0,0.0,0.0,0.0,0.0,0.0,0.0,0.0,0.0,0.0,0.0,0.0,0.0,0.0,0.0,0.0,0.0,0.0,0.0,0.0,0.0,0.0,0.0,0.0,0.0,0.0,0.0,0.0,0.0,0.0,0.0,0.0,0.0,0.0,0.0,0.0,0.0,0.0,0.0,0.0,0.0,0.0,0.0,0.0,0.0,0.0,0.0,0.0,0.0,0.0,0.0,0.0,0.0,0.0,0.0,0.0,0.0,0.0,0.0,0.0,0.0,0.0,0.0,0.0,0.0,0.0,0.0,0.0,0.0,0.0,0.0,0.0,0.0,0.0,0.0,0.0,0.0,0.0,0.0,0.0,0.0,0.0,0.0,0.0,0.0,0.0,0.0,0.0,0.0,0.0,0.0,0.0,0.0,0.0,0.0,0.0,0.0,0.0,0.0,0.0,0.0,0.0,0.0,0.0,0.0,0.0,0.0,0.0,0.0,0.0,0.0,0.0,0.0,0.0,0.0,0.0,0.0,0.0,0.0,0.0,0.0,0.0,0.0,0.0,0.0,0.0,0.0,0.0,0.0,0.0,0.0,0.0,0.0,0.0,0.0,0.0,0.0,0.0,0.0,0.0,0.0,0.0,0.0,0.0,0.0,0.0,0.0,0.0,0.0,0.0,0.0,0.0,0.0,0.0,0.0,0.0,0.0,0.0,0.0,0.0,0.0,0.0,0.0,0.0,0.0,0.0,0.0,0.0,0.0,0.0,0.0,0.0,0.0,0.0,0.0,0.0,0.0,0.0,0.0,0.0,0.0,0.0,0.0,0.0,0.0,0.0,0.0,0.0,0.0,0.0,0.0,0.0,0.0,0.0,0.0,0.0,0.0,0.0,0.0,0.0,0.0,0.0,0.0,0.0,0.0,0.0,0.0,0.0,0.0,0.0,0.0,0.0,0.0,0.0,0.0,0.0,0.0,0.0,0.0,0.0,0.0,0.0,0.0,0.0,0.0,0.0,0.0,0.0,0.0,0.0,0.0,0.0,0.0,0.0,0.0,0.0,0.0,0.0,0.0,0.0,0.0,0.0,0.0,0.0,0.0,0.0,0.0,0.0,0.0,0.0,0.0,0.0,0.0,0.0,0.0,0.0,0.0,0.0,0.0,0.0,0.0,0.0,0.0,0.0,0.0,0.0,0.0,0.0,0.0,0.0,0.0,0.0,0.0,0.0,0.0,0.0,0.0,0.0,0.0,0.0,0.0,0.0,0.0,0.0,0.0,0.0,0.0,0.0,0.0,0.0,0.0,0.0,0.0,0.0,0.0,0.0,0.0,0.0,0.0,0.0,0.0,0.0,0.0,0.0,0.0,0.0,0.0,0.0,0.0,0.0,0.0,0.0,0.0,0.0,0.0,0.0,0.0,0.0,0.0,0.0,0.0,0.0,0.0,0.0,0.0,0.0,0.0,0.0,0.0,0.0,0.0,0.0,0.0,0.0,0.0,0.0,0.0,0.0,0.0,0.0,0.0,0.0,0.0,0.0,0.0,0.0,0.0,0.0,0.0,0.0,0.0,0.0,0.0,0.0,0.0,0.0,0.0,0.0,0.0,0.0,0.0,0.0,0.0,0.0,0.0,0.0,0.0,0.0,0.0,0.0,0.0,0.0,0.0,0.0,0.0,0.0,0.0,0.0,0.0,0.0,0.0,0.0,0.0,0.0,0.0,0.0,0.0,0.0,0.0,0.0,0.0,0.0,0.0,0.0,0.0,0.0,0.0,0.0,0.0,0.0,0.0,0.0,0.0,0.0,0.0,0.0,0.0,0.0,0.0,0.0,0.0,0.0,0.0,0.0,0.0,0.0,0.0,0.0,0.0,0.0,0.0,0.0,0.0,0.0,0.0,0.0,0.0,0.0,0.0,0.0,0.0,0.0,0.0,0.0,0.0,0.0,0.0,0.0,0.0,0.0,0.0,0.0,0.0,0.0,0.0,0.0,0.0,0.0,0.0,0.0,0.0,0.0,0.0,0.0,0.0,0.0,0.0,0.0,0.0,0.0,0.0,0.0,0.0,0.0,0.0,0.0,0.0,0.0,0.0,0.0,0.0,0.0,0.0,0.0,0.0,0.0,0.0,1.4716,0.0,0.0,0.0,0.0,0.0,0.0,0.0,0.0,0.0,0.0,0.0,0.0,0.0,0.0,0.0,0.0,0.0,0.0,0.0,0.0,0.0,0.0,0.0,0.0,0.0,0.0,0.0,0.0,0.0,0.0,0.0,0.0,0.0,0.0,0.0,0.0,0.0,0.0,0.0,0.0,0.0,0.0,0.0,0.0,0.0,0.0,0.0,0.0,0.0,0.0,0.0,0.0,0.0,0.0,0.0,0.0,0.0,0.0,0.0,0.0,0.0,0.0,0.0,0.0,0.0,0.0,0.0,0.0,0.0,0.0,0.0,0.0,0.0,0.0,0.0,0.0,0.0,0.0,0.0,0.0,0.0,0.0,0.0,0.0,0.0,0.0,0.0,0.0,0.0,0.0,0.0,0.0,0.0,0.0,0.0,0.0,0.0,0.0,0.0,0.0,0.0,0.0,0.0,0.0,0.0,0.0,0.0,0.0,0.0,0.0,0.0,0.0,0.0,0.0,0.0,0.0,1.5296,0.0,0.0,0.0,0.0,0.0,0.0,0.0,0.0,0.0,0.0,0.0,0.0,0.0,0.0,0.0,0.0,0.0,0.0,0.0,0.0,0.0,0.0,0.0,0.0,0.0,0.0,0.0,0.0,0.0,0.0,0.0,0.0,0.0,0.0,0.0,0.0,0.0,0.0,0.0,0.0,0.0,0.0,0.0,0.0,0.0,0.0,0.0,0.0,0.0,0.0,0.0,0.0,0.0,0.0,0.0,0.0,0.0,0.0,0.0,0.0,0.0,0.0,0.0,0.0,0.0,0.0,0.0,0.0,0.0,0.0,0.0,0.0,0.0,0.0,0.0,0.0,0.0,0.0,0.0,0.0,0.0,0.0,0.0,0.0,0.0,0.0,0.0,0.0,0.0,0.0,0.0,0.0,0.0,0.0,0.0,0.0,0.0,0.0,0.0,0.0,0.0,0.0,0.0,0.0,0.0,0.0,0.0,0.0,1.7827,1.796,1.765,1.7982,1.8227,1.8383,1.7702,1.7138,1.6677,0.0,0.0,0.0,0.0,0.0,0.0,0.0,0.0,0.0,0.0,0.0,0.0,0.0,0.0,0.0,0.0,0.0,0.0,0.0,0.0,0.0,0.0,0.0,0.0,0.0,0.0,0.0,0.0,0.0,0.0,0.0,0.0,0.0,0.0,0.0,0.0,0.0,0.0,0.0,3.0092,3.0264,3.0194,2.9866,0.0,0.0,0.0,0.0,0.0,0.0,0.0,0.0,0.0,0.0,0.0,0.0,0.0,0.0,0.0,0.0,0.0,0.0,0.0,0.0,0.0,0.0,0.0,0.0,0.0,0.0,0.0,0.0,0.0,0.0,0.0,0.0,0.0,0.0,0.0,0.0,0.0,0.0,0.0,0.0,0.0,0.0,0.0,0.0,2.1258,2.053,0.0,0.0,0.0,0.0,0.0,0.0,0.0,0.0,0.0,0.0,0.0,0.0,0.0,0.0,1.7964,1.8575,1.8743,1.8483,1.9049,1.9193,1.8882,1.9223,1.9368,1.9418,1.9277,0.0,1.8351,1.8263,0.0,0.0,0.0,0.0,0.0,0.0,0.0,0.0,0.0,0.0,0.0,0.0,0.0,0.0,0.0,0.0,0.0,0.0,0.0,0.0,0.0,0.0,0.0,0.0,0.0,0.0,0.0,0.0,0.0,0.0,0.0,0.0,0.0,0.0,0.0,0.0,2.9207,2.9985,3.0782,3.09,3.0937,3.0858,2.932,2.8199,2.7431,2.6869,0.0,0.0,0.0,0.0,0.0,0.0,0.0,0.0,0.0,0.0,0.0,0.0,0.0,0.0,0.0,0.0,0.0,0.0,0.0,0.0,0.0,0.0,0.0,0.0,0.0,0.0,0.0,0.0,0.0,0.0,0.0,0.0,0.0,0.0,0.0,0.0,0.0,0.0,0.0,2.167,2.2223,2.0987,2.1383,2.1126,0.0,0.0,0.0,0.0,0.0,0.0,0.0,0.0,0.0,1.8588,1.8531,1.8571,1.8707,1.9189,1.9357,1.9227,1.9643,1.9796,1.9659,1.9804,1.9982,2.0107,2.0336,2.0136,1.9623,1.8895,1.8271,1.759,0.0,0.0,0.0,0.0,0.0,1.5828,0.0,0.0,0.0,0.0,0.0,0.0,0.0,0.0,0.0,0.0,0.0,0.0,0.0,0.0,0.0,2.7644,0.0,0.0,0.0,0.0,0.0,0.0,0.0,0.0,0.0,0.0,0.0,0.0,3.0547,3.0916,3.173,3.1767,3.1789,3.1789,3.1789,3.0827,2.9184,2.8746,2.7905,0.0,0.0,0.0,0.0,0.0,0.0,0.0,0.0,0.0,0.0,0.0,0.0,0.0,0.0,0.0,0.0,0.0,0.0,0.0,0.0,0.0,0.0,0.0,0.0,0.0,0.0,0.0,0.0,0.0,0.0,0.0,0.0,0.0,0.0,0.0,0.0,0.0,0.0,2.3303,2.3709,2.1898,2.3135,2.3251,0.0,0.0,0.0,0.0,0.0,0.0,2.0159,1.9861,1.9958,2.0572,2.0394,2.0338,2.0547,2.0771,2.0859,2.0771,2.102,2.1132,2.1132,2.1132,2.1242,2.1428,2.1378,2.1146,2.0743,1.9536,1.8735,1.8211,1.7654,1.736,1.7291,1.7291,1.744,1.7741,0.0,0.0,0.0,0.0,0.0,0.0,0.0,0.0,0.0,0.0,0.0,0.0,0.0,0.0,2.6967,2.7972,2.8283,2.8377,0.0,0.0,0.0,0.0,0.0,0.0,0.0,0.0,0.0,3.2092,3.3463,3.4171,3.4207,3.44,3.4505,3.4505,3.4505,3.365,3.2104,3.1075,3.0597,3.0384,0.0,0.0,0.0,0.0,0.0,0.0,0.0,0.0,0.0,0.0,0.0,0.0,0.0,0.0,0.0,0.0,0.0,0.0,0.0,0.0,0.0,0.0,0.0,0.0,0.0,0.0,0.0,0.0,0.0,0.0,0.0,0.0,0.0,0.0,0.0,0.0,0.0,0.0,0.0,2.4726,2.6622,0.0,0.0,0.0,0.0,2.2894,2.3238,2.3242,2.2836,2.3367,2.3904,2.434,2.4432,2.4491,2.4509,2.4417,2.4194,2.3863,2.3881,2.389,2.389,2.389,2.389,2.384,2.2837,2.223,2.1855,2.0743,1.9693,1.8742,1.8369,1.8065,1.7771,1.7771,1.7985,1.8279,0.0,0.0,0.0,0.0,0.0,0.0,0.0,0.0,0.0,0.0,0.0,0.0,0.0,2.7761,2.8983,2.9346,3.0226,3.061,3.0269,0.0,0.0,0.0,0.0,0.0,0.0,0.0,3.1738,3.2643,3.3611,3.4259,3.4607,3.5039,3.5284,3.5297,3.5735,3.5452,0.0,0.0,0.0,0.0,0.0,0.0,0.0,0.0,0.0,0.0,0.0,0.0,0.0,0.0,0.0,0.0,0.0,0.0,0.0,0.0,0.0,0.0,0.0,0.0,0.0,0.0,0.0,0.0,0.0,0.0,0.0,0.0,0.0,0.0,0.0,0.0,0.0,0.0,0.0,0.0,0.0,0.0,0.0,2.7338,2.8625,0.0,2.6499,2.6025,2.5692,2.5399,2.5048,2.499,2.5365,2.513,2.5102,2.5472,2.5328,2.5251,2.5251,2.4882,2.4679,2.4532,2.4216,2.4088,2.4079,2.3773,2.3645,2.3587,2.2946,2.2423,2.2122,2.1698,2.0626,1.9145,1.878,1.8565,1.8446,1.8446,1.8533,1.8605,0.0,0.0,0.0,0.0,0.0,0.0,0.0,0.0,0.0,0.0,0.0,2.6557,2.7369,2.9104,3.036,3.0817,3.1738,3.2061,3.1509,0.0,0.0,0.0,0.0,0.0,0.0,3.2198,3.2975,3.391,3.4293,3.4751,3.5319,3.5456,0.0,0.0,0.0,0.0,0.0,0.0,0.0,0.0,0.0,0.0,3.0647,0.0,0.0,0.0,0.0,0.0,0.0,0.0,0.0,0.0,0.0,0.0,0.0,0.0,0.0,0.0,0.0,0.0,0.0,0.0,0.0,0.0,0.0,0.0,0.0,0.0,0.0,0.0,0.0,0.0,0.0,0.0,0.0,0.0,0.0,0.0,2.9312,2.8686,3.011,3.0376,2.8544,2.8334,2.8093,2.7596,2.7221,2.717,2.754,2.7208,2.7045,2.7127,2.691,2.6622,2.6333,2.5994,2.5783,2.5649,2.5312,2.5101,2.4948,2.4622,2.4412,2.4212,2.3505,2.3028,2.2711,2.2419,2.1476,2.0256,1.9912,1.9583,1.9363,1.9675,1.9766,1.9716,0.0,0.0,0.0,0.0,0.0,0.0,0.0,0.0,0.0,0.0,2.6445,2.8043,2.9175,3.0006,3.0985,3.2212,3.2582,3.2497,0.0,3.2466,0.0,0.0,0.0,0.0,3.3979,3.4581,3.5181,3.5834,3.5653,3.5874,0.0,0.0,0.0,0.0,0.0,0.0,0.0,0.0,0.0,0.0,0.0,0.0,3.2605,0.0,0.0,0.0,0.0,0.0,0.0,0.0,0.0,0.0,0.0,0.0,0.0,0.0,0.0,0.0,0.0,0.0,0.0,0.0,0.0,0.0,0.0,0.0,0.0,0.0,0.0,0.0,0.0,0.0,0.0,0.0,0.0,0.0,2.8069,2.9177,2.9725,2.8887,3.1122,3.1857,2.9642,3.0626,3.0833,2.9477,2.9766,2.9818,2.9373,2.9756,2.9787,2.9342,2.9311,2.8866,2.7976,2.7886,2.7707,2.733,2.7299,2.705,2.6615,2.6584,2.6324,2.5854,2.4778,2.4157,2.3765,2.2917,2.2376,2.2031,2.1828,2.115,2.0475,2.1364,2.1702,2.154,0.0,0.0,0.0,0.0,0.0,0.0,0.0,0.0,0.0,0.0,2.678,2.8454,2.9214,3.128,3.2779,3.315,3.3844,0.0,0.0,0.0,0.0,0.0,0.0,0.0,3.3994,3.4171,3.433,3.454,3.4892,3.5185,0.0,0.0,0.0,0.0,0.0,0.0,0.0,0.0,0.0,0.0,0.0,0.0,3.3984,0.0,0.0,0.0,0.0,0.0,0.0,0.0,0.0,0.0,0.0,0.0,0.0,0.0,0.0,0.0,0.0,0.0,0.0,0.0,0.0,0.0,0.0,0.0,0.0,0.0,0.0,0.0,0.0,0.0,0.0,0.0,0.0,2.9301,2.9849,3.0543,3.1391,3.2447,3.2664,3.2602,3.2282,3.2012,3.1567,3.0864,3.0615,3.0439,3.0315,3.0108,2.9942,2.9808,2.9477,2.9187,2.8928,2.8255,2.7862,2.7728,2.7076,2.6786,2.6825,2.6156,2.5868,2.5853,2.5244,2.4895,2.4814,2.4545,2.3988,2.3217,2.2497,2.2057,2.1799,2.1686,2.1278,2.0703,0.0,0.0,0.0,0.0,0.0,0.0,0.0,0.0,0.0,0.0,2.7527,2.9464,3.0077,3.2207,3.3614,3.3715,3.3995,0.0,0.0,0.0,0.0,0.0,0.0,3.4335,3.4617,3.4335,3.4233,3.4233,3.429,3.4599,0.0,0.0,0.0,0.0,0.0,0.0,0.0,0.0,0.0,0.0,0.0,0.0,3.5228,3.3558,3.3269,3.3696,3.3002,3.2834,3.281,3.2197,0.0,0.0,0.0,0.0,0.0,0.0,0.0,0.0,0.0,0.0,0.0,0.0,0.0,0.0,0.0,0.0,0.0,0.0,0.0,0.0,0.0,0.0,0.0,0.0,2.9849,3.0708,3.1443,3.1609,3.2116,3.3358,3.3047,3.2758,3.2809,3.2344,3.1774,3.1133,3.0833,3.0605,3.0408,3.0139,2.9818,2.9435,2.9342,2.9032,2.8452,2.7914,2.76,2.7488,2.6759,2.6449,2.6475,2.5937,2.5676,0.0,2.5317,2.52,2.52,2.5338,2.5031,0.0,0.0,0.0,0.0,0.0,2.2168,2.1286,0.0,0.0,0.0,0.0,0.0,0.0,0.0,0.0,0.0,0.0,0.0,3.0535,3.1134,3.2639,3.3683,3.3859,3.3486,3.3047,0.0,0.0,0.0,3.3419,3.4185,3.4846,3.5385,3.4711,3.4354,3.4279,3.3664,3.4038,0.0,0.0,0.0,0.0,0.0,0.0,0.0,0.0,0.0,0.0,0.0,0.0,3.6416,3.4708,3.4462,3.4926,3.4374,3.3935,3.374,3.4123,0.0,0.0,0.0,0.0,0.0,0.0,0.0,0.0,0.0,0.0,0.0,0.0,0.0,0.0,0.0,0.0,0.0,0.0,0.0,0.0,0.0,0.0,0.0,0.0,3.1412,3.2142,3.2607,3.2318,3.2225,3.269,3.27,3.2592,3.2163,3.2091,3.1743,3.0833,3.076,3.0543,3.0025,0.0,0.0,0.0,0.0,2.8618,2.744,2.7326,2.716,2.6928,2.6414,2.6075,2.5946,2.5903,2.5647,2.5285,2.5285,2.5285,2.5285,2.5559,2.5644,2.5601,2.538,2.4702,2.3909,2.4345,2.3677,0.0,0.0,0.0,0.0,0.0,0.0,0.0,0.0,0.0,0.0,2.5523,2.7987,2.9889,3.0418,3.2064,3.3164,3.3195,3.3358,3.3409,0.0,0.0,3.3604,3.4231,3.4951,3.51,3.4713,3.4023,3.3425,3.2901,3.2766,3.311,0.0,0.0,0.0,0.0,0.0,0.0,0.0,0.0,0.0,0.0,0.0,0.0,3.7586,3.5859,3.5843,3.6634,3.6128,3.6395,3.6998,3.6659,3.6229,3.5701,3.5203,0.0,0.0,0.0,0.0,0.0,0.0,0.0,0.0,0.0,0.0,0.0,0.0,0.0,0.0,0.0,0.0,0.0,0.0,0.0,0.0,3.0077,3.1205,3.2142,3.2607,3.2597,3.2758,3.3203,3.2944,3.283,3.3099,3.2799,3.2219,3.1309,3.1247,3.0874,3.0046,2.9994,0.0,2.9187,2.8897,2.8541,2.8111,2.7359,2.7079,2.7215,0.0,0.0,2.6109,2.5829,2.5688,2.577,2.577,2.577,2.577,2.5812,2.5853,2.5853,2.577,2.5178,2.4376,2.4461,2.3816,2.2859,0.0,0.0,0.0,0.0,0.0,0.0,0.0,0.0,0.0,0.0,2.7548,2.9188,2.9835,3.0785,3.1573,3.1955,3.202,0.0,0.0,3.3125,3.3784,3.4474,3.513,3.519,3.4518,3.3829,3.317,3.2512,3.2153,3.2497,0.0,0.0,0.0,0.0,0.0,0.0,0.0,0.0,0.0,0.0,0.0,0.0,3.9642,3.7727,3.7271,3.7659,3.7457,3.7507,3.7638,3.7927,3.7888,3.7624,3.7299,3.6634,3.568,0.0,0.0,0.0,0.0,0.0,0.0,0.0,0.0,0.0,0.0,0.0,0.0,0.0,0.0,3.1697,0.0,0.0,3.1742,3.2179,3.2308,3.2411,3.2638,3.2669,3.2809,3.3027,3.2861,3.282,3.3037,3.2861,3.2447,3.1754,3.1505,3.1071,3.0377,2.9901,2.9435,2.897,2.8614,2.8303,2.794,2.7157,2.6875,2.7158,2.6194,2.5872,2.6032,2.5836,2.5812,2.5895,2.5895,2.5895,2.5895,2.5895,2.5895,2.5874,2.5633,2.5251,2.477,2.429,2.3787,2.3296,0.0,0.0,0.0,0.0,0.0,0.0,0.0,0.0,0.0,0.0,0.0,2.8258,2.9187,2.9386,2.9816,0.0,0.0,0.0,0.0,3.2901,3.3844,3.4668,3.5205,3.513,3.4339,3.3769,3.311,3.2317,3.1765,3.2183,0.0,0.0,0.0,0.0,0.0,0.0,0.0,0.0,0.0,0.0,0.0,0.0,4.1697,3.9406,3.8452,3.8346,3.8463,3.8019,3.7623,3.8743,3.9007,3.8957,3.9132,3.8718,3.7852,3.6194,3.5508,0.0,0.0,0.0,0.0,0.0,0.0,0.0,0.0,0.0,3.2274,3.3895,3.4007,3.4211,3.5257,3.4543,3.3994,3.4593,3.3968,3.3321,3.3058,3.3058,3.2944,3.2727,3.2669,3.2669,3.2669,3.2669,3.2442,3.1895,3.1578,3.1143,3.0584,2.9818,2.9145,2.8678,2.8467,2.8109,2.7599,2.6995,2.6761,2.6897,2.6065,2.5728,2.5895,2.5895,2.5895,2.5895,2.5895,2.5895,2.5895,2.5895,2.5852,2.571,2.527,2.5018,2.4792,2.4017,2.3629,2.3514,0.0,0.0,0.0,0.0,0.0,0.0,0.0,0.0,0.0,0.0,0.0,0.0,0.0,0.0,0.0,0.0,0.0,0.0,0.0,3.341,3.4053,3.5325,3.5459,3.4906,3.3634,3.3529,3.2886,3.1615,3.154,3.2183,3.3499,0.0,0.0,0.0,0.0,0.0,0.0,0.0,0.0,0.0,0.0,0.0,4.2782,3.9875,3.8904,3.9131,3.8833,3.8554,3.8448,3.9563,3.9461,3.9095,4.0023,3.9622,3.8492,3.6807,0.0,3.4311,3.2014,3.1926,3.3013,3.5311,3.4694,3.4429,0.0,0.0,3.6895,3.8615,3.8102,3.7252,3.7092,3.6379,3.5748,3.5459,3.5628,3.5432,3.4424,3.4312,3.3875,3.2841,3.2669,3.2669,3.2669,3.2669,3.2375,3.1516,3.1412,3.0998,3.0118,2.9807,2.9419,2.8948,2.876,2.8332,2.7723,2.7207,2.6832,2.6617,2.6115,2.5895,2.5895,2.5895,2.5895,2.5895,2.5895,2.5895,2.5895,2.5895,2.5644,2.5248,2.4749,2.429,2.3836,2.3727,2.346,2.3012,0.0,0.0,0.0,0.0,0.0,0.0,0.0,0.0,0.0,0.0,0.0,0.0,0.0,0.0,0.0,0.0,0.0,0.0,3.263,3.3183,3.4019,3.5444,3.5115,3.4457,3.3514,3.3125,3.2437,3.1511,3.1884,3.2587,3.3499,0.0,0.0,0.0,0.0,0.0,0.0,0.0,0.0,0.0,0.0,0.0,4.177,3.9466,3.8421,3.8148,3.7319,3.6839,0.0,0.0,3.8218,3.83,3.9398,3.9108,3.8103,3.6807,3.6078,0.0,3.4582,3.4223,3.4512,0.0,3.632,3.6709,3.8341,3.8165,3.814,3.9823,3.9783,3.9479,3.9578,3.8827,3.8008,0.0,3.6987,3.642,3.5587,3.5498,3.4957,3.3489,3.3602,3.3491,3.2784,3.2432,3.2112,3.1795,3.1267,3.0795,3.0276,2.9617,2.916,2.8824,2.8647,2.8269,2.7729,2.7343,2.6965,2.6584,2.6136,2.5895,2.5895,2.5895,2.5895,2.5895,2.5895,2.5895,2.5884,2.56,2.5401,2.5139,2.4344,2.3919,2.3662,2.3367,2.3176,2.2968,0.0,0.0,0.0,0.0,0.0,0.0,0.0,0.0,0.0,0.0,0.0,0.0,0.0,0.0,0.0,0.0,0.0,0.0,0.0,3.2496,3.361,3.5041,3.4882,0.0,3.3784,3.3305,3.2736,3.2049,3.2466,3.2968,3.3489,0.0,0.0,0.0,0.0,0.0,0.0,0.0,0.0,0.0,0.0,0.0,4.0486,3.8421,3.738,3.6901,3.6109,3.5579,0.0,0.0,3.6654,3.6767,3.7942,3.7745,3.6948,3.6144,3.5579,3.5299,3.5449,3.5491,0.0,3.6408,3.7538,3.8467,3.8467,3.8467,3.8868,4.0237,4.0388,4.0513,4.115,4.0478,3.9782,3.9538,3.8653,3.7707,3.6995,3.6766,3.6113,3.4634,3.4669,3.4372,3.3131,3.2398,3.1936,3.1868,3.1187,3.0631,3.0244,2.9568,2.9112,2.8818,2.8642,2.8185,2.7625,2.7401,2.7009,2.6377,2.607,2.5895,2.5895,2.5895,2.5895,2.5895,2.5895,2.5819,2.5677,2.5459,2.5131,2.4716,2.4159,2.3766,2.3482,2.3132,2.3001,2.3001,0.0,0.0,0.0,0.0,0.0,0.0,0.0,0.0,0.0,0.0,0.0,0.0,0.0,0.0,0.0,0.0,0.0,0.0,0.0,3.1429,3.2782,3.4003,3.4971,3.516,3.4488,3.4459,3.4098,3.344,3.3264,3.326,3.3412,3.3873,0.0,0.0,0.0,0.0,0.0,0.0,0.0,0.0,0.0,0.0,3.9438,3.6811,3.5817,3.5873,3.6036,0.0,0.0,0.0,3.5122,3.4483,3.5623,3.5461,0.0,3.4776,3.3621,3.2466,3.3018,0.0,3.5759,3.6897,3.8417,3.9647,3.9647,3.9647,3.981,4.0388,4.0086,4.0049,4.1087,4.0849,4.0648,4.1121,4.0758,4.0,3.8869,3.8209,3.7447,3.6271,3.5833,3.5173,0.0,3.2691,3.1857,3.1433,3.1216,3.0706,2.9752,2.975,2.9564,2.908,2.8878,2.8298,2.7337,2.7315,2.6846,2.5917,2.5906,2.5895,2.5895,2.5895,2.5895,2.5895,2.5895,2.5633,2.527,2.5688,2.5043,2.3782,2.4279,2.3875,2.3023,2.3012,2.3001,2.3001,0.0,0.0,0.0,0.0,0.0,0.0,0.0,0.0,0.0,0.0,0.0,0.0,0.0,0.0,0.0,0.0,0.0,0.0,0.0,3.0067,3.1142,3.2476,3.2922,3.3006,3.2777,3.2524,3.2256,3.204,3.2359,3.2571,3.2647,3.3635,0.0,0.0,0.0,0.0,0.0,0.0,0.0,0.0,0.0,0.0,3.8579,3.632,3.5184,3.4734,0.0,0.0,0.0,0.0,3.3377,3.3126,3.4281,3.3828,0.0,3.2339,3.2422,3.2835,3.3685,0.0,3.6568,3.7705,3.8881,3.9785,4.0162,3.9961,3.9848,4.04,3.9195,3.8366,3.9496,3.9398,3.9411,4.0334,4.111,4.1392,4.0631,4.0142,3.922,3.7428,3.7173,0.0,0.0,0.0,0.0,3.1238,3.0842,3.0389,2.9782,2.9777,2.951,2.8936,2.8844,2.8333,2.7315,2.7315,2.6835,2.5895,2.6509,2.6745,2.6745,2.6745,2.6467,2.5895,2.5895,2.5622,2.5204,2.5022,2.4476,2.3684,2.3558,2.3296,2.3001,2.3001,2.3001,2.3001,0.0,0.0,0.0,0.0,0.0,0.0,0.0,0.0,0.0,0.0,0.0,0.0,0.0,0.0,0.0,0.0,0.0,0.0,0.0,0.0,2.9345,3.0631,3.106,3.136,3.1569,3.1322,3.1319,3.159,3.1917,3.2103,3.2166,3.2923,3.3522,0.0,0.0,0.0,0.0,0.0,0.0,0.0,0.0,0.0,3.6507,3.4976,3.4005,0.0,0.0,0.0,0.0,0.0,3.1915,3.1849,3.2599,3.2296,3.1636,3.1159,3.1928,3.3136,3.4117,3.5754,3.7397,3.8326,3.9411,4.0283,4.0447,4.0259,4.0094,4.0409,3.907,3.807,3.8994,3.8802,3.8748,3.946,4.0568,4.1157,4.0799,4.0568,3.9993,3.8851,3.8669,3.8008,0.0,0.0,0.0,3.1951,3.1114,3.0412,2.9833,2.9715,2.9406,2.8825,2.8905,2.8599,2.7777,2.761,2.7132,2.6385,2.694,2.7336,2.7649,2.7649,2.7325,2.6764,2.6308,2.5828,2.5349,2.502,2.4487,2.3842,2.3709,2.3542,2.3386,2.3386,2.3386,2.335,0.0,0.0,0.0,0.0,0.0,0.0,0.0,0.0,0.0,0.0,0.0,0.0,0.0,0.0,0.0,0.0,0.0,0.0,0.0,0.0,0.0,2.8535,2.9487,3.0284,3.0851,3.0879,3.1251,3.1958,3.177,3.1752,3.1974,3.18,3.172,3.1746,3.2385,0.0,0.0,0.0,0.0,0.0,0.0,0.0,3.352,3.2934,0.0,0.0,0.0,0.0,0.0,0.0,0.0,3.075,3.0776,3.1023,3.1292,3.1278,3.2126,3.3255,3.4371,3.6275,3.8121,3.8694,4.003,4.108,4.0658,4.0504,4.0453,4.0453,3.9504,3.8777,0.0,0.0,3.8636,3.8725,3.9314,3.9749,3.9749,3.9773,3.994,0.0,0.0,0.0,0.0,0.0,0.0,3.343,0.0,3.0871,2.9931,2.9676,2.9328,2.8907,2.9195,2.9118,2.8666,2.8203,2.7739,2.7348,2.7348,2.773,2.8466,2.8466,2.8426,2.8323,2.706,2.6219,2.5747,2.567,2.5061,2.4202,2.4708,2.4604,2.4156,2.4192,2.4181,2.4072,0.0,0.0,0.0,0.0,0.0,0.0,0.0,0.0,0.0,0.0,0.0,0.0,0.0,0.0,0.0,0.0,0.0,0.0,0.0,0.0,0.0,0.0,0.0,0.0,0.0,0.0,0.0,0.0,0.0,2.972,3.0173,3.057,3.0778,0.0,3.1809,0.0,0.0,0.0,0.0,0.0,0.0,0.0,3.3653,0.0,0.0,0.0,0.0,0.0,0.0,0.0,0.0,0.0,3.2046,3.2241,3.2357,3.2665,3.3693,3.4786,3.537,3.6845,3.8346,3.8949,3.9589,4.0197,4.0914,4.0465,3.98,3.9826,3.7919,3.6307,0.0,0.0,0.0,3.8884,4.0791,0.0,4.2112,4.1931,0.0,4.0873,0.0,4.0003,3.9032,3.8291,0.0,0.0,3.3557,3.2094,3.1346,3.0466,2.9954,2.9852,2.992,2.986,2.9635,2.8733,2.8531,2.9069,2.9069,2.9186,2.9381,2.9381,2.9018,2.8374,2.8044,2.7406,2.6574,2.6586,2.5956,2.5028,2.5123,2.5099,2.5004,2.511,2.5134,2.5134,0.0,0.0,0.0,0.0,0.0,0.0,0.0,0.0,0.0,0.0,0.0,0.0,0.0,0.0,0.0,0.0,0.0,0.0,0.0,0.0,0.0,0.0,0.0,0.0,0.0,0.0,0.0,0.0,0.0,0.0,0.0,2.8499,2.8635,2.8672,2.9607,3.0104,0.0,0.0,0.0,0.0,0.0,0.0,0.0,0.0,0.0,0.0,0.0,0.0,0.0,0.0,0.0,3.3025,3.3339,3.3443,3.3561,3.4025,0.0,3.5739,3.6212,3.7358,3.8631,3.9203,3.9495,3.9721,4.0059,3.9465,3.8768,3.851,3.6793,0.0,3.5644,0.0,0.0,0.0,0.0,0.0,4.1559,4.1799,4.1813,0.0,4.0959,0.0,3.98,3.921,3.8456,0.0,3.4812,3.3058,3.2465,3.1413,3.0801,3.08,3.0739,3.0429,2.9857,2.9285,2.9225,2.9704,2.9704,2.9909,3.0266,3.0266,2.9986,2.9524,0.0,2.8195,2.7422,2.7176,2.6551,2.5791,2.5791,2.5791,2.5791,2.5963,2.6032,2.6089,0.0,0.0,0.0,0.0,0.0,0.0,0.0,0.0,0.0,0.0,0.0,0.0,0.0,0.0,0.0,0.0,0.0,0.0,0.0,0.0,0.0,0.0,0.0,0.0,0.0,0.0,0.0,0.0,0.0,0.0,0.0,0.0,0.0,0.0,0.0,0.0,0.0,0.0,0.0,0.0,0.0,0.0,0.0,0.0,0.0,0.0,0.0,0.0,0.0,0.0,3.4224,3.4486,3.4565,3.4591,3.4708,3.5351,3.5861,3.6358,3.6959,3.7848,3.8749,3.9337,3.9494,3.9324,3.8736,3.8174,3.7586,3.692,0.0,3.5325,3.5796,3.6436,3.6789,3.6502,0.0,4.0331,4.0095,4.0853,4.1428,4.1428,4.1363,4.105,4.037,3.9886,3.9324,3.8658,3.584,3.3938,3.3443,3.2316,3.1657,3.1656,3.1543,3.0979,2.9984,2.9896,2.9858,2.9858,2.9858,3.0266,3.0986,3.0986,3.0986,3.096,0.0,0.0,2.8304,2.7797,2.7205,2.6665,2.6589,2.6552,2.662,2.6812,2.6913,2.7048,0.0,0.0,0.0,0.0,0.0,0.0,0.0,0.0,0.0,0.0,2.0335,2.0956,0.0,0.0,0.0,0.0,0.0,0.0,0.0,0.0,0.0,0.0,0.0,0.0,0.0,0.0,0.0,0.0,0.0,0.0,0.0,0.0,0.0,0.0,0.0,0.0,0.0,0.0,0.0,0.0,0.0,0.0,0.0,0.0,0.0,0.0,0.0,0.0,0.0,0.0,3.4203,3.4908,3.54,3.5556,3.5716,3.6496,3.6776,3.6985,3.7586,3.79,3.8174,3.8723,3.8867,3.8723,3.8174,3.7586,0.0,0.0,3.5038,3.458,3.4672,3.5547,3.6698,3.8031,0.0,0.0,0.0,0.0,4.2017,0.0,0.0,0.0,0.0,0.0,0.0,0.0,0.0,3.5334,3.4502,3.2982,3.2151,3.2045,3.2286,3.2123,3.1448,3.0981,3.0785,3.0785,3.0785,3.0861,3.0986,3.0986,3.0986,3.0986,0.0,0.0,2.971,2.9175,2.859,2.8006,2.7504,2.741,2.7577,2.7789,2.7921,2.8059,0.0,0.0,0.0,0.0,0.0,0.0,0.0,2.0116,2.0067,2.0225,2.0635,2.1066,2.1449,2.2471,2.3304,0.0,0.0,0.0,0.0,0.0,0.0,0.0,0.0,0.0,0.0,0.0,0.0,0.0,0.0,0.0,0.0,0.0,0.0,0.0,0.0,0.0,0.0,0.0,0.0,0.0,0.0,0.0,0.0,0.0,0.0,0.0,0.0,0.0,0.0,0.0,3.3794,3.4794,3.5863,3.6237,3.6333,3.683,3.6998,3.7142,3.7743,3.79,3.8031,3.8579,3.8266,3.7599,3.6737,0.0,0.0,0.0,3.3718,3.3692,3.4293,3.5325,0.0,0.0,0.0,0.0,0.0,0.0,0.0,0.0,0.0,0.0,0.0,0.0,0.0,0.0,0.0,3.5908,3.5454,3.3844,3.2967,3.2893,3.246,3.2071,3.1797,3.1274,3.0986,3.0986,3.0986,3.0986,3.0986,3.0986,3.0986,3.0986,3.0986,0.0,3.0074,2.9945,2.9337,2.8544,2.8356,2.8133,2.7967,2.8151,2.8235,2.832,0.0,0.0,0.0,0.0,0.0,0.0,0.0,2.0458,2.0498,2.0595,2.0957,2.1229,2.1327,2.2311,2.3043,0.0,0.0,0.0,0.0,0.0,0.0,0.0,0.0,0.0,0.0,0.0,0.0,0.0,0.0,0.0,0.0,0.0,0.0,0.0,0.0,0.0,0.0,0.0,0.0,0.0,0.0,0.0,0.0,0.0,0.0,0.0,0.0,0.0,0.0,0.0,3.2938,3.3936,3.5313,3.609,3.6528,3.6577,3.6862,3.7273,3.7612,3.7887,3.8148,3.8462,3.7861,3.6867,3.5587,3.441,0.0,0.0,3.2777,3.3038,3.4188,3.5129,3.5822,0.0,3.7652,0.0,0.0,0.0,0.0,0.0,0.0,0.0,0.0,0.0,0.0,0.0,0.0,0.0,3.5757,3.4489,3.3652,3.3404,3.2502,3.1863,3.1628,3.1209,3.0986,3.0986,3.0986,3.0986,3.0986,3.0986,3.0986,3.0986,3.0986,0.0,0.0,3.0395,2.9808,2.8926,2.8964,2.8652,2.8164,2.8268,2.832,2.8398,0.0,0.0,0.0,0.0,0.0,0.0,0.0,1.9971,2.0117,2.0546,2.0957,2.1346,2.1787,2.2281,2.2693,0.0,0.0,0.0,0.0,0.0,0.0,0.0,0.0,0.0,0.0,0.0,0.0,0.0,0.0,0.0,0.0,0.0,0.0,0.0,0.0,0.0,0.0,0.0,0.0,0.0,0.0,0.0,0.0,0.0,0.0,0.0,0.0,0.0,0.0,0.0,0.0,3.1807,3.2675,3.4523,3.6161,3.5422,0.0,0.0,3.722,3.7848,3.8527,3.8083,3.79,3.7377,3.5678,0.0,0.0,3.3522,3.3064,3.3038,3.4188,3.4489,3.4894,0.0,0.0,3.7351,0.0,0.0,0.0,0.0,0.0,0.0,0.0,0.0,0.0,0.0,0.0,0.0,3.4607,3.441,3.3849,3.2816,3.2672,3.211,3.1065,3.1013,3.0986,3.0986,3.0986,3.0986,3.0986,3.0986,3.0986,3.0986,0.0,0.0,0.0,3.0626,3.0103,2.9656,2.9192,2.8705,2.83,2.83,2.843,2.8587,0.0,0.0,0.0,0.0,0.0,0.0,2.0283,2.0303,2.041,2.0586,2.0723,2.0996,2.1445,2.1875,2.2402,2.3033,0.0,0.0,0.0,0.0,0.0,0.0,0.0,0.0,0.0,0.0,0.0,0.0,0.0,0.0,0.0,0.0,0.0,0.0,0.0,0.0,0.0,0.0,0.0,0.0,0.0,0.0,0.0,0.0,0.0,0.0,0.0,0.0,0.0,0.0,0.0,0.0,3.0916,3.2371,0.0,0.0,3.5624,3.6818,3.7638,3.8538,3.9115,3.854,3.7599,3.6462,3.5064,0.0,3.2502,3.2502,3.262,3.2947,3.3757,3.4175,3.4554,0.0,0.0,0.0,0.0,0.0,0.0,0.0,0.0,0.0,0.0,0.0,0.0,0.0,0.0,0.0,3.4424,3.3744,3.3326,3.3234,3.2215,3.1614,3.1496,3.1156,3.0986,3.0986,3.0986,3.0986,3.0986,3.0986,3.0986,3.0986,0.0,0.0,0.0,3.1182,3.0677,2.9971,2.9894,2.9275,2.8476,2.8476,2.8522,2.8587,0.0,0.0,0.0,0.0,0.0,2.0312,2.0566,2.0605,2.0693,2.0957,2.0997,2.1074,2.1396,2.1816,2.2305,2.2857,2.275,0.0,0.0,0.0,0.0,0.0,0.0,0.0,0.0,0.0,0.0,0.0,0.0,0.0,0.0,0.0,0.0,0.0,0.0,0.0,0.0,0.0,0.0,0.0,0.0,0.0,0.0,0.0,0.0,0.0,0.0,0.0,0.0,0.0,0.0,0.0,0.0,0.0,0.0,0.0,3.4585,3.596,3.7157,3.8374,3.9112,3.8572,3.7273,3.5848,0.0,3.3326,3.2111,3.228,3.2672,3.313,3.3731,3.4136,3.4397,0.0,0.0,3.5338,0.0,0.0,0.0,0.0,0.0,0.0,0.0,0.0,0.0,0.0,0.0,0.0,0.0,3.3483,3.3064,3.3326,3.1967,3.1352,3.1549,3.1196,3.0986,3.0986,3.0986,3.0986,3.0986,3.0986,3.1024,3.1099,0.0,0.0,0.0,3.1633,3.1119,3.0206,3.0336,2.9659,2.8614,2.879,2.8736,2.8627,0.0,0.0,0.0,0.0,0.0,0.0,2.0478,2.0605,2.0918,2.1758,2.1875,2.1875,2.1875,2.2256,2.251,2.2519,2.2847,0.0,0.0,0.0,0.0,0.0,0.0,0.0,0.0,0.0,0.0,2.3471,2.3773,0.0,0.0,0.0,0.0,0.0,0.0,0.0,0.0,0.0,0.0,0.0,0.0,0.0,0.0,0.0,0.0,0.0,0.0,0.0,0.0,0.0,0.0,0.0,0.0,0.0,0.0,0.0,3.3267,3.5491,3.5353,3.6863,3.8324,3.7998,3.6998,3.5966,3.5417,3.394,3.2855,3.3443,3.3587,3.3744,3.4293,3.4397,3.4397,3.4397,3.441,0.0,0.0,0.0,0.0,0.0,0.0,0.0,0.0,0.0,0.0,0.0,0.0,0.0,0.0,3.3875,3.3313,3.2725,3.2098,3.1523,3.0999,3.0986,3.0986,3.0986,3.0986,3.0986,3.0986,3.0986,3.1099,0.0,0.0,0.0,0.0,3.189,3.1298,3.0405,3.0405,2.9659,2.8655,2.9285,2.9122,2.8682,0.0,0.0,0.0,0.0,0.0,0.0,0.0,2.0605,2.0811,2.1367,2.1405,2.1553,2.1855,2.2266,2.251,2.251,2.2847,0.0,0.0,0.0,0.0,0.0,0.0,0.0,0.0,0.0,2.337,2.3725,2.3982,2.4235,2.4497,2.4497,0.0,0.0,0.0,0.0,0.0,0.0,0.0,0.0,0.0,0.0,0.0,0.0,0.0,0.0,0.0,0.0,0.0,0.0,0.0,0.0,0.0,0.0,0.0,0.0,0.0,0.0,3.531,3.6519,3.7326,3.6815,3.5796,3.4789,3.4254,3.3077,3.228,3.2855,3.33,3.3639,3.3809,3.4149,3.4397,3.4397,3.4397,0.0,0.0,0.0,0.0,0.0,0.0,0.0,0.0,0.0,0.0,0.0,0.0,0.0,0.0,3.33,3.2894,3.2698,3.2098,3.1523,3.0999,3.0986,3.0986,3.0986,3.0986,3.0986,3.0986,3.0986,0.0,0.0,0.0,0.0,0.0,3.1729,3.1312,3.0446,3.0853,3.0269,2.9298,2.9889,2.9726,2.9257,0.0,0.0,0.0,0.0,0.0,0.0,0.0,2.082,2.1035,2.16,2.1678,2.1816,2.209,2.25,2.2711,2.2711,2.2945,0.0,0.0,0.0,0.0,0.0,0.0,0.0,0.0,2.3406,2.3634,2.3927,2.4283,2.45,2.4507,2.4673,2.4662,2.4497,0.0,0.0,0.0,0.0,0.0,0.0,0.0,0.0,2.47,0.0,0.0,0.0,0.0,0.0,0.0,0.0,0.0,0.0,0.0,0.0,0.0,0.0,3.1678,3.3086,0.0,3.5752,3.646,3.6157,3.509,0.0,3.3927,3.2789,3.2032,3.2868,3.3326,3.3652,3.3862,3.4175,3.4397,3.4397,3.4397,0.0,0.0,0.0,0.0,0.0,0.0,0.0,0.0,0.0,0.0,0.0,0.0,0.0,0.0,3.3234,3.2829,3.2385,3.181,3.1352,3.0986,3.0986,3.0986,3.0986,3.0986,3.0986,3.0986,3.1099,0.0,0.0,0.0,0.0,0.0,3.1514,3.1032,3.0093,3.0459,3.0011,2.9211,2.9835,2.9672,2.9203,0.0,0.0,0.0,0.0,0.0,0.0,0.0,2.1171,2.1453,2.2353,2.2471,2.249,2.2549,2.2867,2.3091,2.3091,0.0,0.0,0.0,0.0,0.0,0.0,0.0,0.0,0.0,2.346,2.3677,2.4163,2.4581,2.4702,2.4507,2.4941,2.491,2.4497,2.4497,0.0,0.0,0.0,0.0,0.0,0.0,0.0,0.0,0.0,0.0,0.0,0.0,0.0,0.0,0.0,0.0,0.0,0.0,0.0,0.0,0.0,0.0,0.0,0.0,3.4504,3.5608,3.5883,3.4711,3.3679,3.4214,3.3104,0.0,3.3417,3.3652,3.3809,3.4306,3.4358,3.4345,3.4345,3.4345,0.0,0.0,0.0,0.0,0.0,0.0,0.0,0.0,0.0,0.0,0.0,0.0,0.0,0.0,3.3496,3.2947,3.1784,3.1261,3.0986,3.0986,3.0986,3.0986,3.0986,3.1024,3.1024,3.1024,3.1248,0.0,0.0,0.0,0.0,0.0,3.1232,3.054,2.9515,2.9556,2.9217,2.8736,2.9319,2.917,2.8736,0.0,0.0,0.0,0.0,0.0,0.0,0.0,0.0,0.0,0.0,2.2031,2.2275,2.2877,2.3033,2.3091,0.0,0.0,0.0,0.0,0.0,0.0,0.0,0.0,0.0,0.0,2.3188,2.3363,2.3677,2.3908,2.4125,2.4292,2.4524,2.4611,2.4497,2.4497,0.0,0.0,0.0,0.0,0.0,0.0,0.0,0.0,0.0,0.0,0.0,2.8383,2.9248,0.0,0.0,0.0,0.0,0.0,0.0,0.0,0.0,3.1565,3.2355,3.2254,0.0,3.3532,3.4071,3.3535,3.3064,0.0,3.347,0.0,0.0,0.0,0.0,0.0,3.4058,3.3783,3.3783,3.3783,3.4018,0.0,0.0,0.0,0.0,0.0,0.0,0.0,0.0,0.0,0.0,0.0,0.0,0.0,3.2489,3.1876,3.1209,3.1052,3.0986,3.0986,3.0986,3.0986,3.0986,3.1161,3.1235,3.1235,3.1447,0.0,0.0,0.0,0.0,3.0622,3.0622,3.0161,2.9556,2.9998,2.9808,2.9347,2.9957,2.9794,2.9325,0.0,0.0,0.0,0.0,0.0,0.0,0.0,0.0,0.0,0.0,0.0,0.0,0.0,0.0,0.0,0.0,0.0,0.0,0.0,0.0,0.0,0.0,0.0,0.0,2.3091,2.3091,2.332,2.3791,2.4011,2.424,2.4459,2.473,2.4704,2.4497,2.4497,0.0,0.0,0.0,0.0,0.0,2.4497,0.0,0.0,0.0,0.0,0.0,2.8171,2.904,0.0,2.9792,2.9869,2.9972,0.0,0.0,0.0,0.0,3.1967,3.2891,3.2698,3.3051,3.3496,3.3574,3.3143,3.2921,3.377,0.0,0.0,0.0,0.0,0.0,0.0,0.0,0.0,3.3927,3.4188,0.0,0.0,0.0,0.0,0.0,0.0,0.0,0.0,0.0,0.0,0.0,0.0,0.0,0.0,3.2111,3.1536,3.0999,3.0986,3.0986,3.0986,3.0986,3.1061,3.1123,3.1235,3.136,3.1434,3.1633,0.0,0.0,0.0,0.0,3.0391,3.0106,2.9618,2.9135,2.9442,2.9374,2.9149,2.9442,2.936,2.9108,0.0,0.0,0.0,0.0,0.0,0.0,0.0,0.0,0.0,0.0,0.0,0.0,0.0,0.0,0.0,0.0,0.0,0.0,0.0,0.0,0.0,0.0,0.0,2.3091,2.3091,2.3091,2.3408,2.3994,2.4271,2.4492,2.4713,2.4988,2.4879,2.4497,2.4497,2.4497,0.0,0.0,0.0,0.0,2.4497,0.0,0.0,0.0,0.0,0.0,0.0,0.0,0.0,2.9792,2.9934,3.0113,3.0152,0.0,0.0,0.0,0.0,0.0,3.343,3.3914,3.4293,3.3835,3.3273,3.3104,3.4162,0.0,0.0,0.0,0.0,0.0,0.0,0.0,0.0,0.0,0.0,0.0,0.0,0.0,0.0,0.0,0.0,0.0,0.0,0.0,0.0,0.0,0.0,0.0,0.0,3.198,3.1445,3.0999,3.1024,3.1061,3.1061,3.1061,3.1123,3.131,3.1347,3.1471,3.1646,3.1853,3.1963,0.0,0.0,0.0,3.0351,2.9631,2.9048,2.8587,2.8587,2.8587,2.8587,2.8587,2.8587,2.8587,0.0,0.0,0.0,0.0,0.0,0.0,0.0,0.0,0.0,0.0,0.0,0.0,0.0,0.0,0.0,0.0,0.0,0.0,0.0,0.0,0.0,0.0,2.3091,2.3091,2.3091,2.3091,2.3261,2.3602,2.3811,2.4038,2.4308,2.4514,2.4569,2.4497,2.4497,2.4497,2.4497,2.4497,2.4497,2.4497,2.4497,0.0,0.0,0.0,0.0,0.0,0.0,0.0,0.0,2.9792,2.9934,3.0113,3.0292,0.0,0.0,0.0,0.0,0.0,3.2698,3.36,3.4384,3.4293,3.3862,3.3626,3.4254,0.0,0.0,0.0,0.0,0.0,0.0,0.0,0.0,0.0,0.0,0.0,0.0,0.0,0.0,0.0,0.0,0.0,0.0,0.0,0.0,0.0,0.0,0.0,0.0,0.0,3.1078,3.0986,3.1161,3.1235,3.1235,3.1235,3.1272,3.131,3.1656,3.1817,3.1853,3.2073,3.2146,0.0,0.0,3.05,3.0323,2.9197,2.8668,2.8587,2.8587,2.8587,2.8587,2.8587,2.8587,2.8587,0.0,0.0,0.0,0.0,0.0,0.0,0.0,0.0,0.0,0.0,0.0,0.0,0.0,0.0,0.0,0.0,0.0,0.0,0.0,0.0,0.0,2.311,2.3091,2.3091,2.3091,2.3091,2.334,2.3796,2.4071,2.4291,2.451,2.4524,2.4497,2.4497,2.4497,2.4497,2.4497,2.4497,2.4497,2.4497,0.0,0.0,0.0,0.0,0.0,0.0,0.0,0.0,0.0,0.0,3.0113,3.0305,3.0495,0.0,0.0,0.0,0.0,0.0,3.2678,3.3473,3.4366,3.5479,3.5521,3.5452,3.613,0.0,0.0,0.0,0.0,0.0,0.0,0.0,0.0,0.0,0.0,0.0,0.0,0.0,0.0,0.0,0.0,0.0,0.0,0.0,0.0,0.0,0.0,0.0,0.0,0.0,3.1061,3.1161,3.1235,3.136,3.1471,3.1582,3.1619,3.1619,3.1817,3.1963,3.2073,3.2146,3.2218,3.2151,0.0,3.0405,3.031,2.9102,2.8587,2.8587,2.8587,2.8587,2.8651,2.8962,2.9341,2.9623,0.0,0.0,0.0,0.0,0.0,0.0,0.0,0.0,0.0,0.0,0.0,0.0,0.0,0.0,0.0,0.0,0.0,0.0,0.0,0.0,2.3486,2.311,2.3091,2.3091,2.3091,2.3091,2.3389,2.3945,2.4177,2.4398,2.4652,2.4533,2.4497,2.4497,2.4497,2.4497,2.4497,2.4497,2.4497,2.4497,0.0,0.0,0.0,0.0,0.0,0.0,0.0,0.0,0.0,0.0,0.0,0.0,0.0,0.0,0.0,3.1487,3.1657,3.2086,3.3169,3.3776,3.4592,3.6517,3.6749,3.6822,3.8064,0.0,0.0,0.0,0.0,0.0,0.0,0.0,0.0,0.0,0.0,0.0,0.0,0.0,0.0,0.0,0.0,0.0,0.0,0.0,0.0,0.0,0.0,0.0,0.0,0.0,3.131,3.131,3.1384,3.1569,3.19,3.2082,3.2096,3.189,3.1963,3.2036,3.2218,3.2218,3.2218,3.2151,3.092,3.0405,3.031,2.9102,2.8587,2.8587,2.8587,2.8683,2.8881,2.9501,3.0042,3.0494,0.0,0.0,0.0,0.0,0.0,0.0,0.0,0.0,0.0,0.0,0.0,0.0,0.0,0.0,0.0,0.0,0.0,0.0,0.0,0.0,2.313,2.3091,2.3091,2.3091,2.3091,2.3091,2.3242,2.3543,2.3553,2.3814,2.4257,2.4432,2.4497,2.4497,2.4497,2.4497,2.4497,2.4497,2.4497,2.4497,2.4497,0.0,0.0,0.0,0.0,0.0,0.0,0.0,0.0,0.0,0.0,0.0,0.0,0.0,3.1281,3.2509,3.2502,3.2459,3.427,3.479,3.5208,3.6792,3.657,0.0,3.9194,3.8321,0.0,0.0,0.0,0.0,0.0,0.0,0.0,0.0,0.0,0.0,0.0,0.0,0.0,0.0,0.0,0.0,0.0,0.0,0.0,0.0,0.0,0.0,0.0,0.0,0.0,3.131,0.0,3.2141,3.2804,3.3017,3.269,3.189,3.2109,3.2182,3.2218,3.2218,3.2218,3.2151,3.092,3.0405,3.031,2.9102,2.8587,2.8587,2.8587,2.8931,2.9518,3.0178,3.045,3.0494,0.0,0.0,0.0,0.0,0.0,0.0,0.0,0.0,0.0,0.0,0.0,0.0,0.0,0.0,0.0,0.0,0.0,0.0,0.0,0.0,2.3091,2.3091,2.3276,2.3276,2.3091,2.3091,2.3232,2.3503,2.3807,2.4262,2.4833,2.4588,2.4497,2.4497,2.4497,2.4497,2.4497,2.4497,2.4497,2.4497,2.4497,2.4497,0.0,0.0,0.0,0.0,0.0,0.0,0.0,0.0,3.0457,3.0736,3.0849,3.0949,3.12,3.2165,3.2264,3.2458,3.408,3.5125,3.6,3.7061,3.7069,0.0,0.0,4.029,4.0279,0.0,0.0,0.0,0.0,0.0,0.0,0.0,0.0,0.0,0.0,0.0,0.0,0.0,0.0,0.0,0.0,0.0,0.0,0.0,0.0,0.0,0.0,0.0,0.0,0.0,0.0,3.3388,3.3754,3.3871,3.3734,3.3367,3.2995,3.2596,3.2205,3.2211,3.2194,3.2124,3.092,3.0657,3.093,2.9676,2.9421,2.9794,2.9794,3.0178,3.0763,3.1028,3.1349,3.1694,0.0,0.0,0.0,0.0,0.0,0.0,0.0,0.0,0.0,0.0,0.0,0.0,0.0,0.0,0.0,0.0,0.0,0.0,0.0,2.3276,2.3232,2.3232,2.3319,2.345,2.3517,2.3517,2.3614,2.3841,2.4476,2.5114,2.5582,2.5061,2.4828,2.4786,2.4583,2.4497,2.4497,2.4497,2.4497,2.4497,2.4497,2.4497,0.0,0.0,0.0,0.0,0.0,0.0,0.0,0.0,3.0571,3.0811,3.0949,3.0986,3.1198,3.216,3.2434,3.2791,3.4259,3.5336,3.6163,3.6656,0.0,0.0,3.9634,4.0786,0.0,0.0,0.0,0.0,0.0,0.0,0.0,0.0,0.0,0.0,0.0,0.0,0.0,0.0,0.0,0.0,0.0,0.0,0.0,0.0,0.0,0.0,0.0,0.0,0.0,0.0,0.0,3.4264,3.4647,3.4647,3.4647,3.4647,3.4143,3.3541,3.2868,3.2629,3.2571,3.2466,3.1253,3.0968,3.1317,3.0237,3.0072,3.0524,3.0733,3.1087,3.1508,3.1709,3.2048,3.2398,0.0,0.0,0.0,0.0,0.0,0.0,0.0,0.0,0.0,0.0,0.0,0.0,0.0,0.0,0.0,0.0,0.0,0.0,0.0,2.3624,2.3503,2.3493,2.3232,2.356,2.4498,2.4531,2.4531,2.4498,2.5642,2.6299,2.6483,2.581,2.5496,2.5454,2.4786,2.4497,2.4497,2.4497,2.4497,2.4497,2.4497,2.4497,2.4583,0.0,0.0,0.0,0.0,0.0,0.0,0.0,3.0672,3.0986,3.0986,3.0986,3.131,3.2769,3.3178,3.3541,3.5082,3.5504,3.5519,0.0,0.0,0.0,3.8975,3.9424,0.0,0.0,0.0,0.0,0.0,0.0,0.0,0.0,0.0,0.0,0.0,0.0,0.0,0.0,0.0,0.0,0.0,0.0,0.0,0.0,0.0,0.0,0.0,0.0,0.0,0.0,0.0,0.0,3.5385,3.5385,3.5385,3.5385,3.5385,3.5011,3.4283,3.3612,3.3322,3.3216,3.1942,3.1391,3.1364,3.0741,3.0524,3.0584,3.1233,3.1508,3.1566,3.216,3.2398,3.2398,0.0,0.0,0.0,0.0,0.0,0.0,0.0,0.0,0.0,0.0,0.0,0.0,0.0,0.0,0.0,0.0,0.0,0.0,0.0,2.3282,2.3365,2.311,2.3604,2.4209,2.4925,2.6182,2.6205,2.4978,2.468,2.4722,2.5105,2.4914,2.4786,2.4786,2.4583,2.4497,2.4497,2.4497,2.4497,2.4497,2.4497,2.4497,2.454,0.0,0.0,0.0,0.0,0.0,0.0,0.0,0.0,0.0,3.0949,3.0986,3.131,3.2769,3.3178,3.3541,3.5082,3.5848,0.0,3.6193,0.0,0.0,0.0,0.0,0.0,0.0,0.0,0.0,0.0,0.0,0.0,0.0,0.0,0.0,0.0,0.0,0.0,0.0,0.0,0.0,0.0,0.0,0.0,0.0,0.0,0.0,0.0,0.0,0.0,0.0,0.0,0.0,3.5477,3.5477,3.5477,3.5477,3.5003,3.4596,3.4269,3.3647,3.3367,3.3293,3.2035,3.1691,3.208,3.1912,3.1836,3.1864,3.2048,3.2132,3.216,3.2327,3.2398,3.2398,0.0,0.0,0.0,0.0,0.0,0.0,0.0,0.0,0.0,0.0,0.0,0.0,0.0,0.0,0.0,0.0,0.0,0.0,0.0,0.0,2.3806,2.3947,2.4321,2.5073,2.6171,2.7261,2.7313,2.634,2.6038,2.608,2.6412,2.5715,2.539,2.539,2.4786,2.4497,2.4497,2.4497,2.4497,2.4497,2.4497,2.4497,2.4583,0.0,0.0,0.0,0.0,0.0,0.0,0.0,0.0,0.0,3.0949,3.0986,3.131,3.2769,3.3178,3.3541,3.5082,3.5839,0.0,3.652,3.7425,3.8516,3.9592,0.0,0.0,0.0,0.0,0.0,0.0,0.0,0.0,0.0,0.0,0.0,0.0,0.0,0.0,0.0,0.0,0.0,0.0,0.0,0.0,0.0,0.0,0.0,0.0,0.0,0.0,0.0,0.0,0.0,3.5121,3.5106,3.5106,3.5106,3.469,3.444,3.4354,3.3713,3.3411,3.335,3.232,3.2048,3.2398,3.2398,3.2398,3.2398,3.2398,3.2398,3.2398,3.2398,3.2398,3.2398,0.0,0.0,0.0,0.0,0.0,0.0,0.0,0.0,0.0,0.0,0.0,0.0,0.0,0.0,0.0,0.0,0.0,0.0,0.0,0.0,2.4551,2.5304,2.5284,2.6088,2.7851,2.7931,2.8051,2.8263,2.8673,2.9,2.9172,2.7585,2.6812,2.6771,2.5274,2.4615,2.4615,2.454,2.4497,2.4497,2.4497,2.4497,2.4658,2.6329,0.0,0.0,0.0,0.0,0.0,0.0,0.0,0.0,3.0911,3.1061,3.1371,3.2804,3.3262,3.363,3.51,3.5634,0.0,3.664,3.7513,0.0,3.9909,0.0,0.0,0.0,0.0,0.0,0.0,0.0,0.0,0.0,0.0,0.0,0.0,0.0,0.0,0.0,0.0,0.0,0.0,0.0,0.0,0.0,0.0,0.0,0.0,0.0,0.0,0.0,0.0,0.0,3.4412,3.4412,3.4412,0.0,3.4351,3.4351,3.4382,3.3706,3.3367,3.3275,3.2659,3.2398,3.2398,3.2398,3.2398,3.2398,3.2398,3.2398,3.2398,3.2398,3.2398,3.2398,0.0,0.0,0.0,0.0,0.0,0.0,0.0,0.0,0.0,0.0,0.0,0.0,0.0,0.0,0.0,0.0,0.0,0.0,0.0,0.0,2.4129,2.396,2.5705,2.718,2.8331,2.9,2.9378,2.9417,2.8011,2.7395,2.7597,0.0,0.0,2.6976,0.0,2.5505,2.5463,2.4786,2.4497,2.4497,2.4497,2.4497,2.4615,2.5673,2.6483,0.0,0.0,0.0,0.0,0.0,0.0,0.0,3.0874,3.1394,3.2051,3.2946,3.363,3.4312,3.5365,3.6079,0.0,0.0,3.8777,4.0165,4.1509,0.0,0.0,0.0,0.0,0.0,0.0,0.0,0.0,0.0,0.0,0.0,0.0,0.0,0.0,0.0,0.0,0.0,0.0,0.0,0.0,0.0,0.0,0.0,0.0,0.0,0.0,0.0,0.0,3.4382,3.3644,3.3629,3.3629,0.0,3.309,3.3121,3.3629,3.3475,3.3106,3.2613,3.2459,3.2398,3.2398,3.2398,3.2398,3.2398,3.2398,3.2398,3.2398,3.2398,3.2398,3.2398,0.0,0.0,0.0,0.0,0.0,0.0,0.0,0.0,0.0,0.0,0.0,0.0,0.0,0.0,0.0,0.0,0.0,0.0,0.0,0.0,0.0,0.0,2.685,2.8171,2.9079,0.0,0.0,0.0,0.0,0.0,0.0,0.0,0.0,2.7718,0.0,2.64,2.6359,2.5505,2.5137,2.5105,2.4658,2.4497,2.4625,2.5913,2.6689,2.7273,2.8633,0.0,0.0,0.0,0.0,0.0,0.0,0.0,3.1773,3.2875,3.3457,3.4075,3.535,0.0,0.0,3.7948,0.0,4.0999,4.1367,0.0,0.0,0.0,0.0,0.0,0.0,0.0,0.0,0.0,0.0,0.0,0.0,0.0,0.0,0.0,0.0,0.0,0.0,0.0,0.0,0.0,0.0,0.0,0.0,0.0,0.0,0.0,3.3967,3.3629,3.2921,3.2921,3.2921,3.2921,3.2567,3.2582,3.2921,3.2921,3.2721,3.2398,3.2398,3.2398,3.2398,3.2398,3.2398,3.2398,3.2398,3.2398,3.2398,3.2398,3.2398,3.2398,0.0,0.0,0.0,0.0,0.0,0.0,0.0,0.0,0.0,0.0,0.0,0.0,0.0,0.0,0.0,0.0,0.0,0.0,0.0,0.0,0.0,0.0,2.8011,0.0,0.0,0.0,0.0,0.0,0.0,0.0,0.0,0.0,0.0,2.8661,0.0,2.7273,2.7028,2.6152,2.5704,2.5505,2.4786,2.4583,2.4903,2.6494,2.7191,2.7557,2.9209,2.9792,2.9869,3.0228,0.0,0.0,0.0,0.0,3.1431,3.2791,3.3283,3.3734,3.5302,0.0,3.6772,3.8304,4.0062,0.0,4.0628,0.0,0.0,0.0,0.0,0.0,0.0,0.0,0.0,0.0,0.0,0.0,0.0,0.0,0.0,0.0,0.0,0.0,0.0,0.0,0.0,0.0,0.0,0.0,0.0,0.0,3.3873,3.3244,3.3229,3.2952,3.2398,3.2398,3.2398,3.2398,3.2398,3.2398,3.2398,3.2398,3.2398,3.2398,3.2398,3.2398,3.2398,3.2398,3.2398,3.2398,3.2398,3.2398,3.2398,3.2398,3.2398,3.2398,0.0,0.0,0.0,0.0,0.0,0.0,0.0,0.0,0.0,0.0,0.0,0.0,0.0,0.0,0.0,0.0,0.0,0.0,0.0,0.0,0.0,0.0,2.8011,2.8922,0.0,0.0,0.0,0.0,0.0,0.0,0.0,0.0,0.0,2.9585,0.0,0.0,2.7028,2.6152,2.5337,2.4658,2.454,2.4935,2.5746,2.673,2.7597,2.8462,2.9456,2.9792,2.983,3.0049,3.0254,0.0,0.0,0.0,3.2123,3.2932,3.3665,3.4413,3.5623,0.0,3.835,0.0,3.9997,4.0612,0.0,0.0,0.0,0.0,0.0,0.0,0.0,0.0,0.0,0.0,0.0,0.0,0.0,0.0,0.0,0.0,0.0,0.0,0.0,0.0,0.0,0.0,0.0,0.0,0.0,3.2998,3.2628,3.2536,3.2521,3.249,3.2398,3.2398,3.2398,3.2398,3.2398,3.2398,3.2398,3.2398,3.2398,3.2398,3.2398,3.2398,3.2398,3.2398,3.2398,3.2398,3.2398,3.2398,3.2398,3.2398,3.2398,3.2398,0.0,0.0,0.0,0.0,0.0,0.0,0.0,0.0,0.0,0.0,0.0,0.0,0.0,0.0,0.0,0.0,0.0,0.0,0.0,0.0,0.0,2.7028,2.7516,2.8383,2.9753,0.0,0.0,0.0,0.0,0.0,0.0,2.9792,2.9792,0.0,0.0,0.0,0.0,2.7516,2.6659,2.5883,2.5285,2.4914,0.0,0.0,0.0,0.0,0.0,0.0,2.983,3.0049,3.0228,3.0444,3.066,0.0,0.0,0.0,3.3108,3.4007,3.5591,3.6865,3.787,0.0,3.9185,3.9828,0.0,0.0,0.0,0.0,0.0,0.0,0.0,0.0,0.0,0.0,0.0,0.0,0.0,0.0,0.0,0.0,0.0,0.0,0.0,0.0,0.0,0.0,0.0,0.0,3.2859,3.2552,3.2398,3.2398,3.2398,3.2398,3.2398,3.2398,3.2398,3.2398,3.2398,3.2398,3.2398,3.2398,3.2398,3.2398,3.2398,3.2398,3.2398,3.2398,3.2398,3.2398,3.2398,3.2398,3.2398,3.2398,3.2398,3.2398,0.0,0.0,0.0,0.0,0.0,0.0,0.0,0.0,0.0,0.0,0.0,0.0,0.0,0.0,0.0,0.0,0.0,0.0,0.0,0.0,0.0,2.7017,2.7313,2.8183,2.9753,0.0,0.0,0.0,0.0,0.0,2.9792,2.9792,2.9792,0.0,2.9792,2.9675,0.0,0.0,0.0,0.0,2.6083,2.5335,0.0,0.0,0.0,0.0,0.0,0.0,0.0,0.0,0.0,3.0188,3.0365,3.059,0.0,0.0,0.0,0.0,0.0,0.0,3.7237,3.746,3.8385,3.9123,0.0,0.0,0.0,0.0,0.0,0.0,0.0,0.0,0.0,0.0,0.0,0.0,0.0,0.0,0.0,0.0,0.0,0.0,0.0,0.0,0.0,0.0,0.0,0.0,3.2428,3.2398,3.2398,3.2398,3.2398,3.2398,3.2398,3.2398,3.2398,3.2398,3.2398,3.2398,3.2398,3.2398,3.2398,3.2398,3.2398,3.2398,3.2398,3.2398,3.2398,3.2398,3.2398,3.2398,3.2398,3.2398,3.2398,3.2398,0.0,0.0,0.0,0.0,0.0,0.0,0.0,0.0,0.0,0.0,0.0,0.0,0.0,0.0,2.3617,2.3195,0.0,0.0,0.0,0.0,0.0,2.7046,2.7971,0.0,2.9792,0.0,0.0,0.0,0.0,0.0,2.9792,2.9792,2.9792,2.9792,2.9792,2.9339,2.8542,0.0,0.0,0.0,2.6502,2.6732,2.7353,0.0,0.0,0.0,0.0,0.0,0.0,0.0,0.0,0.0,0.0,0.0,0.0,0.0,0.0,0.0,0.0,3.6057,0.0,3.746,3.8031,0.0,0.0,0.0,0.0,0.0,0.0,0.0,0.0,0.0,0.0,0.0,0.0,0.0,0.0,0.0,0.0,0.0,0.0,0.0,0.0,0.0,0.0,0.0,0.0,0.0,3.2428,3.2398,3.2398,3.2398,3.2398,3.2398,3.2398,3.2398,3.2398,3.2398,3.2398,3.2398,3.2398,3.2398,3.2398,3.2398,3.2398,3.2398,3.2398,3.2398,3.2398,3.2398,3.2398,3.2398,3.2398,3.2398,3.2398,3.2398,0.0,0.0,0.0,0.0,0.0,0.0,0.0,0.0,0.0,0.0,0.0,0.0,0.0,2.4274,2.4461,2.4054,2.4712,0.0,0.0,0.0,0.0,2.7959,2.8343,2.8922,2.9792,2.9792,0.0,0.0,0.0,2.9792,2.9792,2.9792,2.9792,2.9792,2.9792,2.9624,2.9326,2.9145,0.0,0.0,2.7246,2.6706,2.634,0.0,0.0,0.0,0.0,0.0,0.0,0.0,0.0,0.0,0.0,0.0,0.0,0.0,0.0,0.0,0.0,0.0,0.0,3.6783,3.7353,3.7754,0.0,0.0,0.0,0.0,0.0,0.0,0.0,0.0,0.0,0.0,0.0,0.0,0.0,0.0,0.0,0.0,0.0,0.0,0.0,0.0,0.0,0.0,0.0,0.0,3.2428,3.2398,3.2398,3.2398,3.2398,3.2398,3.2398,3.2398,3.2398,3.2398,3.2398,3.2398,3.2398,3.2398,3.2398,3.2398,3.2398,3.2398,3.2398,3.2398,3.2398,3.2398,3.2398,3.2398,3.2398,3.2398,3.2398,3.2398,0.0,0.0,0.0,0.0,0.0,0.0,0.0,0.0,0.0,0.0,0.0,0.0,0.0,0.0,2.5529,2.5182,2.5547,2.5695,2.5433,2.6231,2.7221,2.845,2.8502,2.8922,2.9792,0.0,0.0,0.0,0.0,0.0,0.0,2.9792,2.9792,2.9792,2.9792,2.9792,0.0,0.0,0.0,2.8873,2.8118,2.7375,2.6762,0.0,0.0,0.0,0.0,0.0,0.0,0.0,0.0,0.0,0.0,0.0,0.0,0.0,0.0,0.0,3.4158,0.0,0.0,0.0,0.0,0.0,0.0,0.0,0.0,0.0,0.0,0.0,0.0,0.0,0.0,0.0,0.0,0.0,0.0,0.0,0.0,0.0,0.0,0.0,0.0,0.0,0.0,0.0,0.0,0.0,3.3084,3.2616,3.2398,3.2398,3.2398,3.2398,3.2398,3.2398,3.2398,3.2398,3.2398,3.2398,3.2398,3.2398,3.2398,3.2382,3.2151,3.2182,3.2398,3.2398,3.2398,3.2398,3.2398,3.2425,3.2453,3.2453,3.2523,3.2578,0.0,0.0,0.0,0.0,0.0,0.0,0.0,0.0,0.0,0.0,0.0,0.0,0.0,0.0,0.0,2.6564,2.6174,2.6105,2.6523,2.6597,2.7175,2.8478,0.0,0.0,0.0,0.0,0.0,0.0,0.0,0.0,0.0,0.0,2.9792,2.9792,2.9792,2.9779,2.9767,0.0,2.9792,2.9741,0.0,2.8888,2.8838,0.0,0.0,0.0,2.8675,2.8537,0.0,2.8712,0.0,0.0,0.0,0.0,0.0,0.0,0.0,0.0,0.0,0.0,0.0,0.0,0.0,0.0,0.0,0.0,0.0,0.0,0.0,0.0,0.0,0.0,0.0,0.0,0.0,0.0,0.0,0.0,0.0,0.0,0.0,0.0,0.0,0.0,0.0,0.0,0.0,3.5098,3.4343,3.3096,3.2398,3.2398,3.2398,3.2398,3.2428,3.2398,3.2398,3.2428,3.2398,3.2398,3.2398,3.2398,3.2398,3.2351,3.1705,3.1782,3.2398,3.2367,3.2382,3.2398,3.2398,3.2496,3.2594,3.2621,3.2746,3.2897,0.0,0.0,0.0,0.0,0.0,0.0,0.0,0.0,0.0,0.0,0.0,0.0,0.0,0.0,2.7992,2.7929,2.84,2.8465,2.7997,2.8545,2.9061,2.9417,2.9456,2.9546,2.9792,0.0,0.0,0.0,0.0,0.0,0.0,0.0,0.0,0.0,2.9792,2.9566,2.9202,2.9616,0.0,0.0,2.9126,2.8888,0.0,0.0,0.0,0.0,0.0,2.8499,2.8687,0.0,2.9051,2.9113,0.0,0.0,0.0,0.0,0.0,0.0,3.2467,0.0,0.0,0.0,0.0,0.0,0.0,0.0,0.0,0.0,0.0,0.0,0.0,0.0,0.0,0.0,0.0,0.0,0.0,0.0,0.0,0.0,0.0,0.0,0.0,0.0,0.0,0.0,3.6728,3.5492,3.437,3.3096,3.2398,3.2398,3.2398,3.2628,3.3121,3.2628,3.2628,3.3121,3.2628,3.2398,3.2398,3.2398,3.2398,3.2382,3.2198,3.2213,3.2351,3.1859,3.1951,3.2425,3.2523,3.2578,3.2621,3.2746,3.2843,3.2897,0.0,0.0,0.0,0.0,0.0,0.0,3.1589,3.1411,0.0,0.0,0.0,0.0,0.0,0.0,0.0,2.9383,2.9632,2.9585,2.9079,2.9507,2.9792,2.9792,2.9792,2.9792,2.9792,2.9792,0.0,0.0,0.0,0.0,0.0,0.0,0.0,0.0,0.0,0.0,0.0,0.0,0.0,0.0,2.9327,0.0,0.0,2.8925,2.8812,0.0,0.0,0.0,2.8888,2.8888,2.9038,0.0,0.0,0.0,0.0,0.0,0.0,0.0,0.0,0.0,0.0,0.0,0.0,0.0,3.6274,3.6445,3.6492,0.0,0.0,0.0,0.0,0.0,0.0,0.0,0.0,0.0,0.0,0.0,0.0,0.0,0.0,0.0,0.0,0.0,0.0,0.0,3.7793,3.6226,3.4413,3.3376,3.269,3.2398,3.2398,3.2582,3.2982,3.2305,3.2321,3.2967,3.229,3.2121,3.2382,3.2105,3.2257,3.2734,3.2427,3.2591,3.3008,3.216,3.2078,3.2465,3.2269,3.2455,3.2812,3.2951,3.3032,3.3085,0.0,0.0,0.0,3.3156,3.3571,3.3583,3.2629,0.0,3.283,0.0,0.0,0.0,0.0,0.0,0.0,0.0,3.0193,2.988,2.988,2.9829,2.9792,2.9792,2.9792,2.9792,2.9792,2.9792,0.0,0.0,0.0,0.0,0.0,0.0,0.0,0.0,0.0,0.0,0.0,0.0,0.0,2.885,2.9528,2.9792,0.0,0.0,2.9792,2.9792,2.9792,2.9465,2.8988,2.8988,2.8698,0.0,0.0,0.0,0.0,0.0,2.8638,0.0,0.0,0.0,0.0,0.0,0.0,0.0,3.5867,3.6166,3.6307,0.0,0.0,0.0,0.0,0.0,0.0,0.0,0.0,0.0,0.0,0.0,0.0,0.0,0.0,0.0,0.0,0.0,3.9995,3.9995,3.8814,3.6973,3.4489,3.3791,3.3166,3.2508,3.2492,3.2465,3.2398,3.1747,3.169,3.2275,3.1674,3.1705,3.2259,3.1817,3.22,3.3177,3.2643,3.3029,3.3946,3.2928,3.2562,3.2625,3.2009,3.2346,3.3176,3.3203,3.3319,3.3477,0.0,0.0,0.0,3.3658,3.3822,3.3972,3.4198,0.0,0.0,0.0,0.0,0.0,0.0,0.0,0.0,0.0,0.0,0.0,3.0457,3.0043,2.9792,2.9792,2.9792,2.9792,2.9792,2.9792,2.9792,2.9792,0.0,0.0,0.0,0.0,0.0,0.0,0.0,0.0,0.0,0.0,0.0,2.836,2.9377,0.0,2.9792,2.9792,2.9792,2.9792,2.9792,2.9716,2.9616,0.0,2.8988,2.822,0.0,0.0,0.0,0.0,0.0,0.0,0.0,0.0,0.0,0.0,0.0,0.0,3.4763,3.503,3.5078,0.0,0.0,0.0,0.0,0.0,0.0,0.0,0.0,0.0,0.0,0.0,0.0,0.0,0.0,0.0,0.0,0.0,3.9365,3.9365,3.8116,3.6555,3.48,3.418,3.3629,3.3066,3.3039,3.2841,3.2382,3.1747,3.1486,3.1609,3.147,3.1486,3.1624,3.2477,3.2993,3.3209,3.3521,3.384,3.4112,3.3356,3.3115,3.3203,3.2924,3.3151,3.3672,3.3832,3.4143,3.4521,0.0,0.0,0.0,3.3847,3.4349,3.468,3.468,0.0,0.0,0.0,0.0,0.0,0.0,0.0,0.0,0.0,0.0,0.0,0.0,3.0357,3.008,2.9804,2.9792,2.9792,2.9792,2.9792,2.9792,2.9792,0.0,0.0,0.0,0.0,0.0,0.0,0.0,0.0,0.0,0.0,2.8938,2.9001,2.9566,0.0,2.9792,2.9792,2.9792,2.9792,2.9792,2.9792,2.9741,2.9453,2.9176,0.0,0.0,2.802,2.7729,0.0,2.7653,2.7585,0.0,0.0,0.0,3.0195,0.0,0.0,0.0,3.3826,3.454,3.4409,0.0,0.0,0.0,0.0,0.0,0.0,0.0,0.0,0.0,0.0,0.0,0.0,0.0,0.0,0.0,0.0,3.9243,3.9195,3.8238,3.7318,3.6531,3.5607,3.4844,3.4311,3.3272,3.2709,3.2749,3.1789,3.1601,3.2145,3.2171,3.2171,3.2161,3.28,3.3237,3.3485,3.4178,3.4697,3.4948,3.4506,3.4336,3.4325,3.3614,3.3744,3.4309,3.4399,3.4593,3.4793,0.0,0.0,0.0,0.0,3.468,3.5219,0.0,0.0,0.0,0.0,0.0,0.0,0.0,0.0,0.0,0.0,0.0,0.0,0.0,0.0,3.0256,2.9817,2.9792,2.9792,2.9792,2.9792,2.9792,2.9792,0.0,0.0,0.0,0.0,0.0,0.0,0.0,0.0,0.0,0.0,0.0,2.9641,0.0,2.9792,2.9792,2.9792,2.9792,2.9792,2.9792,2.9792,2.9729,2.9252,0.0,2.9415,2.816,2.8003,0.0,0.0,0.0,0.0,0.0,0.0,0.0,0.0,0.0,3.0787,0.0,0.0,0.0,3.2643,0.0,0.0,0.0,0.0,0.0,0.0,0.0,0.0,0.0,0.0,0.0,0.0,0.0,0.0,0.0,0.0,3.9381,3.9003,3.8724,3.8444,3.8152,3.6988,3.6005,3.5375,3.3772,3.293,3.2919,3.2146,3.2078,3.2733,3.2902,3.2967,3.2943,3.3234,3.3563,3.3995,3.4801,3.5424,3.5861,3.5644,3.556,3.547,3.4303,3.4279,3.4934,3.4934,3.5005,3.5075,3.3124,3.352,0.0,0.0,3.4412,0.0,0.0,0.0,0.0,0.0,0.0,0.0,0.0,0.0,0.0,0.0,0.0,0.0,3.1298,0.0,0.0,2.9792,2.9792,2.9792,2.9792,2.9792,2.9792,2.9792,2.9792,0.0,0.0,0.0,0.0,0.0,2.9126,0.0,0.0,0.0,2.8925,0.0,2.9578,2.9792,0.0,2.9792,2.9792,2.9792,2.9792,2.9792,2.9779,0.0,2.9402,2.9051,0.0,2.8697,2.7891,0.0,0.0,0.0,0.0,0.0,0.0,0.0,2.8672,0.0,0.0,0.0,3.2108,3.2936,0.0,0.0,0.0,0.0,0.0,0.0,0.0,0.0,0.0,0.0,0.0,0.0,0.0,0.0,0.0,0.0,0.0,3.8325,3.9269,3.9302,3.7995,3.7155,3.6246,3.5176,3.5423,3.4512,3.2329,3.3276,3.3218,3.2115,3.2724,3.2991,3.3048,3.4118,3.47,3.4882,3.5459,3.5883,3.6144,3.6122,3.6148,3.6092,3.5084,3.5008,3.5504,3.5504,3.5771,3.6135,3.3206,3.3771,0.0,0.0,0.0,0.0,0.0,0.0,0.0,0.0,0.0,0.0,0.0,0.0,0.0,0.0,0.0,3.1738,0.0,0.0,0.0,2.9804,2.9792,2.9792,2.9792,2.9792,2.9792,2.9792,2.9792,0.0,0.0,0.0,0.0,0.0,2.9176,0.0,2.9063,0.0,2.9265,0.0,0.0,0.0,0.0,2.9792,2.9792,2.9792,2.9792,2.9792,2.9792,0.0,2.9628,0.0,0.0,0.0,0.0,0.0,0.0,0.0,0.0,0.0,0.0,0.0,0.0,0.0,2.9526,0.0,3.1811,0.0,0.0,0.0,0.0,0.0,0.0,0.0,0.0,0.0,0.0,0.0,0.0,0.0,0.0,0.0,0.0,0.0,0.0,0.0,0.0,3.9453,3.9191,3.8464,3.7893,3.7495,3.6084,3.5028,3.4347,3.4087,3.3756,3.345,3.416,3.4293,3.3894,3.4912,3.5189,3.4869,3.5679,3.6096,3.6187,3.6233,3.6259,3.6259,3.5837,3.5815,3.6006,3.6006,3.6135,3.6301,3.3483,0.0,0.0,0.0,0.0,0.0,0.0,0.0,0.0,0.0,0.0,0.0,3.4562,3.4135,0.0,0.0,3.2554,3.1976,0.0,0.0,3.0369,0.0,0.0,0.0,2.9792,2.9792,2.9792,2.9792,2.9792,0.0,0.0,0.0,0.0,0.0,0.0,2.9516,2.9516,0.0,0.0,3.019,3.0011,2.9934,2.9869,2.983,2.9792,2.9792,2.9792,2.9792,2.9792,2.9792,2.9691,0.0,2.9026,0.0,0.0,0.0,0.0,0.0,2.7902,0.0,0.0,0.0,0.0,0.0,0.0,0.0,0.0,0.0,0.0,0.0,0.0,0.0,0.0,0.0,0.0,0.0,0.0,0.0,0.0,0.0,0.0,0.0,0.0,0.0,0.0,0.0,0.0,0.0,3.9858,3.9302,3.8908,3.8688,3.6779,3.578,3.5927,3.5065,3.4583,3.4506,3.5245,3.5216,3.4544,3.5394,3.5533,3.5104,3.5861,3.6208,3.6229,3.628,3.6301,3.6301,3.6301,3.6301,3.6301,3.6301,3.6301,3.6301,3.3985,3.4336,0.0,0.0,0.0,0.0,0.0,0.0,0.0,0.0,0.0,0.0,0.0,0.0,0.0,0.0,0.0,3.1976,3.1424,0.0,3.0369,0.0,0.0,2.9792,0.0,2.9792,2.9792,2.9792,2.9792,0.0,0.0,0.0,0.0,0.0,0.0,3.0381,3.0381,3.0381,3.0381,3.0406,3.0368,3.0254,3.0075,0.0,2.9792,2.9792,2.9792,0.0,0.0,2.9792,2.9415,0.0,0.0,0.0,0.0,0.0,0.0,0.0,0.0,0.0,0.0,2.914,0.0,0.0,0.0,0.0,3.022,0.0,0.0,0.0,0.0,0.0,0.0,0.0,0.0,0.0,0.0,0.0,0.0,0.0,0.0,0.0,0.0,0.0,0.0,0.0,0.0,0.0,3.9342,3.9085,3.8505,3.7395,3.7653,3.7227,3.6008,3.6471,3.596,3.4506,3.5245,3.5216,3.4544,3.5394,3.5866,3.5963,3.6127,3.6251,3.6301,3.6301,3.6301,3.6301,3.6301,3.6301,3.6301,3.6301,3.6301,3.6301,0.0,0.0,0.0,0.0,0.0,0.0,0.0,3.4248,0.0,0.0,0.0,0.0,0.0,3.4449,3.4073,0.0,0.0,3.1976,3.1424,3.0909,0.0,0.0,0.0,2.9792,0.0,0.0,0.0,0.0,0.0,0.0,0.0,0.0,0.0,0.0,0.0,3.0609,0.0,0.0,0.0,0.0,0.0,3.0113,2.9706,0.0,0.0,2.9792,2.9792,2.9792,0.0,2.9792,2.9402,2.8888,2.8888,2.8294,2.7662,2.7888,2.7776,0.0,0.0,0.0,2.8059,2.9039,0.0,0.0,0.0,0.0,0.0,0.0,0.0,0.0,0.0,0.0,0.0,0.0,0.0,0.0,0.0,0.0,0.0,0.0,0.0,0.0,0.0,0.0,0.0,0.0,0.0,0.0,0.0,3.9538,3.9548,3.9181,3.8815,3.8188,3.7278,3.6426,3.5504,3.4489,3.4269,3.4269,3.4527,3.4993,3.5493,3.6019,3.6191,3.628,3.6301,3.6301,3.6301,3.6301,3.6301,3.6301,3.6301,3.6301,3.6301,3.6301,3.4688,0.0,0.0,0.0,0.0,0.0,0.0,0.0,0.0,0.0,3.5157,0.0,3.4776,0.0,3.4274,0.0,3.2729,3.2277,3.1725,3.1185,0.0,3.0105,2.9892,0.0,0.0,0.0,0.0,0.0,0.0,3.0381,0.0,0.0,0.0,0.0,0.0,3.0811,3.0811,0.0,3.0811,0.0,0.0,3.0339,0.0,0.0,3.0075,2.9745,0.0,3.0011,3.0011,3.0011,2.9631,2.9088,2.8886,2.8348,2.7748,2.7557,2.743,2.7447,2.779,2.7709,0.0,2.8726,2.8996,0.0,2.9918,0.0,0.0,0.0,0.0,0.0,0.0,0.0,0.0,0.0,0.0,0.0,0.0,0.0,0.0,0.0,0.0,0.0,0.0,0.0,0.0,0.0,0.0,0.0,0.0,0.0,3.9679,3.9454,3.916,3.865,3.7922,3.6654,3.5385,3.4117,3.4438,3.446,3.4198,3.5206,3.5831,3.6062,3.6237,3.6301,3.6301,3.6301,3.6301,3.6301,3.6301,3.6301,3.6301,3.6301,3.6301,3.6301,3.4826,0.0,0.0,0.0,3.3488,0.0,0.0,0.0,3.4098,0.0,3.5157,3.5295,3.4776,3.468,3.4274,3.3169,3.3124,3.283,3.2252,3.1725,0.0,0.0,3.0131,2.9945,3.0164,0.0,0.0,0.0,0.0,0.0,0.0,0.0,0.0,0.0,3.0986,0.0,3.0986,3.1061,3.1099,3.1099,3.1099,3.096,3.081,3.0798,0.0,2.9711,3.0201,3.0406,3.0406,3.0444,3.0072,2.947,2.8967,2.8521,2.8079,2.7543,2.7475,2.7596,2.759,2.7556,2.7687,2.8271,0.0,0.0,0.0,0.0,2.9499,0.0,0.0,0.0,0.0,0.0,0.0,0.0,0.0,0.0,0.0,0.0,0.0,0.0,0.0,0.0,0.0,0.0,0.0,0.0,0.0,0.0,0.0,0.0,0.0,3.839,3.8829,3.87,3.7973,3.7202,3.5673,3.3541,3.5656,3.5638,3.3777,3.6034,3.6759,3.6255,3.6293,3.6301,3.6301,3.6301,3.6301,3.6301,3.6301,3.6301,3.6301,3.6301,3.6301,3.6301,3.5002,3.4686,3.4423,0.0,3.3705,3.3124,0.0,0.0,0.0,0.0,3.5157,3.5295,3.4776,3.468,3.4274,3.3169,3.3124,0.0,0.0,0.0,0.0,3.1223,3.0683,3.0473,3.0696,3.0291,0.0,3.0609,0.0,0.0,3.0911,0.0,0.0,0.0,0.0,0.0,3.1061,3.1566,3.2123,3.2627,3.2627,3.2364,0.0,0.0,3.217,3.1555,3.0701,3.0406,3.047,3.1046,3.0837,3.0372,3.0226,2.9918,2.9459,2.8825,2.8766,2.8904,2.8981,2.8615,2.8295,2.8442,2.8805,2.9221,0.0,0.0,0.0,0.0,0.0,0.0,0.0,0.0,0.0,0.0,0.0,0.0,0.0,0.0,0.0,0.0,0.0,0.0,0.0,0.0,0.0,0.0,0.0,0.0,0.0,0.0,0.0,3.9627,3.9758,3.9469,3.8717,3.7455,3.6197,3.5042,3.5064,3.513,3.5261,3.5949,3.6559,3.6977,3.6517,3.6301,3.6301,3.6301,3.6301,3.6301,3.6301,3.6301,3.6301,3.6301,3.6301,3.6301,3.6691,0.0,0.0,3.4894,0.0,0.0,3.3822,3.4002,0.0,3.4843,3.5216,0.0,3.4546,3.4584,3.4274,3.3316,3.324,0.0,3.2616,0.0,0.0,3.194,3.1251,3.0952,3.1162,3.0637,0.0,3.0849,0.0,0.0,3.1468,0.0,0.0,0.0,0.0,3.1955,0.0,3.2412,3.2826,3.3178,3.3178,0.0,0.0,3.3087,3.3002,3.2646,3.1893,3.1613,3.1686,3.211,3.2036,3.1744,3.1519,3.1274,3.0924,2.9997,3.0009,3.027,3.0017,2.9658,2.9454,2.9743,2.9854,3.0033,3.0571,3.101,3.1302,0.0,0.0,0.0,0.0,0.0,0.0,0.0,0.0,0.0,0.0,0.0,0.0,0.0,0.0,0.0,0.0,0.0,0.0,0.0,0.0,0.0,0.0,0.0,0.0,3.9713,3.9969,3.9605,3.8531,3.7686,3.6552,3.5131,3.5396,3.5506,3.5433,3.6224,3.6693,3.6836,3.6469,3.6301,3.6301,3.6301,3.6301,3.6301,3.6301,3.6301,3.6301,3.6301,3.6301,3.6301,3.8946,0.0,0.0,0.0,0.0,0.0,0.0,3.4981,0.0,3.5137,0.0,3.5213,3.4343,3.4454,3.428,3.3534,0.0,3.3356,3.3197,3.2912,3.2721,3.2657,3.1867,3.1539,3.1642,3.1122,0.0,0.0,0.0,3.1505,3.2218,0.0,0.0,0.0,0.0,0.0,0.0,3.3353,3.3388,0.0,3.3506,3.3506,3.3506,3.3506,3.3506,3.3506,3.3506,3.3367,3.3213,3.3318,3.3353,3.3254,3.28,3.2665,3.2424,3.1249,3.1249,3.149,3.102,3.0743,3.0811,3.1462,3.1193,3.1065,3.2169,3.2491,3.234,3.1697,3.2468,0.0,0.0,0.0,0.0,0.0,0.0,0.0,0.0,0.0,0.0,0.0,0.0,0.0,0.0,0.0,0.0,0.0,0.0,0.0,0.0,0.0,0.0,0.0,3.9841,0.0,3.821,0.0,3.6914,3.4967,3.6282,3.6331,3.5266,3.6671,3.6981,3.6456,3.6353,3.6301,3.6301,3.6301,3.6301,3.6301,3.6301,3.6301,3.6301,3.6301,3.6301,3.6301,3.9452,0.0,0.0,0.0,0.0,3.7656,3.8034,3.69,3.584,3.5405,3.5795,3.5737,3.4669,3.4553,3.4353,3.3692,3.3641,0.0,0.0,0.0,0.0,3.2861,3.2868,3.272,3.2419,3.1883,3.2015,0.0,3.2196,3.2268,3.3003,0.0,0.0,0.0,0.0,0.0,3.4109,3.4109,0.0,3.5115,3.5115,3.5115,3.5115,3.5115,3.5115,3.5115,3.5115,3.4288,3.3283,3.3891,3.4109,3.4081,3.4013,3.3984,3.384,3.3103,3.258,3.233,3.2827,3.2169,3.1488,3.2171,3.2228,3.2214,3.2431,3.2932,3.3115,3.2433,3.2495,3.2556,3.2214,0.0,0.0,0.0,0.0,0.0,0.0,0.0,0.0,0.0,0.0,0.0,0.0,0.0,0.0,0.0,0.0,0.0,0.0,0.0,0.0,0.0,0.0,0.0,0.0,0.0,0.0,3.7392,3.7183,3.6989,3.6903,3.7156,3.7313,3.7254,3.6577,3.6301,3.6301,3.6301,3.6301,3.6301,3.6301,3.6301,3.6301,3.6301,3.6301,3.6301,4.1098,0.0,0.0,0.0,0.0,0.0,0.0,3.887,0.0,3.6915,3.656,3.6151,3.5512,3.5268,3.5007,3.4579,3.4553,3.4352,3.3886,3.4377,3.4406,3.3792,3.3359,0.0,3.3376,3.2445,3.2362,3.3178,3.2826,3.3073,3.3768,0.0,0.0,0.0,0.0,3.4606,0.0,0.0,0.0,3.5504,3.5504,3.5504,3.5504,3.5504,3.528,3.5026,3.5385,3.4812,3.3958,3.4688,3.4905,3.4905,3.4905,3.4905,3.4787,3.4171,3.3977,3.3997,3.4004,3.3537,3.3214,3.3878,3.379,3.3524,3.3524,3.3806,3.3724,3.2721,3.2512,3.2512,3.2512,3.3111,0.0,0.0,0.0,0.0,0.0,0.0,0.0,0.0,0.0,0.0,0.0,0.0,0.0,0.0,0.0,0.0,0.0,0.0,0.0,0.0,0.0,0.0,0.0,0.0,0.0,3.6871,3.671,3.6671,3.6736,3.6762,3.6806,3.6853,3.6473,3.6301,3.6301,3.6301,3.6301,3.6301,3.6301,3.6301,3.6301,3.6301,3.6301,3.6301,0.0,4.25,0.0,0.0,4.0977,0.0,4.0394,4.0631,4.0293,3.8569,3.7561,3.6893,3.6606,3.6211,3.5883,3.5655,3.5506,3.5155,3.4458,3.5077,3.5151,3.4516,3.3822,3.3701,3.4108,3.3098,3.2932,0.0,3.3541,3.3802,0.0,0.0,0.0,0.0,0.0,0.0,0.0,0.0,3.5504,3.5504,3.5504,3.5415,3.5295,3.5444,3.4996,3.4399,3.5205,3.5055,3.4593,3.51,3.5385,3.5504,3.5504,3.54,3.5205,3.4848,3.4876,3.4996,3.4608,3.4503,3.4638,3.516,3.4876,3.4503,3.4503,3.4399,3.3933,3.2766,3.2378,3.2318,3.2452,3.2856,0.0,0.0,0.0,0.0,0.0,0.0,0.0,0.0,0.0,0.0,0.0,0.0,0.0,0.0,0.0,3.7152,3.7496,3.8985,0.0,0.0,0.0,3.8886,3.8166,0.0,3.6678,0.0,3.6187,3.6208,3.6229,3.6276,3.6301,3.6301,3.6301,3.6301,3.6301,3.6301,3.6301,3.6301,3.6301,3.6301,3.6301,3.6301,3.6301,3.6301,0.0,0.0,0.0,0.0,0.0,0.0,4.2147,4.199,4.1331,3.976,3.8976,3.8387,3.7786,3.7156,3.6763,3.6763,3.6182,3.5795,3.5739,3.526,3.471,3.4181,3.4683,3.4767,3.4312,3.4172,3.4476,0.0,0.0,3.461,0.0,0.0,0.0,0.0,0.0,0.0,0.0,3.5504,3.5504,3.5504,3.5504,3.513,3.4668,3.5265,3.4711,3.3754,3.504,3.5055,3.4518,3.4578,3.4996,3.5504,3.5504,3.507,3.4713,3.525,3.4592,3.3799,3.4354,3.4503,3.4518,3.4593,3.4563,3.4503,3.4503,3.4039,3.338,3.2662,3.2004,3.178,3.2378,3.221,3.2386,0.0,0.0,0.0,0.0,0.0,0.0,0.0,0.0,0.0,0.0,0.0,0.0,0.0,0.0,3.6428,3.8121,3.8439,3.904,4.007,0.0,3.9714,3.9091,3.7746,0.0,3.7151,3.656,3.628,3.628,3.6301,3.6301,3.6301,3.6301,3.6301,3.6301,3.6301,3.6301,3.6301,3.6301,3.6301,3.6301,3.6301,3.6301,3.6301,0.0,0.0,0.0,0.0,0.0,0.0,0.0,4.2292,4.1888,4.0856,4.0007,3.9287,3.8617,3.804,3.751,3.7109,3.6837,3.6341,3.5511,3.5716,3.5589,3.4947,3.4753,3.4772,3.5019,3.4528,3.4677,0.0,0.0,0.0,0.0,0.0,0.0,0.0,0.0,3.5504,3.5504,3.5504,3.5504,3.5504,3.5504,3.51,3.4533,3.4786,3.4068,3.308,3.4412,3.4203,3.3425,3.4234,3.4936,3.5429,3.5026,3.4728,3.4563,3.4801,3.4233,3.3559,3.3814,3.3888,3.3888,3.3888,3.3888,3.3784,3.338,3.3095,3.2721,3.2034,3.169,3.1614,3.2015,3.2208,3.2474,0.0,0.0,0.0,0.0,0.0,0.0,0.0,0.0,0.0,0.0,0.0,0.0,0.0,0.0,3.75,3.8198,3.8984,3.9845,4.073,0.0,3.8894,3.9078,3.7337,3.6459,3.6524,3.6371,3.6301,3.6301,3.6301,3.6301,3.6301,3.6301,3.6301,3.6301,3.6301,3.6301,3.6301,3.6301,3.6301,3.6301,3.6301,3.6611,3.7008,4.329,0.0,4.329,0.0,4.329,4.314,4.2716,4.2515,4.2171,4.1512,4.0666,3.992,3.9466,3.8728,3.8055,3.7572,3.7206,3.6605,3.5629,3.5967,3.5983,3.5534,3.4953,0.0,3.5504,3.4938,3.4938,3.5504,3.5504,0.0,0.0,0.0,0.0,0.0,3.5504,3.5504,3.5504,3.5504,3.5504,3.5489,3.5295,3.4801,3.4219,3.4219,3.3365,3.2363,3.3709,3.3469,3.2632,3.3589,3.4352,3.4831,3.4337,3.4053,3.3933,3.4159,3.3724,3.32,3.32,3.335,3.344,3.326,3.32,3.308,3.2617,3.2333,3.2064,3.16,3.1539,3.1626,3.1756,3.2175,3.2487,3.2499,0.0,0.0,0.0,0.0,0.0,0.0,3.0951,3.0959,3.1092,0.0,0.0,0.0,0.0,0.0,3.847,3.9359,0.0,0.0,0.0,0.0,0.0,3.6911,3.6019,3.6058,3.6216,3.6301,3.6301,3.6301,3.6301,3.6301,3.6301,3.6301,3.6301,3.6301,3.6301,3.6301,3.6301,3.6301,3.6335,3.6559,3.7008,3.753,4.329,4.329,4.329,4.329,4.329,4.329,4.329,4.2776,4.2171,4.1512,4.0816,4.0397,4.0397,3.92,3.8392,3.8392,3.724,3.6507,3.6492,3.5878,3.5519,0.0,0.0,3.5504,3.5504,3.5504,3.5504,3.5504,0.0,0.0,3.5504,0.0,3.5504,3.5504,3.5504,3.5504,3.5504,3.5504,3.5504,3.5444,3.4788,3.4098,3.3499,3.3499,3.2691,3.169,3.3036,3.308,3.2512,3.2527,3.2976,3.3514,3.3499,3.3066,3.2662,3.332,3.3036,3.2497,3.2497,3.3006,3.3335,3.2691,3.2497,3.2497,3.2512,3.1989,3.1511,3.1511,3.167,3.1799,3.1799,3.1927,3.2266,3.3049,0.0,0.0,0.0,0.0,0.0,0.0,3.3611,3.3562,3.1328,0.0,0.0,0.0,0.0,0.0,0.0,0.0,0.0,4.0087,3.9377,0.0,3.8027,3.6666,3.6079,3.6204,3.6276,3.6301,3.6301,3.6301,3.6301,3.6301,3.6301,3.6301,3.6301,3.6301,3.6301,3.6301,3.6301,3.6301,3.6404,3.718,3.7495,3.7616,4.329,4.329,4.329,4.329,4.329,4.314,4.2746,4.2156,4.1497,4.0801,4.0142,3.9723,3.9723,3.8931,3.8212,0.0,3.6971,3.6297,0.0,3.5624,3.5504,3.5504,3.5504,3.5504,3.5504,3.5504,3.5504,3.5504,0.0,0.0,0.0,3.5504,3.5504,3.5504,3.5504,3.5504,3.5474,3.4996,3.4801,3.4741,3.4083,3.341,3.2826,3.2826,3.2258,3.1615,3.2512,3.2378,3.1884,3.2333,3.2333,3.2123,3.2123,3.2288,3.2557,3.2766,3.2333,3.1809,3.1809,3.1974,3.2079,3.1869,3.1809,3.1809,3.1809,3.1747,3.1698,3.1698,3.1841,3.1968,3.2053,3.2122,3.2239,3.2606,0.0,0.0,0.0,0.0,0.0,0.0,3.1951,3.2026,0.0,3.3435,0.0,0.0,0.0,0.0,0.0,0.0,0.0,0.0,3.9157,0.0,3.8826,3.6956,3.6079,3.6204,3.6276,3.6301,3.6335,3.7387,3.7284,3.6335,3.687,3.6801,3.6301,3.6301,3.6301,3.6301,3.6301,3.6301,3.6456,3.7767,3.8254,3.8422,4.329,4.329,4.3215,4.3015,4.297,4.2746,4.2126,4.1467,4.0861,4.0442,3.9828,3.9388,3.9388,3.8796,0.0,3.7464,3.6851,3.6207,3.5549,3.5504,3.5504,3.5504,3.5504,3.5504,3.5504,0.0,0.0,3.5504,3.5504,3.5504,3.5504,3.5504,3.537,3.5115,3.5115,3.4981,3.4726,3.4292,3.4098,3.4084,3.3395,3.2886,3.2452,3.2213,3.1854,3.1555,3.1974,3.1854,3.157,3.1974,3.1854,3.1511,3.1511,3.1853,3.2241,3.2241,3.1985,3.1683,3.1683,3.1683,3.1683,3.1683,3.1683,3.1683,3.1683,3.1769,3.187,3.187,3.1968,3.2094,3.2191,3.2247,3.2379,3.2736,3.2552,3.2557,3.301,0.0,0.0,0.0,0.0,0.0,0.0,3.3955,0.0,0.0,0.0,0.0,0.0,0.0,0.0,4.0764,3.892,0.0,3.872,3.6916,3.6173,3.6529,3.696,3.7163,3.7198,3.8146,3.7905,3.6784,3.7581,3.7284,3.6318,3.6628,3.6559,3.6301,3.6301,3.6473,3.6887,3.8129,3.8979,3.9652,4.329,4.329,0.0,0.0,4.2425,0.0,4.1572,4.0846,4.0397,4.0397,3.9828,3.9388,3.9388,3.8841,3.8197,3.7539,0.0,0.0,0.0,3.5534,3.5504,3.5504,3.5504,3.5504,3.5504,3.5504,3.5504,3.5504,3.5504,3.5504,3.5504,3.5504,3.513,3.4503,3.4503,3.4144,3.3499,3.344,3.3425,3.3365,3.2706,3.2437,3.2348,3.1735,3.1511,3.1511,3.1511,3.1511,3.1511,3.1511,3.1539,3.1524,3.1524,3.1655,3.1813,3.1828,3.1898,3.1996,3.1996,3.1996,3.1996,3.1996,3.1996,3.1996,3.1996,3.2025,3.2025,3.2025,3.2122,3.2219,3.2219,3.233,3.2613,3.329,3.2875,3.2881,3.4038,0.0,0.0,0.0,0.0,0.0,0.0,3.5421,3.5554,0.0,0.0,0.0,0.0,0.0,4.0096,4.0096,3.8717,3.799,3.7997,3.6769,3.651,3.7228,3.819,3.8646,3.8594,3.8698,3.8341,3.7616,3.8353,3.7818,3.6525,3.7288,3.715,3.6456,3.6456,3.6904,3.7668,3.8479,3.9635,4.0929,0.0,0.0,4.3245,4.3135,4.2701,4.2351,4.2186,4.1145,4.0397,4.0397,3.9828,3.9388,3.9388,3.9275,3.8901,3.8212,3.7135,3.6417,3.6267,3.5789,3.5504,3.5504,3.5504,3.5504,3.5504,3.5504,3.5504,3.5504,3.5504,3.5504,3.5504,3.5504,3.513,3.4503,3.4503,3.4144,3.3469,3.2961,3.2751,3.2691,3.2004,3.1735,3.172,3.157,3.1511,3.1511,3.1511,3.1597,3.1727,3.1727,3.1813,3.1883,3.1883,3.1981,3.2066,3.187,3.1898,3.1996,3.1996,3.1996,3.1996,3.1996,3.1996,3.1996,3.1996,3.2066,3.2135,3.2135,3.2274,3.2342,3.2342,3.237,3.2613,3.329,3.3275,3.3395,3.4101,3.393,0.0,0.0,3.4354,3.4601,3.4533,3.5233,3.6053,0.0,0.0,0.0,0.0,0.0,4.0096,4.0096,3.9208,3.8831,3.9047,3.8139,3.786,3.8246,3.9055,3.9129,3.8629,3.9825,3.9635,3.8392,3.9112,3.8905,3.806,3.8249,3.8237,3.806,3.806,3.8163,3.8513,3.9859,4.0204,4.0164,4.329,4.329,4.311,4.2536,4.2147,4.1752,4.1115,4.0412,3.9948,3.9948,3.9649,3.9388,3.9388,3.9388,3.9275,3.8901,3.7659,3.6791,3.6507,3.5863,3.5504,3.5504,3.5504,3.5504,3.5504,3.5504,3.5504,3.5504,3.5504,3.534,3.504,3.504,3.4517,3.3589,3.3589,3.3215,3.2572,3.2183,3.2034,3.2004,3.1645,3.1511,3.1511,3.1511,3.1568,3.1641,3.1641,3.1756,3.1898,3.1898,3.194,3.1996,3.1996,3.2094,3.2163,3.2025,3.2066,3.2163,3.2163,3.2163,3.2163,3.2163,3.2163,3.2163,3.2163,3.2247,3.2287,3.2287,3.2342,3.2398,3.2398,3.2644,3.3187,3.4151,3.4008,3.416,3.5315,3.4888,0.0,3.5075,3.5469,3.5662,3.5549,3.6231,3.6874,3.7347,0.0,0.0,3.9554,3.9926,4.0096,4.0096,3.9377,3.9086,3.9296,3.9012,3.8929,3.9112,3.9871,4.0049,3.9687,4.0532,4.0256,3.9146,3.9905,3.9422,3.8151,3.8819,3.8698,3.8134,3.8456,3.8801,3.9198,4.0049,4.0733,4.1378,4.329,4.329,4.2946,4.1878,4.1594,4.1115,3.9903,3.9634,3.9493,3.9388,3.9388,3.9388,3.9388,3.9388,3.9388,3.9388,3.8272,3.7285,3.6671,3.5923,3.5504,3.5504,3.5504,3.5504,3.5504,3.5504,3.5504,3.5504,3.5504,3.516,3.4503,3.4503,3.3769,3.2512,3.2512,3.2123,3.1511,3.1511,3.1511,3.1511,3.1511,3.1511,3.1511,3.1511,3.1626,3.1799,3.1799,3.1898,3.2038,3.2038,3.2038,3.2066,3.2066,3.215,3.2247,3.2247,3.2315,3.2398,3.2398,3.2398,3.2398,3.2398,3.2398,3.2398,3.2398,3.2321,3.2275,3.2367,3.2321,3.2275,3.2382,3.2952,3.3857,3.5165,3.481,3.4968,3.6759,0.0,3.5554,3.6658,3.6897,3.6931,3.6812,3.7466,3.7635,3.7015,3.8227,0.0,0.0,3.9757,4.0113,4.0138,3.9528,3.9255,3.9418,3.9665,3.9835,3.9888,4.0584,4.0912,4.0912,4.0912,4.0532,3.9905,4.0601,3.9807,3.8134,3.9474,3.9232,3.8099,3.8841,3.9422,3.9871,3.9871,4.1153,4.2758,4.329,4.329,4.323,4.3021,4.2566,4.1991,4.119,4.0606,4.0053,3.9448,3.9388,3.9388,3.9388,3.9388,3.9388,3.9388,3.8691,3.7958,3.73,3.6163,3.5504,3.5504,3.5504,3.5504,3.5504,3.5504,3.5504,3.5504,3.5504,3.516,3.4503,3.4503,3.3769,3.2512,3.2512,3.2123,3.1511,3.1511,3.1511,3.1511,3.1511,3.1511,3.1511,3.1511,3.1626,3.1799,3.1799,3.1968,3.2178,3.2178,3.2247,3.2342,3.2342,3.2342,3.237,3.237,3.2398,3.2398,3.2398,3.2398,3.2398,3.2398,3.2398,3.2398,3.2398,3.1951,3.1732,3.2275,3.1936,3.1747,3.229,3.2952,3.3857,3.5165,3.5236,3.5575,3.6825,0.0,3.6695,3.6793,3.7347,3.7483,3.6863,3.7466,3.7855,3.7736,3.8514,3.9259,3.991,4.0045,4.0163,4.028,4.0161,4.0234,4.0453,4.0621,4.0698,4.0722,4.0843,4.0912,4.0912,4.0912,4.0843,4.0722,4.086,4.0705,4.0446,4.1291,4.1153,4.0446,4.1188,4.117,4.0722,4.0722,4.0946,4.124,4.329,4.329,4.3185,4.2865,4.259,4.2171,4.1512,4.0816,4.0292,3.9993,3.9634,3.9388,3.9388,3.9388,3.9388,3.9388,3.8796,3.8108,3.7449,3.6552,3.5878,3.5519,3.5504,3.5504,3.5504,3.5504,3.5504,3.5504,3.5504,3.4966,3.3948,3.3948,3.3245,3.1959,3.1959,3.1795,3.1511,3.1511,3.1511,3.1511,3.1511,3.1511,3.1511,3.1511,3.1683,3.1927,3.1927,3.2066,3.233,3.233,3.2342,3.2398,3.2398,3.2398,3.2398,3.2398,3.2398,3.2398,3.2398,3.2398,3.2398,3.2398,3.2121,3.1979,3.2305,3.1874,3.1609,3.2259,3.2136,3.2028,3.2336,3.3553,3.4785,3.5721,3.6082,0.0,0.0,3.7392,3.717,3.7898,3.8278,3.8362,3.8031,3.8633,3.892,3.8514,3.9174,3.974,4.0079,4.0163,4.0255,4.0305,4.0453,4.0576,4.0697,4.084,4.0912,4.0912,4.0912,4.0912,4.0912,4.0912,4.0912,4.0912,4.0912,4.0653,4.0302,4.1101,4.0963,4.0319,4.1119,4.1205,4.0912,4.0912,4.1153,4.1447,4.329,4.329,4.3125,4.2671,4.262,4.241,4.1752,4.1055,4.0576,4.0427,3.9828,3.9388,3.9388,3.9388,3.9388,3.9388,3.8931,3.8347,3.7689,3.7195,3.6507,3.5549,3.5504,3.5504,3.5504,3.5504,3.5504,3.5504,3.534,3.4741,3.3724,3.341,3.2721,3.1735,3.157,3.1511,3.1511,3.1511,3.1511,3.1511,3.1511,3.1511,3.1511,3.1539,3.1741,3.1981,3.2053,3.2191,3.2398,3.2398,3.2398,3.2398,3.2398,3.2398,3.2398,3.2398,3.2398,3.2398,3.2398,3.2275,3.2151,3.2151,3.1875,3.1719,3.2245,3.2031,3.195,3.2636,3.2652,3.2636,3.299,3.4439,3.5849,3.6613,0.0,0.0,0.0,3.8031,3.7743,3.8853,3.914,3.9174,3.9005,3.9673,3.9791,3.9056,3.969,4.0096,4.0121,4.0238,4.033,4.0404,4.06,4.0721,4.0745,4.0864,4.0912,4.0912,4.0912,4.0912,4.0912,4.0912,4.0912,4.0912,4.0912,4.0549,4.0026,4.0843,4.0705,4.0043,4.086,4.105,4.0912,4.0912,4.1274,4.1671,4.329,4.329,4.329,4.323,4.3215,4.3045,4.2425,4.1767,4.1085,4.0487,3.9828,3.9388,3.9388,3.9388,3.9388,3.9388,3.9328,3.905,3.8362,3.8272,3.7419,3.5594,3.5504,3.5504,3.5504,3.5504,3.5504,3.5504,3.4861,3.4533,3.4414,3.3155,3.2512,3.2392,3.178,3.1511,3.1511,3.1511,3.1511,3.1511,3.1511,3.1511,3.1511,3.1698,3.187,3.2025,3.215,3.2274,3.2398,3.2398,3.2398,3.2398,3.2398,3.2398,3.2398,3.2398,3.2398,3.2398,3.2398,3.1936,3.1459,3.1459,3.181,3.2167,3.2189,3.2572,3.3064,3.3724,3.3378,3.3379,3.4746,3.5619,3.656,3.7852,0.0,0.0,3.8897,3.8903,3.887,3.8988,3.9605,3.9757,3.9056,3.9673,3.9791,3.9056,3.969,4.0163,4.028,4.0288,4.0429,4.0648,4.0697,4.0769,4.0871,4.0912,4.0912,4.0912,4.0912,4.0912,4.0912,4.0912,4.0912,4.0912,4.0912,4.0877,4.0877,4.1619,4.1481,4.0894,4.1636,4.1516,4.0912,4.0912,4.0929,4.0981,4.329,4.329,4.329,4.329,4.329,4.32,4.3,4.2402,4.1796,4.11,4.0442,3.9873,3.9433,3.9388,3.9388,3.9388,3.9388,3.9125,3.8437,3.8392,3.7704,3.6178,3.5729,3.5504,3.5504,3.5504,3.5504,3.5504,3.5235,3.4906,3.4503,3.3994,3.3305,3.2497,3.2228,3.1884,3.1511,3.1511,3.1568,3.167,3.1539,3.1568,3.1698,3.1756,3.187,3.2025,3.2135,3.2302,3.2398,3.2398,3.2398,3.2398,3.2398,3.2398,3.2465,3.2788,3.2895,3.2975,3.3319,3.2707,3.2106,3.2424,3.2348,3.239,3.3134,3.3143,3.3202,3.3865,3.38,3.3939,3.4994,3.6058,3.7079,3.8022,0.0,3.89,3.9597,3.9276,3.9157,3.9639,3.9943,3.9994,3.9723,3.9943,3.9994,3.9706,3.9943,4.0163,4.0288,4.0453,4.0624,4.0817,4.0817,4.0864,4.0912,4.0912,4.0912,4.0912,4.0912,4.0912,4.0912,4.0912,4.0912,4.0912,4.0912,4.0912,4.0929,4.1205,4.1153,4.0929,4.1222,4.1153,4.0912,4.0912,4.0912,4.0912,4.329,4.329,4.329,4.329,4.329,4.329,4.329,4.2776,4.2231,4.1782,4.0935,4.0232,3.9768,3.9544,3.9388,3.9388,3.9388,3.9215,3.8736,3.8512,3.7823,3.6552,3.6058,3.5714,3.5504,3.5504,3.5504,3.5504,3.5295,3.5055,3.4786,3.4367,3.3694,3.2826,3.2826,3.2303,3.1525,3.1778,3.185,3.1799,3.167,3.167,3.1784,3.1841,3.1912,3.204,3.2435,3.2499,3.2428,3.2628,3.2567,3.2398,3.2398,3.252,3.2707,3.3093,3.3329,3.3537,3.3894,3.3459,3.2955,3.3111,3.2926,3.2901,3.3754,3.3874,3.3961,3.4406,3.4685,3.5128,3.5909,3.6953,3.7953,3.8671,3.911,3.9537,4.0028,3.9673,3.9537,4.0045,4.0096,4.0096,4.0096,4.0096,4.0096,4.0096,4.0138,4.0238,4.0429,4.0648,4.0817,4.0912,4.0912,4.0912,4.0912,4.0912,4.0912,4.0912,4.0912,4.0912,4.0912,4.0912,4.0912,4.0912,4.0912,4.0912,4.0912,4.0912,4.0912,4.0912,4.0912,4.0912,4.0912,4.0912,4.0912,4.0912,4.329,4.329,4.329,4.329,4.329,4.329,4.329,4.2776,4.241,4.2396,4.122,4.0412,4.0397,3.9813,3.9388,3.9388,3.9388,3.9388,3.9388,3.8781,3.7823,3.6552,3.6492,3.6178,3.5519,3.5504,3.5504,3.5504,3.4816,3.4863,3.5474,3.4143,3.3499,3.3499,3.3499,3.2766,3.1555,3.236,3.2357,3.1814,3.1799,3.1799,3.1828,3.1955,3.1996,3.2144,3.3054,3.2967,3.249,3.3167,3.2952,3.2398,3.2398,3.2776,3.3182,3.3224,3.3588,3.4011,3.4027,3.4027,3.3874,3.3186,3.3414,3.3802,3.3802,3.4751,3.56,3.56,3.6248,3.7032,3.777,3.8514,3.9225,3.9977,4.0096,4.0096,4.0096,4.0096,4.0096,4.0096,4.0096,4.0096,4.0096,4.0096,4.0096,4.0096,4.0213,4.0429,4.0697,4.084,4.0912,4.0912,4.0912,4.0912,4.0912,4.0912,4.0912,4.0912,4.0912,4.0912,4.0912,4.0912,4.0912,4.0912,4.0912,4.0912,4.0912,4.0912,4.0912,4.0912,4.0912,4.0912,4.0912,4.0912,4.0912,4.0912,4.329,4.329,4.329,4.329,4.329,4.329,4.329,4.3125,4.288,4.247,4.1647,4.0905,4.0442,3.9813,3.9388,3.9388,3.9388,3.9388,3.9388,3.923,3.8512,3.7195,3.6716,3.6178,3.5519,3.5504,3.5504,3.5504,3.5295,3.5344,3.5638,3.5135,3.47,3.433,3.3756,3.3351,3.3066,3.2358,3.2638,3.342,3.2863,3.2968,3.345,3.3006,3.2852,3.2896,3.3251,3.2967,3.249,3.3167,3.2952,3.2557,3.3447,3.3486,3.3572,3.5405,3.5686,3.5605,3.6478,3.6742,3.6352,3.4673,3.4383,3.4595,3.4974,3.5785,3.6434,3.6434,3.7043,3.7804,3.8531,3.8853,3.9225,3.9977,4.0096,4.0096,4.0096,4.0096,4.0096,4.0096,4.0096,4.0096,4.0096,4.0188,4.0188,4.0113,4.0313,4.0527,4.0697,4.084,4.0912,4.0912,4.0912,4.0912,4.0912,4.0912,4.0912,4.0912,4.0912,4.0912,4.0912,4.0912,4.0912,4.0912,4.0912,4.0912,4.0912,4.0912,4.0912,4.0912,4.0912,4.0912,4.0912,4.0912,4.0912,4.0912,4.329,4.329,4.329,4.329,4.329,4.329,4.329,4.329,4.3155,4.2791,4.2216,4.1557,4.0861,4.0202,3.9709,3.9403,3.9388,3.9388,3.9388,3.9388,3.8811,3.7464,3.7128,3.6499,3.5519,3.5504,3.5504,3.5504,3.5539,3.5621,3.5688,3.5686,3.5371,3.4801,3.4495,3.4195,3.3834,3.3305,3.3484,3.4163,3.3677,3.3601,3.3765,3.3352,3.3031,3.2861,3.3264,3.3136,3.2859,3.326,3.3121,3.2971,3.3979,3.4335,3.4754,3.6585,3.6928,3.6915,3.7675,3.7905,3.7614,3.6346,3.6016,3.6111,3.6426,3.6891,3.7229,3.7229,3.7821,3.8464,3.892,3.9225,3.9588,4.0028,4.0096,4.0096,4.0096,4.0096,4.0096,4.0096,4.0096,4.0138,4.0163,4.0213,4.0238,4.0263,4.0461,4.0631,4.0769,4.0864,4.0912,4.0912,4.0912,4.0912,4.0912,4.0912,4.0912,4.0912,4.0912,4.0912,4.0912,4.0912,4.0912,4.0912,4.0912,4.0912,4.0912,4.0912,4.1067,4.1309,4.1015,4.1084,4.1309,4.1015,4.0912,4.0912,4.329,4.329,4.329,4.329,4.329,4.329,4.329,4.329,4.329,4.329,4.2761,4.2156,4.1444,4.0786,4.0127,3.9448,3.9388,3.9388,3.9388,3.9388,3.8841,3.7588,3.762,3.7052,3.5642,3.5567,3.5537,3.5537,3.5638,3.572,3.5752,3.5926,3.5686,3.5124,3.5498,3.509,3.4228,3.4714,3.4729,3.4406,3.4345,3.3993,3.3488,3.3366,3.2938,3.2507,3.3157,3.3367,3.3321,3.3424,3.3542,3.3774,3.4442,3.5412,3.6434,3.7151,3.766,3.8024,3.8091,3.8108,3.8108,3.8108,3.8108,3.8075,3.7939,3.7956,3.8007,3.8007,3.8582,3.9089,3.9089,3.9656,4.0096,4.0096,4.0096,4.0096,4.0096,4.0096,4.0096,4.0096,4.0096,4.0163,4.0305,4.0213,4.0246,4.0534,4.0648,4.0769,4.0894,4.0912,4.0912,4.0912,4.0912,4.0912,4.0912,4.0912,4.0912,4.0912,4.0912,4.0912,4.0912,4.0912,4.0912,4.0912,4.0981,4.0963,4.0912,4.105,4.1464,4.1947,4.1343,4.1481,4.1947,4.1343,4.1067,4.0998,4.329,4.329,4.329,4.329,4.329,4.329,4.329,4.329,4.329,4.329,4.2761,4.2156,4.1444,4.0786,4.0127,3.9448,3.9388,3.9388,3.9388,3.9388,3.9086,3.8451,3.7959,3.7364,3.668,3.6006,3.5735,3.5893,3.5767,3.5847,3.6101,3.6037,3.5977,3.5919,3.5382,3.5368,3.5644,3.4744,3.5018,3.5968,3.5446,3.5461,3.5676,3.4615,3.4123,3.3939,3.3552,3.3059,3.2773,3.3768,3.4795,3.5868,3.6993,3.7162,3.7242,3.8942,3.9117,3.8886,3.9486,3.9622,3.9622,3.9622,3.9622,3.9334,3.8159,3.8345,3.8751,3.8751,3.9368,3.9859,3.9859,3.9994,4.0096,4.0096,4.0096,4.0096,4.0096,4.0096,4.0096,4.0096,4.0096,4.0163,4.0305,4.0362,4.0534,4.0776,4.0745,4.0769,4.0894,4.0912,4.0912,4.0912,4.0912,4.0912,4.0912,4.0912,4.0912,4.0912,4.0912,4.0912,4.0912,4.0912,4.0912,4.0929,4.1516,4.1429,4.0998,4.2206,4.243,4.205,4.2516,4.2413,4.2068,4.2534,4.2309,4.1774,4.329,4.329,4.329,4.329,4.329,4.329,4.329,4.329,4.3185,4.291,4.2851,4.2342,4.1055,4.0891,4.0472,3.9514,3.9388,3.9388,3.9388,3.9388,3.9146,3.8577,3.8054,3.7558,3.7005,3.6307,3.5958,3.6005,3.5958,3.6038,3.6196,3.6226,3.6289,3.6321,3.5813,3.5859,3.6305,3.5493,3.5661,3.6461,3.6107,3.5984,3.5891,3.489,3.4448,3.4304,3.3958,3.4023,3.4374,3.5086,3.5961,3.6928,3.7892,3.8148,3.8375,3.9708,3.9842,3.9622,3.9994,4.0096,4.0096,4.0096,4.0096,3.991,3.9123,3.9242,3.9512,3.9512,3.9842,4.0096,4.0096,4.0096,4.0096,4.0096,4.0096,4.0096,4.0096,4.0096,4.0096,4.0096,4.0163,4.0238,4.0387,4.0583,4.0728,4.0793,4.0793,4.084,4.0912,4.0912,4.0912,4.0912,4.1257,4.1257,4.0912,4.1636,4.1636,4.0912,4.1257,4.1636,4.1981,4.1602,4.1429,4.1429,4.1464,4.1464,4.1498,4.2292,4.281,4.3103,4.3172,4.3155,4.312,4.3172,4.293,4.2516,4.329,4.329,4.329,4.329,4.329,4.329,4.329,4.329,4.309,4.2485,4.2836,4.2462,4.0606,4.0786,4.0606,3.9514,3.9388,3.9388,3.9388,3.9424,3.9227,3.8707,3.8307,3.7858,3.7268,3.6714,3.6302,3.6068,3.6148,3.6211,3.6242,3.6414,3.6492,3.6492,3.6352,3.6352,3.6492,3.6305,3.6352,3.6492,3.6492,3.6091,3.5444,3.4869,3.4441,3.4225,3.4403,3.5401,3.6635,3.6705,3.7185,3.7882,3.8389,3.8909,3.9444,3.9944,4.0096,4.0096,4.0096,4.0096,4.0096,4.0096,4.0096,4.0096,4.0096,4.0096,4.0096,4.0096,4.0096,4.0096,4.0096,4.0096,4.0096,4.0096,4.0096,4.0096,4.0096,4.0096,4.0096,4.0096,4.0238,4.0387,4.0534,4.0769,4.0847,4.0745,4.084,4.0912,4.0912,4.0912,4.0912,4.0912,4.1619,4.1723,4.1101,4.2482,4.262,4.1498,4.2102,4.2603,4.2982,4.2447,4.2137,4.1999,4.1636,4.1688,4.2026,4.2406,4.3276,4.4259,4.3776,4.388,4.4225,4.3603,4.3379,4.3293,4.329,4.329,4.329,4.329,4.329,4.329,4.329,4.329,4.309,4.2485,4.247,4.1991,4.0561,3.9963,3.9619,3.9439,3.9388,3.9388,3.9388,3.9553,3.9687,3.9788,3.928,3.8812,3.8286,3.7643,3.7045,3.6429,3.6274,3.6274,3.646,3.6492,3.6492,3.6492,3.646,3.646,3.6492,3.646,3.6492,3.6492,3.6492,3.6091,3.5475,3.5274,3.479,3.4279,3.4886,3.6319,3.7928,3.7949,3.8752,3.9741,3.9817,3.991,3.9995,4.0087,4.0096,4.0096,4.0096,4.0096,4.0096,4.0096,4.0096,4.0096,4.0096,4.0096,4.0096,4.0096,4.0096,4.0096,4.0096,4.0096,4.0096,4.0096,4.0096,4.0096,4.0096,4.0096,4.0096,4.0096,4.0337,4.0534,4.0673,4.0817,4.0888,4.0871,4.0888,4.0912,4.0912,4.0912,4.0912,4.0912,4.1619,4.1964,4.1861,4.2758,4.3414,4.3845,4.3949,4.3362,4.2189,4.2775,4.2654,4.2061,4.331,4.3138,4.2147,4.4147,4.4699,4.4363,4.4906,4.4768,4.4294,4.419,4.4156,4.4138,4.329,4.329,4.329,4.329,4.329,4.329,4.329,4.329,4.2931,4.1991,4.2171,4.1767,4.0038,3.9589,3.9388,3.9388,3.9388,3.9388,3.9388,3.9589,3.9732,3.9839,3.9417,3.8935,3.8343,3.7781,3.7169,3.6492,3.6414,3.6414,3.6492,3.6492,3.6492,3.6492,3.6492,3.6492,3.6492,3.6492,3.6492,3.6492,3.6492,3.6091,3.5535,3.5812,3.5653,3.5444,3.6473,3.7882,3.921,3.8857,3.935,4.0096,4.0096,4.0096,4.0096,4.0096,4.0096,4.0096,4.0096,4.0096,4.0096,4.0096,4.0096,4.0096,4.0096,4.0096,4.0096,4.0096,4.0096,4.0096,4.0096,4.0096,4.0096,4.0096,4.0096,4.0096,4.0096,4.0096,4.0163,4.0313,4.0485,4.0655,4.0793,4.0864,4.0912,4.0912,4.0912,4.0912,4.0912,4.0912,4.0912,4.0912,4.205,4.2465,4.2016,4.3613,4.4165,4.369,4.4509,4.4561,4.3906,4.3845,4.3621,4.331,4.3569,4.3534,4.3362,4.4371,4.4837,4.4958,4.5259,4.519,4.4906,4.4906,4.4906,4.4854]}]]